<?xml version="1.0" encoding="UTF-8" standalone="no" ?>
<gpx xmlns="http://www.topografix.com/GPX/1/1" xmlns:xsi="http://www.w3.org/2001/XMLSchema-instance" xsi:schemaLocation="http://www.topografix.com/GPX/1/1 http://www.topografix.com/GPX/1/1/gpx.xsd" version="1.1" creator="VisuGPX - https://www.visugpx.com">
  <metadata>
    <name>lundi 2016 02 15</name>
    <desc><![CDATA[rando roller]]></desc>
  </metadata>
  <trk>
    <name><![CDATA[lundi 2016 02 15]]></name>
    <trkseg>
      <trkpt lat="48.85746" lon="2.34735">
        <ele>40.400001525879</ele>
        <time>2016-02-15T19:19:51.000Z</time>
      </trkpt>
      <trkpt lat="48.85767" lon="2.34748">
        <ele>40</ele>
        <time>2016-02-15T19:19:56.000Z</time>
      </trkpt>
      <trkpt lat="48.85766" lon="2.34745">
        <ele>40</ele>
        <time>2016-02-15T19:19:58.000Z</time>
      </trkpt>
      <trkpt lat="48.85763" lon="2.34754">
        <ele>40</ele>
        <time>2016-02-15T19:19:59.000Z</time>
      </trkpt>
      <trkpt lat="48.85772" lon="2.34754">
        <ele>39.799999237061</ele>
        <time>2016-02-15T19:20:03.000Z</time>
      </trkpt>
      <trkpt lat="48.85787" lon="2.34771">
        <ele>41.200000762939</ele>
        <time>2016-02-15T19:20:11.000Z</time>
      </trkpt>
      <trkpt lat="48.85798" lon="2.34788">
        <ele>42.200000762939</ele>
        <time>2016-02-15T19:20:20.000Z</time>
      </trkpt>
      <trkpt lat="48.85814" lon="2.34801">
        <ele>43.799999237061</ele>
        <time>2016-02-15T19:20:27.000Z</time>
      </trkpt>
      <trkpt lat="48.85834" lon="2.34807">
        <ele>45.799999237061</ele>
        <time>2016-02-15T19:20:32.000Z</time>
      </trkpt>
      <trkpt lat="48.85855" lon="2.34811">
        <ele>47.799999237061</ele>
        <time>2016-02-15T19:20:37.000Z</time>
      </trkpt>
      <trkpt lat="48.85871" lon="2.34825">
        <ele>48</ele>
        <time>2016-02-15T19:20:41.000Z</time>
      </trkpt>
      <trkpt lat="48.85891" lon="2.34838">
        <ele>48</ele>
        <time>2016-02-15T19:20:46.000Z</time>
      </trkpt>
      <trkpt lat="48.85911" lon="2.34852">
        <ele>48</ele>
        <time>2016-02-15T19:20:51.000Z</time>
      </trkpt>
      <trkpt lat="48.85928" lon="2.34862">
        <ele>48</ele>
        <time>2016-02-15T19:20:55.000Z</time>
      </trkpt>
      <trkpt lat="48.85946" lon="2.34872">
        <ele>48</ele>
        <time>2016-02-15T19:20:59.000Z</time>
      </trkpt>
      <trkpt lat="48.85964" lon="2.34881">
        <ele>48.200000762939</ele>
        <time>2016-02-15T19:21:03.000Z</time>
      </trkpt>
      <trkpt lat="48.85973" lon="2.34886">
        <ele>48.400001525879</ele>
        <time>2016-02-15T19:21:05.000Z</time>
      </trkpt>
      <trkpt lat="48.85989" lon="2.34893">
        <ele>48.599998474121</ele>
        <time>2016-02-15T19:21:08.000Z</time>
      </trkpt>
      <trkpt lat="48.86005" lon="2.34907">
        <ele>48.799999237061</ele>
        <time>2016-02-15T19:21:13.000Z</time>
      </trkpt>
      <trkpt lat="48.86021" lon="2.34923">
        <ele>48.799999237061</ele>
        <time>2016-02-15T19:21:17.000Z</time>
      </trkpt>
      <trkpt lat="48.86038" lon="2.34931">
        <ele>48.400001525879</ele>
        <time>2016-02-15T19:21:22.000Z</time>
      </trkpt>
      <trkpt lat="48.86052" lon="2.34938">
        <ele>48</ele>
        <time>2016-02-15T19:21:26.000Z</time>
      </trkpt>
      <trkpt lat="48.86061" lon="2.34943">
        <ele>47.799999237061</ele>
        <time>2016-02-15T19:21:28.000Z</time>
      </trkpt>
      <trkpt lat="48.86079" lon="2.34955">
        <ele>47.200000762939</ele>
        <time>2016-02-15T19:21:32.000Z</time>
      </trkpt>
      <trkpt lat="48.86096" lon="2.34964">
        <ele>46.599998474121</ele>
        <time>2016-02-15T19:21:36.000Z</time>
      </trkpt>
      <trkpt lat="48.86117" lon="2.34973">
        <ele>46.400001525879</ele>
        <time>2016-02-15T19:21:40.000Z</time>
      </trkpt>
      <trkpt lat="48.86136" lon="2.34985">
        <ele>46.599998474121</ele>
        <time>2016-02-15T19:21:44.000Z</time>
      </trkpt>
      <trkpt lat="48.86155" lon="2.34995">
        <ele>46.599998474121</ele>
        <time>2016-02-15T19:21:48.000Z</time>
      </trkpt>
      <trkpt lat="48.86177" lon="2.35003">
        <ele>47</ele>
        <time>2016-02-15T19:21:52.000Z</time>
      </trkpt>
      <trkpt lat="48.86194" lon="2.3501">
        <ele>47.200000762939</ele>
        <time>2016-02-15T19:21:55.000Z</time>
      </trkpt>
      <trkpt lat="48.86211" lon="2.3502">
        <ele>47.599998474121</ele>
        <time>2016-02-15T19:21:59.000Z</time>
      </trkpt>
      <trkpt lat="48.86228" lon="2.3503">
        <ele>47.799999237061</ele>
        <time>2016-02-15T19:22:03.000Z</time>
      </trkpt>
      <trkpt lat="48.86244" lon="2.3504">
        <ele>48.200000762939</ele>
        <time>2016-02-15T19:22:07.000Z</time>
      </trkpt>
      <trkpt lat="48.86256" lon="2.35048">
        <ele>48.400001525879</ele>
        <time>2016-02-15T19:22:10.000Z</time>
      </trkpt>
      <trkpt lat="48.86274" lon="2.3506">
        <ele>48.799999237061</ele>
        <time>2016-02-15T19:22:14.000Z</time>
      </trkpt>
      <trkpt lat="48.86293" lon="2.35072">
        <ele>48.599998474121</ele>
        <time>2016-02-15T19:22:18.000Z</time>
      </trkpt>
      <trkpt lat="48.86298" lon="2.35074">
        <ele>48.599998474121</ele>
        <time>2016-02-15T19:22:19.000Z</time>
      </trkpt>
      <trkpt lat="48.8632" lon="2.3508">
        <ele>48.400001525879</ele>
        <time>2016-02-15T19:22:23.000Z</time>
      </trkpt>
      <trkpt lat="48.86336" lon="2.35085">
        <ele>48.200000762939</ele>
        <time>2016-02-15T19:22:27.000Z</time>
      </trkpt>
      <trkpt lat="48.86357" lon="2.35098">
        <ele>47.799999237061</ele>
        <time>2016-02-15T19:22:32.000Z</time>
      </trkpt>
      <trkpt lat="48.86376" lon="2.3511">
        <ele>47.599998474121</ele>
        <time>2016-02-15T19:22:36.000Z</time>
      </trkpt>
      <trkpt lat="48.86394" lon="2.35123">
        <ele>47.400001525879</ele>
        <time>2016-02-15T19:22:40.000Z</time>
      </trkpt>
      <trkpt lat="48.86397" lon="2.35125">
        <ele>47.400001525879</ele>
        <time>2016-02-15T19:22:41.000Z</time>
      </trkpt>
      <trkpt lat="48.86417" lon="2.35137">
        <ele>47.200000762939</ele>
        <time>2016-02-15T19:22:46.000Z</time>
      </trkpt>
      <trkpt lat="48.86434" lon="2.35146">
        <ele>46.799999237061</ele>
        <time>2016-02-15T19:22:51.000Z</time>
      </trkpt>
      <trkpt lat="48.86452" lon="2.3516">
        <ele>46.599998474121</ele>
        <time>2016-02-15T19:22:57.000Z</time>
      </trkpt>
      <trkpt lat="48.86473" lon="2.3517">
        <ele>46.400001525879</ele>
        <time>2016-02-15T19:23:02.000Z</time>
      </trkpt>
      <trkpt lat="48.86493" lon="2.3518">
        <ele>46.200000762939</ele>
        <time>2016-02-15T19:23:08.000Z</time>
      </trkpt>
      <trkpt lat="48.86494" lon="2.35181">
        <ele>46.200000762939</ele>
        <time>2016-02-15T19:23:09.000Z</time>
      </trkpt>
      <trkpt lat="48.86503" lon="2.35188">
        <ele>46.400001525879</ele>
        <time>2016-02-15T19:23:12.000Z</time>
      </trkpt>
      <trkpt lat="48.86517" lon="2.35198">
        <ele>46.400001525879</ele>
        <time>2016-02-15T19:23:16.000Z</time>
      </trkpt>
      <trkpt lat="48.86522" lon="2.352">
        <ele>46.200000762939</ele>
        <time>2016-02-15T19:23:17.000Z</time>
      </trkpt>
      <trkpt lat="48.86539" lon="2.35209">
        <ele>46.799999237061</ele>
        <time>2016-02-15T19:23:21.000Z</time>
      </trkpt>
      <trkpt lat="48.86547" lon="2.35211">
        <ele>47</ele>
        <time>2016-02-15T19:23:23.000Z</time>
      </trkpt>
      <trkpt lat="48.8656" lon="2.35216">
        <ele>47.400001525879</ele>
        <time>2016-02-15T19:23:27.000Z</time>
      </trkpt>
      <trkpt lat="48.86578" lon="2.35232">
        <ele>48</ele>
        <time>2016-02-15T19:23:33.000Z</time>
      </trkpt>
      <trkpt lat="48.86598" lon="2.35233">
        <ele>48.599998474121</ele>
        <time>2016-02-15T19:23:36.000Z</time>
      </trkpt>
      <trkpt lat="48.86608" lon="2.35238">
        <ele>49</ele>
        <time>2016-02-15T19:23:38.000Z</time>
      </trkpt>
      <trkpt lat="48.86615" lon="2.35253">
        <ele>49.200000762939</ele>
        <time>2016-02-15T19:23:42.000Z</time>
      </trkpt>
      <trkpt lat="48.86618" lon="2.35281">
        <ele>48.799999237061</ele>
        <time>2016-02-15T19:23:47.000Z</time>
      </trkpt>
      <trkpt lat="48.86615" lon="2.35309">
        <ele>48.400001525879</ele>
        <time>2016-02-15T19:23:52.000Z</time>
      </trkpt>
      <trkpt lat="48.86614" lon="2.35341">
        <ele>47.799999237061</ele>
        <time>2016-02-15T19:23:58.000Z</time>
      </trkpt>
      <trkpt lat="48.86613" lon="2.35369">
        <ele>47.799999237061</ele>
        <time>2016-02-15T19:24:04.000Z</time>
      </trkpt>
      <trkpt lat="48.8661" lon="2.35404">
        <ele>48</ele>
        <time>2016-02-15T19:24:10.000Z</time>
      </trkpt>
      <trkpt lat="48.86607" lon="2.35438">
        <ele>47.400001525879</ele>
        <time>2016-02-15T19:24:17.000Z</time>
      </trkpt>
      <trkpt lat="48.866" lon="2.35464">
        <ele>46.799999237061</ele>
        <time>2016-02-15T19:24:21.000Z</time>
      </trkpt>
      <trkpt lat="48.86592" lon="2.3549">
        <ele>46.400001525879</ele>
        <time>2016-02-15T19:24:25.000Z</time>
      </trkpt>
      <trkpt lat="48.86585" lon="2.35521">
        <ele>45.400001525879</ele>
        <time>2016-02-15T19:24:30.000Z</time>
      </trkpt>
      <trkpt lat="48.86575" lon="2.35548">
        <ele>44</ele>
        <time>2016-02-15T19:24:35.000Z</time>
      </trkpt>
      <trkpt lat="48.86563" lon="2.3557">
        <ele>44</ele>
        <time>2016-02-15T19:24:40.000Z</time>
      </trkpt>
      <trkpt lat="48.86559" lon="2.35579">
        <ele>43.799999237061</ele>
        <time>2016-02-15T19:24:43.000Z</time>
      </trkpt>
      <trkpt lat="48.86556" lon="2.35598">
        <ele>44.400001525879</ele>
        <time>2016-02-15T19:24:47.000Z</time>
      </trkpt>
      <trkpt lat="48.86556" lon="2.35628">
        <ele>44.799999237061</ele>
        <time>2016-02-15T19:24:52.000Z</time>
      </trkpt>
      <trkpt lat="48.86556" lon="2.35659">
        <ele>44.799999237061</ele>
        <time>2016-02-15T19:24:57.000Z</time>
      </trkpt>
      <trkpt lat="48.8655" lon="2.35686">
        <ele>45.599998474121</ele>
        <time>2016-02-15T19:25:01.000Z</time>
      </trkpt>
      <trkpt lat="48.86544" lon="2.35712">
        <ele>45.400001525879</ele>
        <time>2016-02-15T19:25:05.000Z</time>
      </trkpt>
      <trkpt lat="48.86538" lon="2.35743">
        <ele>45</ele>
        <time>2016-02-15T19:25:10.000Z</time>
      </trkpt>
      <trkpt lat="48.86534" lon="2.35771">
        <ele>45</ele>
        <time>2016-02-15T19:25:14.000Z</time>
      </trkpt>
      <trkpt lat="48.86527" lon="2.35799">
        <ele>45.599998474121</ele>
        <time>2016-02-15T19:25:18.000Z</time>
      </trkpt>
      <trkpt lat="48.86525" lon="2.35813">
        <ele>45.799999237061</ele>
        <time>2016-02-15T19:25:20.000Z</time>
      </trkpt>
      <trkpt lat="48.86517" lon="2.35841">
        <ele>45.799999237061</ele>
        <time>2016-02-15T19:25:24.000Z</time>
      </trkpt>
      <trkpt lat="48.86508" lon="2.35873">
        <ele>45</ele>
        <time>2016-02-15T19:25:28.000Z</time>
      </trkpt>
      <trkpt lat="48.86499" lon="2.35904">
        <ele>44.599998474121</ele>
        <time>2016-02-15T19:25:32.000Z</time>
      </trkpt>
      <trkpt lat="48.86491" lon="2.3593">
        <ele>45</ele>
        <time>2016-02-15T19:25:36.000Z</time>
      </trkpt>
      <trkpt lat="48.86483" lon="2.35958">
        <ele>45.400001525879</ele>
        <time>2016-02-15T19:25:41.000Z</time>
      </trkpt>
      <trkpt lat="48.86479" lon="2.35975">
        <ele>45</ele>
        <time>2016-02-15T19:25:44.000Z</time>
      </trkpt>
      <trkpt lat="48.8647" lon="2.35993">
        <ele>44.400001525879</ele>
        <time>2016-02-15T19:25:48.000Z</time>
      </trkpt>
      <trkpt lat="48.86457" lon="2.36013">
        <ele>44</ele>
        <time>2016-02-15T19:25:52.000Z</time>
      </trkpt>
      <trkpt lat="48.86439" lon="2.36031">
        <ele>42.799999237061</ele>
        <time>2016-02-15T19:25:56.000Z</time>
      </trkpt>
      <trkpt lat="48.86432" lon="2.36041">
        <ele>42.599998474121</ele>
        <time>2016-02-15T19:25:58.000Z</time>
      </trkpt>
      <trkpt lat="48.86415" lon="2.36062">
        <ele>42</ele>
        <time>2016-02-15T19:26:02.000Z</time>
      </trkpt>
      <trkpt lat="48.86407" lon="2.36077">
        <ele>42.200000762939</ele>
        <time>2016-02-15T19:26:05.000Z</time>
      </trkpt>
      <trkpt lat="48.86397" lon="2.36102">
        <ele>42.799999237061</ele>
        <time>2016-02-15T19:26:10.000Z</time>
      </trkpt>
      <trkpt lat="48.864" lon="2.36128">
        <ele>43</ele>
        <time>2016-02-15T19:26:18.000Z</time>
      </trkpt>
      <trkpt lat="48.86414" lon="2.36147">
        <ele>42.599998474121</ele>
        <time>2016-02-15T19:26:23.000Z</time>
      </trkpt>
      <trkpt lat="48.86419" lon="2.36152">
        <ele>42.400001525879</ele>
        <time>2016-02-15T19:26:25.000Z</time>
      </trkpt>
      <trkpt lat="48.86432" lon="2.36172">
        <ele>42</ele>
        <time>2016-02-15T19:26:32.000Z</time>
      </trkpt>
      <trkpt lat="48.86447" lon="2.36187">
        <ele>42</ele>
        <time>2016-02-15T19:26:37.000Z</time>
      </trkpt>
      <trkpt lat="48.86463" lon="2.36206">
        <ele>42.200000762939</ele>
        <time>2016-02-15T19:26:42.000Z</time>
      </trkpt>
      <trkpt lat="48.86479" lon="2.36224">
        <ele>42.400001525879</ele>
        <time>2016-02-15T19:26:47.000Z</time>
      </trkpt>
      <trkpt lat="48.86496" lon="2.3624">
        <ele>42.599998474121</ele>
        <time>2016-02-15T19:26:52.000Z</time>
      </trkpt>
      <trkpt lat="48.86509" lon="2.36264">
        <ele>43</ele>
        <time>2016-02-15T19:26:58.000Z</time>
      </trkpt>
      <trkpt lat="48.86519" lon="2.3629">
        <ele>43.400001525879</ele>
        <time>2016-02-15T19:27:03.000Z</time>
      </trkpt>
      <trkpt lat="48.86525" lon="2.36317">
        <ele>44</ele>
        <time>2016-02-15T19:27:07.000Z</time>
      </trkpt>
      <trkpt lat="48.86531" lon="2.36345">
        <ele>44.799999237061</ele>
        <time>2016-02-15T19:27:13.000Z</time>
      </trkpt>
      <trkpt lat="48.86538" lon="2.36371">
        <ele>46</ele>
        <time>2016-02-15T19:27:18.000Z</time>
      </trkpt>
      <trkpt lat="48.86543" lon="2.36399">
        <ele>47.200000762939</ele>
        <time>2016-02-15T19:27:25.000Z</time>
      </trkpt>
      <trkpt lat="48.86543" lon="2.36401">
        <ele>47.200000762939</ele>
        <time>2016-02-15T19:27:26.000Z</time>
      </trkpt>
      <trkpt lat="48.86528" lon="2.36424">
        <ele>47.200000762939</ele>
        <time>2016-02-15T19:27:38.000Z</time>
      </trkpt>
      <trkpt lat="48.86513" lon="2.36445">
        <ele>47.599998474121</ele>
        <time>2016-02-15T19:27:44.000Z</time>
      </trkpt>
      <trkpt lat="48.86506" lon="2.36456">
        <ele>47.799999237061</ele>
        <time>2016-02-15T19:27:48.000Z</time>
      </trkpt>
      <trkpt lat="48.86507" lon="2.36477">
        <ele>48.400001525879</ele>
        <time>2016-02-15T19:27:55.000Z</time>
      </trkpt>
      <trkpt lat="48.86518" lon="2.365">
        <ele>48.799999237061</ele>
        <time>2016-02-15T19:28:02.000Z</time>
      </trkpt>
      <trkpt lat="48.86526" lon="2.36529">
        <ele>48.200000762939</ele>
        <time>2016-02-15T19:28:10.000Z</time>
      </trkpt>
      <trkpt lat="48.86527" lon="2.36541">
        <ele>48</ele>
        <time>2016-02-15T19:28:14.000Z</time>
      </trkpt>
      <trkpt lat="48.86508" lon="2.36553">
        <ele>47.400001525879</ele>
        <time>2016-02-15T19:28:18.000Z</time>
      </trkpt>
      <trkpt lat="48.86492" lon="2.36566">
        <ele>47.200000762939</ele>
        <time>2016-02-15T19:28:22.000Z</time>
      </trkpt>
      <trkpt lat="48.86474" lon="2.36581">
        <ele>47</ele>
        <time>2016-02-15T19:28:26.000Z</time>
      </trkpt>
      <trkpt lat="48.86456" lon="2.36595">
        <ele>46.599998474121</ele>
        <time>2016-02-15T19:28:30.000Z</time>
      </trkpt>
      <trkpt lat="48.86438" lon="2.36609">
        <ele>47</ele>
        <time>2016-02-15T19:28:34.000Z</time>
      </trkpt>
      <trkpt lat="48.86418" lon="2.36623">
        <ele>46</ele>
        <time>2016-02-15T19:28:38.000Z</time>
      </trkpt>
      <trkpt lat="48.86399" lon="2.36636">
        <ele>45.200000762939</ele>
        <time>2016-02-15T19:28:42.000Z</time>
      </trkpt>
      <trkpt lat="48.86379" lon="2.36648">
        <ele>44.599998474121</ele>
        <time>2016-02-15T19:28:46.000Z</time>
      </trkpt>
      <trkpt lat="48.86362" lon="2.3666">
        <ele>44.200000762939</ele>
        <time>2016-02-15T19:28:50.000Z</time>
      </trkpt>
      <trkpt lat="48.86344" lon="2.36672">
        <ele>43.799999237061</ele>
        <time>2016-02-15T19:28:55.000Z</time>
      </trkpt>
      <trkpt lat="48.86326" lon="2.36685">
        <ele>43.400001525879</ele>
        <time>2016-02-15T19:29:00.000Z</time>
      </trkpt>
      <trkpt lat="48.86316" lon="2.3669">
        <ele>43.200000762939</ele>
        <time>2016-02-15T19:29:04.000Z</time>
      </trkpt>
      <trkpt lat="48.86307" lon="2.36693">
        <ele>43</ele>
        <time>2016-02-15T19:29:06.000Z</time>
      </trkpt>
      <trkpt lat="48.86292" lon="2.36699">
        <ele>43.200000762939</ele>
        <time>2016-02-15T19:29:10.000Z</time>
      </trkpt>
      <trkpt lat="48.86284" lon="2.36708">
        <ele>43.400001525879</ele>
        <time>2016-02-15T19:29:14.000Z</time>
      </trkpt>
      <trkpt lat="48.86279" lon="2.36725">
        <ele>43.599998474121</ele>
        <time>2016-02-15T19:29:18.000Z</time>
      </trkpt>
      <trkpt lat="48.86282" lon="2.36754">
        <ele>43.799999237061</ele>
        <time>2016-02-15T19:29:23.000Z</time>
      </trkpt>
      <trkpt lat="48.86293" lon="2.3678">
        <ele>43.400001525879</ele>
        <time>2016-02-15T19:29:27.000Z</time>
      </trkpt>
      <trkpt lat="48.86303" lon="2.36807">
        <ele>42.599998474121</ele>
        <time>2016-02-15T19:29:31.000Z</time>
      </trkpt>
      <trkpt lat="48.86313" lon="2.36833">
        <ele>42</ele>
        <time>2016-02-15T19:29:35.000Z</time>
      </trkpt>
      <trkpt lat="48.86323" lon="2.36859">
        <ele>42.799999237061</ele>
        <time>2016-02-15T19:29:39.000Z</time>
      </trkpt>
      <trkpt lat="48.86332" lon="2.36885">
        <ele>43.799999237061</ele>
        <time>2016-02-15T19:29:43.000Z</time>
      </trkpt>
      <trkpt lat="48.86341" lon="2.36915">
        <ele>44.200000762939</ele>
        <time>2016-02-15T19:29:48.000Z</time>
      </trkpt>
      <trkpt lat="48.8635" lon="2.36943">
        <ele>45</ele>
        <time>2016-02-15T19:29:53.000Z</time>
      </trkpt>
      <trkpt lat="48.86354" lon="2.3696">
        <ele>45.400001525879</ele>
        <time>2016-02-15T19:29:56.000Z</time>
      </trkpt>
      <trkpt lat="48.86365" lon="2.36986">
        <ele>45.599998474121</ele>
        <time>2016-02-15T19:30:02.000Z</time>
      </trkpt>
      <trkpt lat="48.86368" lon="2.36996">
        <ele>45.599998474121</ele>
        <time>2016-02-15T19:30:06.000Z</time>
      </trkpt>
      <trkpt lat="48.86375" lon="2.37002">
        <ele>45.400001525879</ele>
        <time>2016-02-15T19:30:14.000Z</time>
      </trkpt>
      <trkpt lat="48.86375" lon="2.37002">
        <ele>45.400001525879</ele>
        <time>2016-02-15T19:30:15.000Z</time>
      </trkpt>
      <trkpt lat="48.86377" lon="2.37024">
        <ele>44.599998474121</ele>
        <time>2016-02-15T19:30:28.000Z</time>
      </trkpt>
      <trkpt lat="48.86368" lon="2.37051">
        <ele>44.400001525879</ele>
        <time>2016-02-15T19:30:34.000Z</time>
      </trkpt>
      <trkpt lat="48.86357" lon="2.3708">
        <ele>44</ele>
        <time>2016-02-15T19:30:40.000Z</time>
      </trkpt>
      <trkpt lat="48.86344" lon="2.37104">
        <ele>43.799999237061</ele>
        <time>2016-02-15T19:30:45.000Z</time>
      </trkpt>
      <trkpt lat="48.86331" lon="2.37126">
        <ele>43.799999237061</ele>
        <time>2016-02-15T19:30:51.000Z</time>
      </trkpt>
      <trkpt lat="48.86316" lon="2.37148">
        <ele>43.799999237061</ele>
        <time>2016-02-15T19:30:56.000Z</time>
      </trkpt>
      <trkpt lat="48.86297" lon="2.37166">
        <ele>44</ele>
        <time>2016-02-15T19:31:00.000Z</time>
      </trkpt>
      <trkpt lat="48.86283" lon="2.37184">
        <ele>44.400001525879</ele>
        <time>2016-02-15T19:31:03.000Z</time>
      </trkpt>
      <trkpt lat="48.8627" lon="2.37212">
        <ele>44.599998474121</ele>
        <time>2016-02-15T19:31:07.000Z</time>
      </trkpt>
      <trkpt lat="48.86257" lon="2.3724">
        <ele>45</ele>
        <time>2016-02-15T19:31:11.000Z</time>
      </trkpt>
      <trkpt lat="48.86242" lon="2.37256">
        <ele>45</ele>
        <time>2016-02-15T19:31:14.000Z</time>
      </trkpt>
      <trkpt lat="48.86228" lon="2.3728">
        <ele>45.400001525879</ele>
        <time>2016-02-15T19:31:18.000Z</time>
      </trkpt>
      <trkpt lat="48.86214" lon="2.37304">
        <ele>46</ele>
        <time>2016-02-15T19:31:22.000Z</time>
      </trkpt>
      <trkpt lat="48.86199" lon="2.3733">
        <ele>46.799999237061</ele>
        <time>2016-02-15T19:31:26.000Z</time>
      </trkpt>
      <trkpt lat="48.86184" lon="2.37355">
        <ele>46.400001525879</ele>
        <time>2016-02-15T19:31:30.000Z</time>
      </trkpt>
      <trkpt lat="48.8617" lon="2.3738">
        <ele>45.400001525879</ele>
        <time>2016-02-15T19:31:34.000Z</time>
      </trkpt>
      <trkpt lat="48.86157" lon="2.37403">
        <ele>44.799999237061</ele>
        <time>2016-02-15T19:31:38.000Z</time>
      </trkpt>
      <trkpt lat="48.86142" lon="2.37428">
        <ele>44.400001525879</ele>
        <time>2016-02-15T19:31:42.000Z</time>
      </trkpt>
      <trkpt lat="48.86128" lon="2.37454">
        <ele>43.799999237061</ele>
        <time>2016-02-15T19:31:46.000Z</time>
      </trkpt>
      <trkpt lat="48.86113" lon="2.3748">
        <ele>42.599998474121</ele>
        <time>2016-02-15T19:31:50.000Z</time>
      </trkpt>
      <trkpt lat="48.86098" lon="2.37506">
        <ele>42.400001525879</ele>
        <time>2016-02-15T19:31:54.000Z</time>
      </trkpt>
      <trkpt lat="48.86084" lon="2.37526">
        <ele>42.799999237061</ele>
        <time>2016-02-15T19:31:57.000Z</time>
      </trkpt>
      <trkpt lat="48.86069" lon="2.37551">
        <ele>43.599998474121</ele>
        <time>2016-02-15T19:32:01.000Z</time>
      </trkpt>
      <trkpt lat="48.86053" lon="2.37577">
        <ele>45.400001525879</ele>
        <time>2016-02-15T19:32:05.000Z</time>
      </trkpt>
      <trkpt lat="48.86038" lon="2.37604">
        <ele>47</ele>
        <time>2016-02-15T19:32:09.000Z</time>
      </trkpt>
      <trkpt lat="48.86032" lon="2.37617">
        <ele>47.400001525879</ele>
        <time>2016-02-15T19:32:11.000Z</time>
      </trkpt>
      <trkpt lat="48.86017" lon="2.37641">
        <ele>47.400001525879</ele>
        <time>2016-02-15T19:32:15.000Z</time>
      </trkpt>
      <trkpt lat="48.86004" lon="2.37663">
        <ele>47</ele>
        <time>2016-02-15T19:32:19.000Z</time>
      </trkpt>
      <trkpt lat="48.85989" lon="2.37687">
        <ele>47</ele>
        <time>2016-02-15T19:32:24.000Z</time>
      </trkpt>
      <trkpt lat="48.85986" lon="2.37692">
        <ele>47</ele>
        <time>2016-02-15T19:32:25.000Z</time>
      </trkpt>
      <trkpt lat="48.85974" lon="2.37717">
        <ele>47.200000762939</ele>
        <time>2016-02-15T19:32:30.000Z</time>
      </trkpt>
      <trkpt lat="48.85963" lon="2.37734">
        <ele>47.400001525879</ele>
        <time>2016-02-15T19:32:33.000Z</time>
      </trkpt>
      <trkpt lat="48.8595" lon="2.37756">
        <ele>47.400001525879</ele>
        <time>2016-02-15T19:32:37.000Z</time>
      </trkpt>
      <trkpt lat="48.85939" lon="2.37778">
        <ele>47</ele>
        <time>2016-02-15T19:32:41.000Z</time>
      </trkpt>
      <trkpt lat="48.85936" lon="2.37783">
        <ele>47</ele>
        <time>2016-02-15T19:32:42.000Z</time>
      </trkpt>
      <trkpt lat="48.85924" lon="2.37804">
        <ele>46.599998474121</ele>
        <time>2016-02-15T19:32:46.000Z</time>
      </trkpt>
      <trkpt lat="48.85909" lon="2.37828">
        <ele>46.599998474121</ele>
        <time>2016-02-15T19:32:51.000Z</time>
      </trkpt>
      <trkpt lat="48.85895" lon="2.37852">
        <ele>46.799999237061</ele>
        <time>2016-02-15T19:32:56.000Z</time>
      </trkpt>
      <trkpt lat="48.85884" lon="2.37878">
        <ele>46.599998474121</ele>
        <time>2016-02-15T19:33:01.000Z</time>
      </trkpt>
      <trkpt lat="48.85872" lon="2.37905">
        <ele>46.400001525879</ele>
        <time>2016-02-15T19:33:06.000Z</time>
      </trkpt>
      <trkpt lat="48.85863" lon="2.37918">
        <ele>46.200000762939</ele>
        <time>2016-02-15T19:33:08.000Z</time>
      </trkpt>
      <trkpt lat="48.85849" lon="2.37938">
        <ele>45.200000762939</ele>
        <time>2016-02-15T19:33:12.000Z</time>
      </trkpt>
      <trkpt lat="48.85845" lon="2.37943">
        <ele>45</ele>
        <time>2016-02-15T19:33:13.000Z</time>
      </trkpt>
      <trkpt lat="48.8583" lon="2.37956">
        <ele>44</ele>
        <time>2016-02-15T19:33:17.000Z</time>
      </trkpt>
      <trkpt lat="48.85824" lon="2.37965">
        <ele>43.599998474121</ele>
        <time>2016-02-15T19:33:19.000Z</time>
      </trkpt>
      <trkpt lat="48.85816" lon="2.37978">
        <ele>43.799999237061</ele>
        <time>2016-02-15T19:33:23.000Z</time>
      </trkpt>
      <trkpt lat="48.85812" lon="2.37987">
        <ele>43.799999237061</ele>
        <time>2016-02-15T19:33:26.000Z</time>
      </trkpt>
      <trkpt lat="48.85804" lon="2.38001">
        <ele>44.200000762939</ele>
        <time>2016-02-15T19:33:31.000Z</time>
      </trkpt>
      <trkpt lat="48.8579" lon="2.38023">
        <ele>45</ele>
        <time>2016-02-15T19:33:37.000Z</time>
      </trkpt>
      <trkpt lat="48.85785" lon="2.38045">
        <ele>45.799999237061</ele>
        <time>2016-02-15T19:33:44.000Z</time>
      </trkpt>
      <trkpt lat="48.85786" lon="2.38074">
        <ele>46.799999237061</ele>
        <time>2016-02-15T19:33:55.000Z</time>
      </trkpt>
      <trkpt lat="48.85792" lon="2.38104">
        <ele>48</ele>
        <time>2016-02-15T19:34:01.000Z</time>
      </trkpt>
      <trkpt lat="48.85799" lon="2.38133">
        <ele>48.599998474121</ele>
        <time>2016-02-15T19:34:06.000Z</time>
      </trkpt>
      <trkpt lat="48.85805" lon="2.3816">
        <ele>49</ele>
        <time>2016-02-15T19:34:10.000Z</time>
      </trkpt>
      <trkpt lat="48.8581" lon="2.38187">
        <ele>48.799999237061</ele>
        <time>2016-02-15T19:34:14.000Z</time>
      </trkpt>
      <trkpt lat="48.85819" lon="2.38214">
        <ele>48.599998474121</ele>
        <time>2016-02-15T19:34:18.000Z</time>
      </trkpt>
      <trkpt lat="48.85827" lon="2.38234">
        <ele>48.599998474121</ele>
        <time>2016-02-15T19:34:21.000Z</time>
      </trkpt>
      <trkpt lat="48.85831" lon="2.38257">
        <ele>48.799999237061</ele>
        <time>2016-02-15T19:34:24.000Z</time>
      </trkpt>
      <trkpt lat="48.85839" lon="2.3829">
        <ele>49.200000762939</ele>
        <time>2016-02-15T19:34:28.000Z</time>
      </trkpt>
      <trkpt lat="48.85847" lon="2.38321">
        <ele>49.799999237061</ele>
        <time>2016-02-15T19:34:32.000Z</time>
      </trkpt>
      <trkpt lat="48.85855" lon="2.3835">
        <ele>49</ele>
        <time>2016-02-15T19:34:37.000Z</time>
      </trkpt>
      <trkpt lat="48.85859" lon="2.38362">
        <ele>48.599998474121</ele>
        <time>2016-02-15T19:34:42.000Z</time>
      </trkpt>
      <trkpt lat="48.85872" lon="2.38354">
        <ele>49.200000762939</ele>
        <time>2016-02-15T19:34:49.000Z</time>
      </trkpt>
      <trkpt lat="48.85875" lon="2.38352">
        <ele>49.200000762939</ele>
        <time>2016-02-15T19:34:50.000Z</time>
      </trkpt>
      <trkpt lat="48.85894" lon="2.3834">
        <ele>50</ele>
        <time>2016-02-15T19:34:56.000Z</time>
      </trkpt>
      <trkpt lat="48.85911" lon="2.38327">
        <ele>50.599998474121</ele>
        <time>2016-02-15T19:35:01.000Z</time>
      </trkpt>
      <trkpt lat="48.85927" lon="2.38309">
        <ele>51</ele>
        <time>2016-02-15T19:35:06.000Z</time>
      </trkpt>
      <trkpt lat="48.85944" lon="2.3829">
        <ele>52</ele>
        <time>2016-02-15T19:35:13.000Z</time>
      </trkpt>
      <trkpt lat="48.85961" lon="2.38274">
        <ele>52.400001525879</ele>
        <time>2016-02-15T19:35:17.000Z</time>
      </trkpt>
      <trkpt lat="48.85976" lon="2.3826">
        <ele>52.400001525879</ele>
        <time>2016-02-15T19:35:21.000Z</time>
      </trkpt>
      <trkpt lat="48.85993" lon="2.38246">
        <ele>52.400001525879</ele>
        <time>2016-02-15T19:35:25.000Z</time>
      </trkpt>
      <trkpt lat="48.86009" lon="2.3823">
        <ele>52.799999237061</ele>
        <time>2016-02-15T19:35:29.000Z</time>
      </trkpt>
      <trkpt lat="48.86012" lon="2.38226">
        <ele>52.599998474121</ele>
        <time>2016-02-15T19:35:30.000Z</time>
      </trkpt>
      <trkpt lat="48.86026" lon="2.38212">
        <ele>52.599998474121</ele>
        <time>2016-02-15T19:35:34.000Z</time>
      </trkpt>
      <trkpt lat="48.86042" lon="2.38192">
        <ele>53.200000762939</ele>
        <time>2016-02-15T19:35:39.000Z</time>
      </trkpt>
      <trkpt lat="48.86057" lon="2.38174">
        <ele>54</ele>
        <time>2016-02-15T19:35:43.000Z</time>
      </trkpt>
      <trkpt lat="48.86061" lon="2.38171">
        <ele>54.200000762939</ele>
        <time>2016-02-15T19:35:44.000Z</time>
      </trkpt>
      <trkpt lat="48.86076" lon="2.38155">
        <ele>54.799999237061</ele>
        <time>2016-02-15T19:35:48.000Z</time>
      </trkpt>
      <trkpt lat="48.8609" lon="2.38139">
        <ele>55.200000762939</ele>
        <time>2016-02-15T19:35:52.000Z</time>
      </trkpt>
      <trkpt lat="48.86099" lon="2.38127">
        <ele>55.200000762939</ele>
        <time>2016-02-15T19:35:55.000Z</time>
      </trkpt>
      <trkpt lat="48.86117" lon="2.38108">
        <ele>55.200000762939</ele>
        <time>2016-02-15T19:36:00.000Z</time>
      </trkpt>
      <trkpt lat="48.8612" lon="2.38104">
        <ele>55.200000762939</ele>
        <time>2016-02-15T19:36:01.000Z</time>
      </trkpt>
      <trkpt lat="48.86134" lon="2.38086">
        <ele>55</ele>
        <time>2016-02-15T19:36:05.000Z</time>
      </trkpt>
      <trkpt lat="48.86142" lon="2.38073">
        <ele>54.799999237061</ele>
        <time>2016-02-15T19:36:08.000Z</time>
      </trkpt>
      <trkpt lat="48.86159" lon="2.38056">
        <ele>54.400001525879</ele>
        <time>2016-02-15T19:36:13.000Z</time>
      </trkpt>
      <trkpt lat="48.86179" lon="2.38042">
        <ele>55.200000762939</ele>
        <time>2016-02-15T19:36:18.000Z</time>
      </trkpt>
      <trkpt lat="48.86182" lon="2.38037">
        <ele>55.200000762939</ele>
        <time>2016-02-15T19:36:19.000Z</time>
      </trkpt>
      <trkpt lat="48.86193" lon="2.38029">
        <ele>55.599998474121</ele>
        <time>2016-02-15T19:36:22.000Z</time>
      </trkpt>
      <trkpt lat="48.86207" lon="2.38013">
        <ele>56</ele>
        <time>2016-02-15T19:36:26.000Z</time>
      </trkpt>
      <trkpt lat="48.8621" lon="2.3801">
        <ele>56</ele>
        <time>2016-02-15T19:36:27.000Z</time>
      </trkpt>
      <trkpt lat="48.86226" lon="2.37988">
        <ele>55.400001525879</ele>
        <time>2016-02-15T19:36:32.000Z</time>
      </trkpt>
      <trkpt lat="48.86233" lon="2.37972">
        <ele>54.400001525879</ele>
        <time>2016-02-15T19:36:35.000Z</time>
      </trkpt>
      <trkpt lat="48.86244" lon="2.37965">
        <ele>54.200000762939</ele>
        <time>2016-02-15T19:36:38.000Z</time>
      </trkpt>
      <trkpt lat="48.86259" lon="2.37948">
        <ele>54.799999237061</ele>
        <time>2016-02-15T19:36:42.000Z</time>
      </trkpt>
      <trkpt lat="48.86269" lon="2.37943">
        <ele>55.200000762939</ele>
        <time>2016-02-15T19:36:46.000Z</time>
      </trkpt>
      <trkpt lat="48.86289" lon="2.37935">
        <ele>55.799999237061</ele>
        <time>2016-02-15T19:36:52.000Z</time>
      </trkpt>
      <trkpt lat="48.86295" lon="2.3793">
        <ele>55.799999237061</ele>
        <time>2016-02-15T19:36:54.000Z</time>
      </trkpt>
      <trkpt lat="48.86312" lon="2.37917">
        <ele>55.599998474121</ele>
        <time>2016-02-15T19:36:59.000Z</time>
      </trkpt>
      <trkpt lat="48.8633" lon="2.37901">
        <ele>55.599998474121</ele>
        <time>2016-02-15T19:37:04.000Z</time>
      </trkpt>
      <trkpt lat="48.86346" lon="2.37888">
        <ele>55.400001525879</ele>
        <time>2016-02-15T19:37:08.000Z</time>
      </trkpt>
      <trkpt lat="48.86363" lon="2.37875">
        <ele>55.200000762939</ele>
        <time>2016-02-15T19:37:12.000Z</time>
      </trkpt>
      <trkpt lat="48.86379" lon="2.37853">
        <ele>54.799999237061</ele>
        <time>2016-02-15T19:37:17.000Z</time>
      </trkpt>
      <trkpt lat="48.86391" lon="2.37844">
        <ele>55</ele>
        <time>2016-02-15T19:37:21.000Z</time>
      </trkpt>
      <trkpt lat="48.86403" lon="2.37841">
        <ele>55.200000762939</ele>
        <time>2016-02-15T19:37:24.000Z</time>
      </trkpt>
      <trkpt lat="48.86417" lon="2.37819">
        <ele>55.200000762939</ele>
        <time>2016-02-15T19:37:26.000Z</time>
      </trkpt>
      <trkpt lat="48.86434" lon="2.37797">
        <ele>55.799999237061</ele>
        <time>2016-02-15T19:37:30.000Z</time>
      </trkpt>
      <trkpt lat="48.86453" lon="2.37788">
        <ele>55.599998474121</ele>
        <time>2016-02-15T19:37:34.000Z</time>
      </trkpt>
      <trkpt lat="48.86466" lon="2.37781">
        <ele>55.400001525879</ele>
        <time>2016-02-15T19:37:37.000Z</time>
      </trkpt>
      <trkpt lat="48.86486" lon="2.37771">
        <ele>54.799999237061</ele>
        <time>2016-02-15T19:37:41.000Z</time>
      </trkpt>
      <trkpt lat="48.86507" lon="2.37755">
        <ele>54.400001525879</ele>
        <time>2016-02-15T19:37:45.000Z</time>
      </trkpt>
      <trkpt lat="48.86523" lon="2.37737">
        <ele>54.200000762939</ele>
        <time>2016-02-15T19:37:49.000Z</time>
      </trkpt>
      <trkpt lat="48.86537" lon="2.37731">
        <ele>53.799999237061</ele>
        <time>2016-02-15T19:37:52.000Z</time>
      </trkpt>
      <trkpt lat="48.86557" lon="2.37717">
        <ele>53.599998474121</ele>
        <time>2016-02-15T19:37:57.000Z</time>
      </trkpt>
      <trkpt lat="48.86578" lon="2.37703">
        <ele>53.599998474121</ele>
        <time>2016-02-15T19:38:02.000Z</time>
      </trkpt>
      <trkpt lat="48.86593" lon="2.37691">
        <ele>54</ele>
        <time>2016-02-15T19:38:06.000Z</time>
      </trkpt>
      <trkpt lat="48.86606" lon="2.37684">
        <ele>54.200000762939</ele>
        <time>2016-02-15T19:38:10.000Z</time>
      </trkpt>
      <trkpt lat="48.86623" lon="2.37676">
        <ele>54.200000762939</ele>
        <time>2016-02-15T19:38:14.000Z</time>
      </trkpt>
      <trkpt lat="48.86628" lon="2.37672">
        <ele>54.200000762939</ele>
        <time>2016-02-15T19:38:15.000Z</time>
      </trkpt>
      <trkpt lat="48.86648" lon="2.37654">
        <ele>53.200000762939</ele>
        <time>2016-02-15T19:38:19.000Z</time>
      </trkpt>
      <trkpt lat="48.86653" lon="2.37652">
        <ele>52.799999237061</ele>
        <time>2016-02-15T19:38:20.000Z</time>
      </trkpt>
      <trkpt lat="48.86671" lon="2.37639">
        <ele>51.799999237061</ele>
        <time>2016-02-15T19:38:24.000Z</time>
      </trkpt>
      <trkpt lat="48.86675" lon="2.37635">
        <ele>51.400001525879</ele>
        <time>2016-02-15T19:38:25.000Z</time>
      </trkpt>
      <trkpt lat="48.86691" lon="2.37616">
        <ele>50.200000762939</ele>
        <time>2016-02-15T19:38:29.000Z</time>
      </trkpt>
      <trkpt lat="48.867" lon="2.37609">
        <ele>50.200000762939</ele>
        <time>2016-02-15T19:38:31.000Z</time>
      </trkpt>
      <trkpt lat="48.86714" lon="2.376">
        <ele>50</ele>
        <time>2016-02-15T19:38:34.000Z</time>
      </trkpt>
      <trkpt lat="48.86725" lon="2.37587">
        <ele>49.599998474121</ele>
        <time>2016-02-15T19:38:37.000Z</time>
      </trkpt>
      <trkpt lat="48.86742" lon="2.37568">
        <ele>49.599998474121</ele>
        <time>2016-02-15T19:38:42.000Z</time>
      </trkpt>
      <trkpt lat="48.86762" lon="2.37553">
        <ele>49.599998474121</ele>
        <time>2016-02-15T19:38:47.000Z</time>
      </trkpt>
      <trkpt lat="48.86775" lon="2.37537">
        <ele>49.400001525879</ele>
        <time>2016-02-15T19:38:51.000Z</time>
      </trkpt>
      <trkpt lat="48.86789" lon="2.37519">
        <ele>49.400001525879</ele>
        <time>2016-02-15T19:38:56.000Z</time>
      </trkpt>
      <trkpt lat="48.86794" lon="2.37513">
        <ele>49.599998474121</ele>
        <time>2016-02-15T19:38:58.000Z</time>
      </trkpt>
      <trkpt lat="48.86794" lon="2.37502">
        <ele>50</ele>
        <time>2016-02-15T19:39:02.000Z</time>
      </trkpt>
      <trkpt lat="48.86794" lon="2.375">
        <ele>50</ele>
        <time>2016-02-15T19:39:03.000Z</time>
      </trkpt>
      <trkpt lat="48.86817" lon="2.37492">
        <ele>51.200000762939</ele>
        <time>2016-02-15T19:39:07.000Z</time>
      </trkpt>
      <trkpt lat="48.86822" lon="2.37489">
        <ele>51.400001525879</ele>
        <time>2016-02-15T19:39:08.000Z</time>
      </trkpt>
      <trkpt lat="48.8684" lon="2.37476">
        <ele>52.400001525879</ele>
        <time>2016-02-15T19:39:13.000Z</time>
      </trkpt>
      <trkpt lat="48.86852" lon="2.37465">
        <ele>52.799999237061</ele>
        <time>2016-02-15T19:39:16.000Z</time>
      </trkpt>
      <trkpt lat="48.86871" lon="2.37445">
        <ele>53.400001525879</ele>
        <time>2016-02-15T19:39:20.000Z</time>
      </trkpt>
      <trkpt lat="48.86887" lon="2.37432">
        <ele>53.599998474121</ele>
        <time>2016-02-15T19:39:23.000Z</time>
      </trkpt>
      <trkpt lat="48.86906" lon="2.37419">
        <ele>53.599998474121</ele>
        <time>2016-02-15T19:39:27.000Z</time>
      </trkpt>
      <trkpt lat="48.86918" lon="2.37404">
        <ele>53.799999237061</ele>
        <time>2016-02-15T19:39:31.000Z</time>
      </trkpt>
      <trkpt lat="48.86928" lon="2.37398">
        <ele>54.200000762939</ele>
        <time>2016-02-15T19:39:36.000Z</time>
      </trkpt>
      <trkpt lat="48.86932" lon="2.37396">
        <ele>54.200000762939</ele>
        <time>2016-02-15T19:39:39.000Z</time>
      </trkpt>
      <trkpt lat="48.8695" lon="2.37388">
        <ele>54.799999237061</ele>
        <time>2016-02-15T19:39:48.000Z</time>
      </trkpt>
      <trkpt lat="48.86952" lon="2.37385">
        <ele>55</ele>
        <time>2016-02-15T19:39:49.000Z</time>
      </trkpt>
      <trkpt lat="48.86966" lon="2.37368">
        <ele>55.799999237061</ele>
        <time>2016-02-15T19:39:54.000Z</time>
      </trkpt>
      <trkpt lat="48.86981" lon="2.37353">
        <ele>56.200000762939</ele>
        <time>2016-02-15T19:39:59.000Z</time>
      </trkpt>
      <trkpt lat="48.86999" lon="2.37335">
        <ele>56.599998474121</ele>
        <time>2016-02-15T19:40:04.000Z</time>
      </trkpt>
      <trkpt lat="48.87015" lon="2.37315">
        <ele>57.200000762939</ele>
        <time>2016-02-15T19:40:09.000Z</time>
      </trkpt>
      <trkpt lat="48.87023" lon="2.37307">
        <ele>57</ele>
        <time>2016-02-15T19:40:12.000Z</time>
      </trkpt>
      <trkpt lat="48.87034" lon="2.37297">
        <ele>56.799999237061</ele>
        <time>2016-02-15T19:40:16.000Z</time>
      </trkpt>
      <trkpt lat="48.87053" lon="2.37302">
        <ele>56.200000762939</ele>
        <time>2016-02-15T19:40:52.000Z</time>
      </trkpt>
      <trkpt lat="48.87068" lon="2.37284">
        <ele>56</ele>
        <time>2016-02-15T19:40:59.000Z</time>
      </trkpt>
      <trkpt lat="48.87084" lon="2.37269">
        <ele>55.599998474121</ele>
        <time>2016-02-15T19:41:06.000Z</time>
      </trkpt>
      <trkpt lat="48.871" lon="2.37254">
        <ele>55.200000762939</ele>
        <time>2016-02-15T19:41:12.000Z</time>
      </trkpt>
      <trkpt lat="48.87116" lon="2.37237">
        <ele>55.200000762939</ele>
        <time>2016-02-15T19:41:18.000Z</time>
      </trkpt>
      <trkpt lat="48.87135" lon="2.37223">
        <ele>55.599998474121</ele>
        <time>2016-02-15T19:41:24.000Z</time>
      </trkpt>
      <trkpt lat="48.87152" lon="2.37208">
        <ele>55.799999237061</ele>
        <time>2016-02-15T19:41:30.000Z</time>
      </trkpt>
      <trkpt lat="48.87169" lon="2.3719">
        <ele>55.400001525879</ele>
        <time>2016-02-15T19:41:40.000Z</time>
      </trkpt>
      <trkpt lat="48.87187" lon="2.37179">
        <ele>55</ele>
        <time>2016-02-15T19:41:50.000Z</time>
      </trkpt>
      <trkpt lat="48.87205" lon="2.37165">
        <ele>54.400001525879</ele>
        <time>2016-02-15T19:41:57.000Z</time>
      </trkpt>
      <trkpt lat="48.87224" lon="2.37153">
        <ele>53.599998474121</ele>
        <time>2016-02-15T19:42:03.000Z</time>
      </trkpt>
      <trkpt lat="48.87239" lon="2.37138">
        <ele>52.799999237061</ele>
        <time>2016-02-15T19:42:09.000Z</time>
      </trkpt>
      <trkpt lat="48.87258" lon="2.37125">
        <ele>52.400001525879</ele>
        <time>2016-02-15T19:42:13.000Z</time>
      </trkpt>
      <trkpt lat="48.87278" lon="2.37109">
        <ele>52</ele>
        <time>2016-02-15T19:42:17.000Z</time>
      </trkpt>
      <trkpt lat="48.87295" lon="2.37095">
        <ele>52.200000762939</ele>
        <time>2016-02-15T19:42:21.000Z</time>
      </trkpt>
      <trkpt lat="48.87314" lon="2.37083">
        <ele>52.400001525879</ele>
        <time>2016-02-15T19:42:26.000Z</time>
      </trkpt>
      <trkpt lat="48.8733" lon="2.37066">
        <ele>51.400001525879</ele>
        <time>2016-02-15T19:42:29.000Z</time>
      </trkpt>
      <trkpt lat="48.8734" lon="2.37052">
        <ele>50.400001525879</ele>
        <time>2016-02-15T19:42:31.000Z</time>
      </trkpt>
      <trkpt lat="48.87344" lon="2.37048">
        <ele>50.200000762939</ele>
        <time>2016-02-15T19:42:35.000Z</time>
      </trkpt>
      <trkpt lat="48.87347" lon="2.37076">
        <ele>52.400001525879</ele>
        <time>2016-02-15T19:42:44.000Z</time>
      </trkpt>
      <trkpt lat="48.87358" lon="2.371">
        <ele>53</ele>
        <time>2016-02-15T19:42:49.000Z</time>
      </trkpt>
      <trkpt lat="48.87372" lon="2.37125">
        <ele>54.200000762939</ele>
        <time>2016-02-15T19:42:54.000Z</time>
      </trkpt>
      <trkpt lat="48.87374" lon="2.37131">
        <ele>54.200000762939</ele>
        <time>2016-02-15T19:42:55.000Z</time>
      </trkpt>
      <trkpt lat="48.87381" lon="2.37158">
        <ele>54.799999237061</ele>
        <time>2016-02-15T19:42:59.000Z</time>
      </trkpt>
      <trkpt lat="48.87388" lon="2.37176">
        <ele>55.200000762939</ele>
        <time>2016-02-15T19:43:02.000Z</time>
      </trkpt>
      <trkpt lat="48.87396" lon="2.37201">
        <ele>55.799999237061</ele>
        <time>2016-02-15T19:43:07.000Z</time>
      </trkpt>
      <trkpt lat="48.87406" lon="2.37227">
        <ele>56.599998474121</ele>
        <time>2016-02-15T19:43:12.000Z</time>
      </trkpt>
      <trkpt lat="48.87416" lon="2.37253">
        <ele>57.400001525879</ele>
        <time>2016-02-15T19:43:18.000Z</time>
      </trkpt>
      <trkpt lat="48.87432" lon="2.37273">
        <ele>58.799999237061</ele>
        <time>2016-02-15T19:43:26.000Z</time>
      </trkpt>
      <trkpt lat="48.87439" lon="2.37299">
        <ele>59.599998474121</ele>
        <time>2016-02-15T19:43:33.000Z</time>
      </trkpt>
      <trkpt lat="48.87442" lon="2.37304">
        <ele>59.799999237061</ele>
        <time>2016-02-15T19:43:37.000Z</time>
      </trkpt>
      <trkpt lat="48.87443" lon="2.37309">
        <ele>60</ele>
        <time>2016-02-15T19:43:40.000Z</time>
      </trkpt>
      <trkpt lat="48.87448" lon="2.37314">
        <ele>60.400001525879</ele>
        <time>2016-02-15T19:43:46.000Z</time>
      </trkpt>
      <trkpt lat="48.87455" lon="2.37315">
        <ele>61</ele>
        <time>2016-02-15T19:43:52.000Z</time>
      </trkpt>
      <trkpt lat="48.87454" lon="2.3734">
        <ele>61.200000762939</ele>
        <time>2016-02-15T19:44:19.000Z</time>
      </trkpt>
      <trkpt lat="48.87445" lon="2.37368">
        <ele>62</ele>
        <time>2016-02-15T19:44:25.000Z</time>
      </trkpt>
      <trkpt lat="48.87439" lon="2.37394">
        <ele>63</ele>
        <time>2016-02-15T19:44:29.000Z</time>
      </trkpt>
      <trkpt lat="48.87438" lon="2.37405">
        <ele>63.400001525879</ele>
        <time>2016-02-15T19:44:31.000Z</time>
      </trkpt>
      <trkpt lat="48.87438" lon="2.37423">
        <ele>64.199996948242</ele>
        <time>2016-02-15T19:44:38.000Z</time>
      </trkpt>
      <trkpt lat="48.87447" lon="2.37447">
        <ele>65.400001525879</ele>
        <time>2016-02-15T19:44:57.000Z</time>
      </trkpt>
      <trkpt lat="48.87459" lon="2.37468">
        <ele>66.599998474121</ele>
        <time>2016-02-15T19:45:09.000Z</time>
      </trkpt>
      <trkpt lat="48.87461" lon="2.37472">
        <ele>66.800003051758</ele>
        <time>2016-02-15T19:45:12.000Z</time>
      </trkpt>
      <trkpt lat="48.87463" lon="2.37474">
        <ele>67</ele>
        <time>2016-02-15T19:45:16.000Z</time>
      </trkpt>
      <trkpt lat="48.87476" lon="2.37468">
        <ele>67.199996948242</ele>
        <time>2016-02-15T19:45:21.000Z</time>
      </trkpt>
      <trkpt lat="48.87487" lon="2.37463">
        <ele>67.400001525879</ele>
        <time>2016-02-15T19:45:26.000Z</time>
      </trkpt>
      <trkpt lat="48.87498" lon="2.37474">
        <ele>68.199996948242</ele>
        <time>2016-02-15T19:45:34.000Z</time>
      </trkpt>
      <trkpt lat="48.87514" lon="2.3749">
        <ele>69.400001525879</ele>
        <time>2016-02-15T19:45:41.000Z</time>
      </trkpt>
      <trkpt lat="48.87532" lon="2.37497">
        <ele>70.400001525879</ele>
        <time>2016-02-15T19:45:47.000Z</time>
      </trkpt>
      <trkpt lat="48.87544" lon="2.37501">
        <ele>71</ele>
        <time>2016-02-15T19:45:53.000Z</time>
      </trkpt>
      <trkpt lat="48.87526" lon="2.3749">
        <ele>69.800003051758</ele>
        <time>2016-02-15T19:45:59.000Z</time>
      </trkpt>
      <trkpt lat="48.87517" lon="2.37484">
        <ele>69.199996948242</ele>
        <time>2016-02-15T19:46:01.000Z</time>
      </trkpt>
      <trkpt lat="48.87497" lon="2.37473">
        <ele>68.199996948242</ele>
        <time>2016-02-15T19:46:05.000Z</time>
      </trkpt>
      <trkpt lat="48.87478" lon="2.37475">
        <ele>67.599998474121</ele>
        <time>2016-02-15T19:46:10.000Z</time>
      </trkpt>
      <trkpt lat="48.87472" lon="2.37487">
        <ele>67.800003051758</ele>
        <time>2016-02-15T19:46:13.000Z</time>
      </trkpt>
      <trkpt lat="48.87472" lon="2.37504">
        <ele>68.199996948242</ele>
        <time>2016-02-15T19:46:19.000Z</time>
      </trkpt>
      <trkpt lat="48.8748" lon="2.37512">
        <ele>68.599998474121</ele>
        <time>2016-02-15T19:46:25.000Z</time>
      </trkpt>
      <trkpt lat="48.87488" lon="2.37519">
        <ele>69</ele>
        <time>2016-02-15T19:46:29.000Z</time>
      </trkpt>
      <trkpt lat="48.87503" lon="2.37532">
        <ele>69.599998474121</ele>
        <time>2016-02-15T19:46:36.000Z</time>
      </trkpt>
      <trkpt lat="48.87515" lon="2.37537">
        <ele>70.199996948242</ele>
        <time>2016-02-15T19:46:41.000Z</time>
      </trkpt>
      <trkpt lat="48.87532" lon="2.37549">
        <ele>71</ele>
        <time>2016-02-15T19:46:47.000Z</time>
      </trkpt>
      <trkpt lat="48.87539" lon="2.37561">
        <ele>71.599998474121</ele>
        <time>2016-02-15T19:46:51.000Z</time>
      </trkpt>
      <trkpt lat="48.87543" lon="2.37568">
        <ele>71.800003051758</ele>
        <time>2016-02-15T19:46:55.000Z</time>
      </trkpt>
      <trkpt lat="48.8756" lon="2.37575">
        <ele>72.800003051758</ele>
        <time>2016-02-15T19:47:31.000Z</time>
      </trkpt>
      <trkpt lat="48.87578" lon="2.3758">
        <ele>73.599998474121</ele>
        <time>2016-02-15T19:47:45.000Z</time>
      </trkpt>
      <trkpt lat="48.87595" lon="2.37593">
        <ele>74.400001525879</ele>
        <time>2016-02-15T19:47:53.000Z</time>
      </trkpt>
      <trkpt lat="48.87614" lon="2.37596">
        <ele>76</ele>
        <time>2016-02-15T19:48:01.000Z</time>
      </trkpt>
      <trkpt lat="48.87621" lon="2.376">
        <ele>76.800003051758</ele>
        <time>2016-02-15T19:48:07.000Z</time>
      </trkpt>
      <trkpt lat="48.87623" lon="2.37597">
        <ele>77.199996948242</ele>
        <time>2016-02-15T19:48:09.000Z</time>
      </trkpt>
      <trkpt lat="48.87627" lon="2.37595">
        <ele>77.599998474121</ele>
        <time>2016-02-15T19:48:15.000Z</time>
      </trkpt>
      <trkpt lat="48.87645" lon="2.37612">
        <ele>80</ele>
        <time>2016-02-15T19:48:39.000Z</time>
      </trkpt>
      <trkpt lat="48.87649" lon="2.37645">
        <ele>80.599998474121</ele>
        <time>2016-02-15T19:48:45.000Z</time>
      </trkpt>
      <trkpt lat="48.8765" lon="2.37651">
        <ele>80.800003051758</ele>
        <time>2016-02-15T19:48:46.000Z</time>
      </trkpt>
      <trkpt lat="48.87652" lon="2.37681">
        <ele>81.400001525879</ele>
        <time>2016-02-15T19:48:50.000Z</time>
      </trkpt>
      <trkpt lat="48.87654" lon="2.37711">
        <ele>82.400001525879</ele>
        <time>2016-02-15T19:48:54.000Z</time>
      </trkpt>
      <trkpt lat="48.87654" lon="2.37719">
        <ele>82.800003051758</ele>
        <time>2016-02-15T19:48:55.000Z</time>
      </trkpt>
      <trkpt lat="48.87656" lon="2.37747">
        <ele>84.599998474121</ele>
        <time>2016-02-15T19:48:59.000Z</time>
      </trkpt>
      <trkpt lat="48.87657" lon="2.37759">
        <ele>85</ele>
        <time>2016-02-15T19:49:01.000Z</time>
      </trkpt>
      <trkpt lat="48.8766" lon="2.37793">
        <ele>86.199996948242</ele>
        <time>2016-02-15T19:49:06.000Z</time>
      </trkpt>
      <trkpt lat="48.87661" lon="2.37814">
        <ele>86.800003051758</ele>
        <time>2016-02-15T19:49:09.000Z</time>
      </trkpt>
      <trkpt lat="48.87661" lon="2.37848">
        <ele>86.800003051758</ele>
        <time>2016-02-15T19:49:14.000Z</time>
      </trkpt>
      <trkpt lat="48.87659" lon="2.37879">
        <ele>86</ele>
        <time>2016-02-15T19:49:18.000Z</time>
      </trkpt>
      <trkpt lat="48.87656" lon="2.37908">
        <ele>85.599998474121</ele>
        <time>2016-02-15T19:49:22.000Z</time>
      </trkpt>
      <trkpt lat="48.87653" lon="2.37935">
        <ele>86.199996948242</ele>
        <time>2016-02-15T19:49:26.000Z</time>
      </trkpt>
      <trkpt lat="48.87649" lon="2.37967">
        <ele>86.599998474121</ele>
        <time>2016-02-15T19:49:31.000Z</time>
      </trkpt>
      <trkpt lat="48.87646" lon="2.3798">
        <ele>86</ele>
        <time>2016-02-15T19:49:33.000Z</time>
      </trkpt>
      <trkpt lat="48.87643" lon="2.38005">
        <ele>85.599998474121</ele>
        <time>2016-02-15T19:49:37.000Z</time>
      </trkpt>
      <trkpt lat="48.87644" lon="2.38022">
        <ele>86.400001525879</ele>
        <time>2016-02-15T19:49:40.000Z</time>
      </trkpt>
      <trkpt lat="48.87643" lon="2.38038">
        <ele>86.800003051758</ele>
        <time>2016-02-15T19:49:43.000Z</time>
      </trkpt>
      <trkpt lat="48.8764" lon="2.38052">
        <ele>87.599998474121</ele>
        <time>2016-02-15T19:49:46.000Z</time>
      </trkpt>
      <trkpt lat="48.87632" lon="2.38078">
        <ele>88.199996948242</ele>
        <time>2016-02-15T19:49:51.000Z</time>
      </trkpt>
      <trkpt lat="48.87629" lon="2.3809">
        <ele>88.199996948242</ele>
        <time>2016-02-15T19:49:53.000Z</time>
      </trkpt>
      <trkpt lat="48.87621" lon="2.38118">
        <ele>88.599998474121</ele>
        <time>2016-02-15T19:49:58.000Z</time>
      </trkpt>
      <trkpt lat="48.87618" lon="2.38122">
        <ele>88.599998474121</ele>
        <time>2016-02-15T19:49:59.000Z</time>
      </trkpt>
      <trkpt lat="48.87611" lon="2.3814">
        <ele>89</ele>
        <time>2016-02-15T19:50:04.000Z</time>
      </trkpt>
      <trkpt lat="48.8761" lon="2.38143">
        <ele>89.199996948242</ele>
        <time>2016-02-15T19:50:06.000Z</time>
      </trkpt>
      <trkpt lat="48.87607" lon="2.38143">
        <ele>89</ele>
        <time>2016-02-15T19:50:09.000Z</time>
      </trkpt>
      <trkpt lat="48.87602" lon="2.38139">
        <ele>88.599998474121</ele>
        <time>2016-02-15T19:50:15.000Z</time>
      </trkpt>
      <trkpt lat="48.87599" lon="2.38138">
        <ele>88.400001525879</ele>
        <time>2016-02-15T19:50:18.000Z</time>
      </trkpt>
      <trkpt lat="48.87586" lon="2.38153">
        <ele>88.800003051758</ele>
        <time>2016-02-15T19:50:24.000Z</time>
      </trkpt>
      <trkpt lat="48.87572" lon="2.38173">
        <ele>89.199996948242</ele>
        <time>2016-02-15T19:50:30.000Z</time>
      </trkpt>
      <trkpt lat="48.87562" lon="2.38189">
        <ele>89.599998474121</ele>
        <time>2016-02-15T19:50:35.000Z</time>
      </trkpt>
      <trkpt lat="48.87546" lon="2.38209">
        <ele>90.400001525879</ele>
        <time>2016-02-15T19:50:41.000Z</time>
      </trkpt>
      <trkpt lat="48.87536" lon="2.38223">
        <ele>91.400001525879</ele>
        <time>2016-02-15T19:50:45.000Z</time>
      </trkpt>
      <trkpt lat="48.87535" lon="2.38251">
        <ele>93.400001525879</ele>
        <time>2016-02-15T19:50:53.000Z</time>
      </trkpt>
      <trkpt lat="48.87539" lon="2.38258">
        <ele>93.800003051758</ele>
        <time>2016-02-15T19:50:55.000Z</time>
      </trkpt>
      <trkpt lat="48.87554" lon="2.38276">
        <ele>95</ele>
        <time>2016-02-15T19:50:59.000Z</time>
      </trkpt>
      <trkpt lat="48.87564" lon="2.38294">
        <ele>96.199996948242</ele>
        <time>2016-02-15T19:51:03.000Z</time>
      </trkpt>
      <trkpt lat="48.87567" lon="2.38312">
        <ele>97.400001525879</ele>
        <time>2016-02-15T19:51:11.000Z</time>
      </trkpt>
      <trkpt lat="48.87575" lon="2.3834">
        <ele>99</ele>
        <time>2016-02-15T19:51:18.000Z</time>
      </trkpt>
      <trkpt lat="48.87581" lon="2.38347">
        <ele>99.400001525879</ele>
        <time>2016-02-15T19:51:22.000Z</time>
      </trkpt>
      <trkpt lat="48.87583" lon="2.3835">
        <ele>99.599998474121</ele>
        <time>2016-02-15T19:52:25.000Z</time>
      </trkpt>
      <trkpt lat="48.8759" lon="2.38356">
        <ele>100</ele>
        <time>2016-02-15T19:53:25.000Z</time>
      </trkpt>
      <trkpt lat="48.87609" lon="2.38357">
        <ele>100.19999694824</ele>
        <time>2016-02-15T19:53:31.000Z</time>
      </trkpt>
      <trkpt lat="48.87629" lon="2.3836">
        <ele>99.800003051758</ele>
        <time>2016-02-15T19:53:37.000Z</time>
      </trkpt>
      <trkpt lat="48.87648" lon="2.3837">
        <ele>100</ele>
        <time>2016-02-15T19:53:43.000Z</time>
      </trkpt>
      <trkpt lat="48.87667" lon="2.38377">
        <ele>100.19999694824</ele>
        <time>2016-02-15T19:53:49.000Z</time>
      </trkpt>
      <trkpt lat="48.87686" lon="2.38376">
        <ele>100</ele>
        <time>2016-02-15T19:54:00.000Z</time>
      </trkpt>
      <trkpt lat="48.87691" lon="2.38348">
        <ele>99.400001525879</ele>
        <time>2016-02-15T19:54:09.000Z</time>
      </trkpt>
      <trkpt lat="48.87696" lon="2.38319">
        <ele>98.800003051758</ele>
        <time>2016-02-15T19:54:17.000Z</time>
      </trkpt>
      <trkpt lat="48.87703" lon="2.3829">
        <ele>98.199996948242</ele>
        <time>2016-02-15T19:54:24.000Z</time>
      </trkpt>
      <trkpt lat="48.87715" lon="2.38268">
        <ele>97.800003051758</ele>
        <time>2016-02-15T19:54:30.000Z</time>
      </trkpt>
      <trkpt lat="48.87727" lon="2.38245">
        <ele>96.400001525879</ele>
        <time>2016-02-15T19:54:38.000Z</time>
      </trkpt>
      <trkpt lat="48.87736" lon="2.38219">
        <ele>96.199996948242</ele>
        <time>2016-02-15T19:54:47.000Z</time>
      </trkpt>
      <trkpt lat="48.87745" lon="2.38194">
        <ele>95.400001525879</ele>
        <time>2016-02-15T19:54:53.000Z</time>
      </trkpt>
      <trkpt lat="48.87757" lon="2.3817">
        <ele>94.400001525879</ele>
        <time>2016-02-15T19:54:59.000Z</time>
      </trkpt>
      <trkpt lat="48.87769" lon="2.38145">
        <ele>94.599998474121</ele>
        <time>2016-02-15T19:55:06.000Z</time>
      </trkpt>
      <trkpt lat="48.87778" lon="2.38128">
        <ele>95.400001525879</ele>
        <time>2016-02-15T19:55:15.000Z</time>
      </trkpt>
      <trkpt lat="48.87797" lon="2.38136">
        <ele>95.400001525879</ele>
        <time>2016-02-15T19:55:25.000Z</time>
      </trkpt>
      <trkpt lat="48.87815" lon="2.38149">
        <ele>95</ele>
        <time>2016-02-15T19:55:30.000Z</time>
      </trkpt>
      <trkpt lat="48.87831" lon="2.38168">
        <ele>95</ele>
        <time>2016-02-15T19:55:35.000Z</time>
      </trkpt>
      <trkpt lat="48.87848" lon="2.38187">
        <ele>96.599998474121</ele>
        <time>2016-02-15T19:55:41.000Z</time>
      </trkpt>
      <trkpt lat="48.87861" lon="2.38206">
        <ele>97.800003051758</ele>
        <time>2016-02-15T19:55:46.000Z</time>
      </trkpt>
      <trkpt lat="48.87876" lon="2.38228">
        <ele>98.400001525879</ele>
        <time>2016-02-15T19:55:53.000Z</time>
      </trkpt>
      <trkpt lat="48.87891" lon="2.38248">
        <ele>99</ele>
        <time>2016-02-15T19:56:00.000Z</time>
      </trkpt>
      <trkpt lat="48.87901" lon="2.38272">
        <ele>99.599998474121</ele>
        <time>2016-02-15T19:56:06.000Z</time>
      </trkpt>
      <trkpt lat="48.87908" lon="2.38304">
        <ele>100.59999847412</ele>
        <time>2016-02-15T19:56:10.000Z</time>
      </trkpt>
      <trkpt lat="48.87914" lon="2.38333">
        <ele>102</ele>
        <time>2016-02-15T19:56:14.000Z</time>
      </trkpt>
      <trkpt lat="48.8792" lon="2.38359">
        <ele>102.40000152588</ele>
        <time>2016-02-15T19:56:18.000Z</time>
      </trkpt>
      <trkpt lat="48.87927" lon="2.38391">
        <ele>103</ele>
        <time>2016-02-15T19:56:23.000Z</time>
      </trkpt>
      <trkpt lat="48.87929" lon="2.3841">
        <ele>103.40000152588</ele>
        <time>2016-02-15T19:56:26.000Z</time>
      </trkpt>
      <trkpt lat="48.87931" lon="2.38422">
        <ele>103.40000152588</ele>
        <time>2016-02-15T19:56:28.000Z</time>
      </trkpt>
      <trkpt lat="48.87936" lon="2.38449">
        <ele>104</ele>
        <time>2016-02-15T19:56:33.000Z</time>
      </trkpt>
      <trkpt lat="48.87938" lon="2.38461">
        <ele>104.19999694824</ele>
        <time>2016-02-15T19:56:35.000Z</time>
      </trkpt>
      <trkpt lat="48.8794" lon="2.38473">
        <ele>104.40000152588</ele>
        <time>2016-02-15T19:56:37.000Z</time>
      </trkpt>
      <trkpt lat="48.87941" lon="2.38496">
        <ele>104.59999847412</ele>
        <time>2016-02-15T19:56:41.000Z</time>
      </trkpt>
      <trkpt lat="48.87942" lon="2.38502">
        <ele>104.59999847412</ele>
        <time>2016-02-15T19:56:42.000Z</time>
      </trkpt>
      <trkpt lat="48.87942" lon="2.3852">
        <ele>104.59999847412</ele>
        <time>2016-02-15T19:56:45.000Z</time>
      </trkpt>
      <trkpt lat="48.87943" lon="2.38548">
        <ele>104.40000152588</ele>
        <time>2016-02-15T19:56:50.000Z</time>
      </trkpt>
      <trkpt lat="48.87946" lon="2.38579">
        <ele>103.80000305176</ele>
        <time>2016-02-15T19:56:55.000Z</time>
      </trkpt>
      <trkpt lat="48.87949" lon="2.38607">
        <ele>103.40000152588</ele>
        <time>2016-02-15T19:57:00.000Z</time>
      </trkpt>
      <trkpt lat="48.87949" lon="2.38637">
        <ele>103</ele>
        <time>2016-02-15T19:57:05.000Z</time>
      </trkpt>
      <trkpt lat="48.8795" lon="2.38668">
        <ele>102.59999847412</ele>
        <time>2016-02-15T19:57:10.000Z</time>
      </trkpt>
      <trkpt lat="48.8795" lon="2.38697">
        <ele>102</ele>
        <time>2016-02-15T19:57:14.000Z</time>
      </trkpt>
      <trkpt lat="48.87948" lon="2.38725">
        <ele>102</ele>
        <time>2016-02-15T19:57:18.000Z</time>
      </trkpt>
      <trkpt lat="48.87948" lon="2.38738">
        <ele>102</ele>
        <time>2016-02-15T19:57:20.000Z</time>
      </trkpt>
      <trkpt lat="48.87944" lon="2.38765">
        <ele>102.59999847412</ele>
        <time>2016-02-15T19:57:24.000Z</time>
      </trkpt>
      <trkpt lat="48.87939" lon="2.38785">
        <ele>103</ele>
        <time>2016-02-15T19:57:27.000Z</time>
      </trkpt>
      <trkpt lat="48.87935" lon="2.38813">
        <ele>103</ele>
        <time>2016-02-15T19:57:31.000Z</time>
      </trkpt>
      <trkpt lat="48.87943" lon="2.38835">
        <ele>103</ele>
        <time>2016-02-15T19:57:34.000Z</time>
      </trkpt>
      <trkpt lat="48.87943" lon="2.38859">
        <ele>104</ele>
        <time>2016-02-15T19:57:38.000Z</time>
      </trkpt>
      <trkpt lat="48.87943" lon="2.38873">
        <ele>104.59999847412</ele>
        <time>2016-02-15T19:57:40.000Z</time>
      </trkpt>
      <trkpt lat="48.87942" lon="2.38898">
        <ele>106</ele>
        <time>2016-02-15T19:57:44.000Z</time>
      </trkpt>
      <trkpt lat="48.87949" lon="2.38931">
        <ele>106.19999694824</ele>
        <time>2016-02-15T19:57:50.000Z</time>
      </trkpt>
      <trkpt lat="48.87954" lon="2.38939">
        <ele>105.59999847412</ele>
        <time>2016-02-15T19:57:52.000Z</time>
      </trkpt>
      <trkpt lat="48.87957" lon="2.38944">
        <ele>105.40000152588</ele>
        <time>2016-02-15T19:57:54.000Z</time>
      </trkpt>
      <trkpt lat="48.87957" lon="2.38947">
        <ele>105.19999694824</ele>
        <time>2016-02-15T19:57:56.000Z</time>
      </trkpt>
      <trkpt lat="48.87965" lon="2.38948">
        <ele>104.59999847412</ele>
        <time>2016-02-15T19:58:58.000Z</time>
      </trkpt>
      <trkpt lat="48.87978" lon="2.38926">
        <ele>103.19999694824</ele>
        <time>2016-02-15T19:59:05.000Z</time>
      </trkpt>
      <trkpt lat="48.87994" lon="2.38906">
        <ele>101.40000152588</ele>
        <time>2016-02-15T19:59:10.000Z</time>
      </trkpt>
      <trkpt lat="48.87997" lon="2.38902">
        <ele>100.80000305176</ele>
        <time>2016-02-15T19:59:11.000Z</time>
      </trkpt>
      <trkpt lat="48.88004" lon="2.38894">
        <ele>99.800003051758</ele>
        <time>2016-02-15T19:59:13.000Z</time>
      </trkpt>
      <trkpt lat="48.88021" lon="2.38875">
        <ele>97.199996948242</ele>
        <time>2016-02-15T19:59:17.000Z</time>
      </trkpt>
      <trkpt lat="48.88035" lon="2.38857">
        <ele>95.199996948242</ele>
        <time>2016-02-15T19:59:21.000Z</time>
      </trkpt>
      <trkpt lat="48.88052" lon="2.38836">
        <ele>92.800003051758</ele>
        <time>2016-02-15T19:59:26.000Z</time>
      </trkpt>
      <trkpt lat="48.88067" lon="2.3882">
        <ele>90.800003051758</ele>
        <time>2016-02-15T19:59:30.000Z</time>
      </trkpt>
      <trkpt lat="48.88084" lon="2.38801">
        <ele>88.400001525879</ele>
        <time>2016-02-15T19:59:34.000Z</time>
      </trkpt>
      <trkpt lat="48.88099" lon="2.38784">
        <ele>86.800003051758</ele>
        <time>2016-02-15T19:59:37.000Z</time>
      </trkpt>
      <trkpt lat="48.88114" lon="2.38768">
        <ele>85</ele>
        <time>2016-02-15T19:59:40.000Z</time>
      </trkpt>
      <trkpt lat="48.8813" lon="2.38752">
        <ele>85</ele>
        <time>2016-02-15T19:59:43.000Z</time>
      </trkpt>
      <trkpt lat="48.88145" lon="2.38735">
        <ele>84.800003051758</ele>
        <time>2016-02-15T19:59:46.000Z</time>
      </trkpt>
      <trkpt lat="48.8816" lon="2.38717">
        <ele>84.199996948242</ele>
        <time>2016-02-15T19:59:49.000Z</time>
      </trkpt>
      <trkpt lat="48.88175" lon="2.387">
        <ele>84</ele>
        <time>2016-02-15T19:59:52.000Z</time>
      </trkpt>
      <trkpt lat="48.88189" lon="2.38681">
        <ele>83.599998474121</ele>
        <time>2016-02-15T19:59:55.000Z</time>
      </trkpt>
      <trkpt lat="48.88207" lon="2.38659">
        <ele>81.800003051758</ele>
        <time>2016-02-15T19:59:59.000Z</time>
      </trkpt>
      <trkpt lat="48.88224" lon="2.38641">
        <ele>80</ele>
        <time>2016-02-15T20:00:03.000Z</time>
      </trkpt>
      <trkpt lat="48.88241" lon="2.38622">
        <ele>78.800003051758</ele>
        <time>2016-02-15T20:00:07.000Z</time>
      </trkpt>
      <trkpt lat="48.88255" lon="2.38606">
        <ele>79.199996948242</ele>
        <time>2016-02-15T20:00:11.000Z</time>
      </trkpt>
      <trkpt lat="48.88261" lon="2.38597">
        <ele>79.599998474121</ele>
        <time>2016-02-15T20:00:13.000Z</time>
      </trkpt>
      <trkpt lat="48.8827" lon="2.38587">
        <ele>79.800003051758</ele>
        <time>2016-02-15T20:00:16.000Z</time>
      </trkpt>
      <trkpt lat="48.88284" lon="2.38579">
        <ele>79.199996948242</ele>
        <time>2016-02-15T20:00:21.000Z</time>
      </trkpt>
      <trkpt lat="48.8829" lon="2.38574">
        <ele>78.400001525879</ele>
        <time>2016-02-15T20:00:24.000Z</time>
      </trkpt>
      <trkpt lat="48.88291" lon="2.3858">
        <ele>78.599998474121</ele>
        <time>2016-02-15T20:00:28.000Z</time>
      </trkpt>
      <trkpt lat="48.8829" lon="2.3858">
        <ele>78.599998474121</ele>
        <time>2016-02-15T20:00:29.000Z</time>
      </trkpt>
      <trkpt lat="48.88296" lon="2.38568">
        <ele>77.800003051758</ele>
        <time>2016-02-15T20:00:44.000Z</time>
      </trkpt>
      <trkpt lat="48.88299" lon="2.3854">
        <ele>76.199996948242</ele>
        <time>2016-02-15T20:00:54.000Z</time>
      </trkpt>
      <trkpt lat="48.88295" lon="2.38509">
        <ele>75.199996948242</ele>
        <time>2016-02-15T20:01:00.000Z</time>
      </trkpt>
      <trkpt lat="48.88292" lon="2.38482">
        <ele>74.599998474121</ele>
        <time>2016-02-15T20:01:04.000Z</time>
      </trkpt>
      <trkpt lat="48.88287" lon="2.38452">
        <ele>73.599998474121</ele>
        <time>2016-02-15T20:01:08.000Z</time>
      </trkpt>
      <trkpt lat="48.8828" lon="2.38422">
        <ele>73</ele>
        <time>2016-02-15T20:01:12.000Z</time>
      </trkpt>
      <trkpt lat="48.88273" lon="2.38392">
        <ele>72.400001525879</ele>
        <time>2016-02-15T20:01:16.000Z</time>
      </trkpt>
      <trkpt lat="48.88267" lon="2.38366">
        <ele>71.400001525879</ele>
        <time>2016-02-15T20:01:20.000Z</time>
      </trkpt>
      <trkpt lat="48.88265" lon="2.3836">
        <ele>71.199996948242</ele>
        <time>2016-02-15T20:01:21.000Z</time>
      </trkpt>
      <trkpt lat="48.88255" lon="2.38331">
        <ele>69.800003051758</ele>
        <time>2016-02-15T20:01:26.000Z</time>
      </trkpt>
      <trkpt lat="48.88254" lon="2.38325">
        <ele>69.400001525879</ele>
        <time>2016-02-15T20:01:27.000Z</time>
      </trkpt>
      <trkpt lat="48.88249" lon="2.38295">
        <ele>67.800003051758</ele>
        <time>2016-02-15T20:01:32.000Z</time>
      </trkpt>
      <trkpt lat="48.88245" lon="2.38285">
        <ele>67.400001525879</ele>
        <time>2016-02-15T20:01:34.000Z</time>
      </trkpt>
      <trkpt lat="48.88243" lon="2.38257">
        <ele>67</ele>
        <time>2016-02-15T20:01:40.000Z</time>
      </trkpt>
      <trkpt lat="48.88236" lon="2.38228">
        <ele>67.599998474121</ele>
        <time>2016-02-15T20:01:47.000Z</time>
      </trkpt>
      <trkpt lat="48.88227" lon="2.38204">
        <ele>68.199996948242</ele>
        <time>2016-02-15T20:01:54.000Z</time>
      </trkpt>
      <trkpt lat="48.88226" lon="2.382">
        <ele>68.199996948242</ele>
        <time>2016-02-15T20:01:57.000Z</time>
      </trkpt>
      <trkpt lat="48.88241" lon="2.38183">
        <ele>69</ele>
        <time>2016-02-15T20:02:11.000Z</time>
      </trkpt>
      <trkpt lat="48.88253" lon="2.38161">
        <ele>70.199996948242</ele>
        <time>2016-02-15T20:02:17.000Z</time>
      </trkpt>
      <trkpt lat="48.88256" lon="2.38132">
        <ele>71.199996948242</ele>
        <time>2016-02-15T20:02:23.000Z</time>
      </trkpt>
      <trkpt lat="48.88255" lon="2.38104">
        <ele>71.199996948242</ele>
        <time>2016-02-15T20:02:29.000Z</time>
      </trkpt>
      <trkpt lat="48.8825" lon="2.38073">
        <ele>71</ele>
        <time>2016-02-15T20:02:37.000Z</time>
      </trkpt>
      <trkpt lat="48.8825" lon="2.38042">
        <ele>70</ele>
        <time>2016-02-15T20:02:43.000Z</time>
      </trkpt>
      <trkpt lat="48.88255" lon="2.38016">
        <ele>69.400001525879</ele>
        <time>2016-02-15T20:02:48.000Z</time>
      </trkpt>
      <trkpt lat="48.88252" lon="2.3801">
        <ele>69.199996948242</ele>
        <time>2016-02-15T20:02:49.000Z</time>
      </trkpt>
      <trkpt lat="48.88243" lon="2.37979">
        <ele>67.800003051758</ele>
        <time>2016-02-15T20:02:53.000Z</time>
      </trkpt>
      <trkpt lat="48.88244" lon="2.37942">
        <ele>65.599998474121</ele>
        <time>2016-02-15T20:02:56.000Z</time>
      </trkpt>
      <trkpt lat="48.88247" lon="2.3791">
        <ele>64</ele>
        <time>2016-02-15T20:02:59.000Z</time>
      </trkpt>
      <trkpt lat="48.88248" lon="2.37879">
        <ele>64</ele>
        <time>2016-02-15T20:03:02.000Z</time>
      </trkpt>
      <trkpt lat="48.88248" lon="2.37868">
        <ele>63.599998474121</ele>
        <time>2016-02-15T20:03:03.000Z</time>
      </trkpt>
      <trkpt lat="48.88248" lon="2.3784">
        <ele>62.599998474121</ele>
        <time>2016-02-15T20:03:06.000Z</time>
      </trkpt>
      <trkpt lat="48.88249" lon="2.37812">
        <ele>62.400001525879</ele>
        <time>2016-02-15T20:03:09.000Z</time>
      </trkpt>
      <trkpt lat="48.88251" lon="2.37792">
        <ele>62.400001525879</ele>
        <time>2016-02-15T20:03:11.000Z</time>
      </trkpt>
      <trkpt lat="48.88254" lon="2.37764">
        <ele>62.200000762939</ele>
        <time>2016-02-15T20:03:14.000Z</time>
      </trkpt>
      <trkpt lat="48.88255" lon="2.37735">
        <ele>62</ele>
        <time>2016-02-15T20:03:17.000Z</time>
      </trkpt>
      <trkpt lat="48.88254" lon="2.37702">
        <ele>62.200000762939</ele>
        <time>2016-02-15T20:03:21.000Z</time>
      </trkpt>
      <trkpt lat="48.88253" lon="2.3767">
        <ele>62.599998474121</ele>
        <time>2016-02-15T20:03:25.000Z</time>
      </trkpt>
      <trkpt lat="48.88254" lon="2.3764">
        <ele>62.799999237061</ele>
        <time>2016-02-15T20:03:29.000Z</time>
      </trkpt>
      <trkpt lat="48.88253" lon="2.37621">
        <ele>62.599998474121</ele>
        <time>2016-02-15T20:03:31.000Z</time>
      </trkpt>
      <trkpt lat="48.88256" lon="2.37592">
        <ele>62.200000762939</ele>
        <time>2016-02-15T20:03:34.000Z</time>
      </trkpt>
      <trkpt lat="48.88258" lon="2.37573">
        <ele>61.599998474121</ele>
        <time>2016-02-15T20:03:36.000Z</time>
      </trkpt>
      <trkpt lat="48.88259" lon="2.37541">
        <ele>61.599998474121</ele>
        <time>2016-02-15T20:03:40.000Z</time>
      </trkpt>
      <trkpt lat="48.88262" lon="2.37509">
        <ele>62</ele>
        <time>2016-02-15T20:03:44.000Z</time>
      </trkpt>
      <trkpt lat="48.88273" lon="2.3748">
        <ele>62</ele>
        <time>2016-02-15T20:03:47.000Z</time>
      </trkpt>
      <trkpt lat="48.88286" lon="2.37456">
        <ele>61.599998474121</ele>
        <time>2016-02-15T20:03:49.000Z</time>
      </trkpt>
      <trkpt lat="48.883" lon="2.37435">
        <ele>61</ele>
        <time>2016-02-15T20:03:52.000Z</time>
      </trkpt>
      <trkpt lat="48.88304" lon="2.3743">
        <ele>60.799999237061</ele>
        <time>2016-02-15T20:03:53.000Z</time>
      </trkpt>
      <trkpt lat="48.88317" lon="2.3741">
        <ele>60.400001525879</ele>
        <time>2016-02-15T20:03:57.000Z</time>
      </trkpt>
      <trkpt lat="48.88331" lon="2.37387">
        <ele>59.599998474121</ele>
        <time>2016-02-15T20:04:01.000Z</time>
      </trkpt>
      <trkpt lat="48.88337" lon="2.37376">
        <ele>60</ele>
        <time>2016-02-15T20:04:03.000Z</time>
      </trkpt>
      <trkpt lat="48.88349" lon="2.37353">
        <ele>60.400001525879</ele>
        <time>2016-02-15T20:04:08.000Z</time>
      </trkpt>
      <trkpt lat="48.88352" lon="2.37349">
        <ele>60.599998474121</ele>
        <time>2016-02-15T20:04:10.000Z</time>
      </trkpt>
      <trkpt lat="48.88356" lon="2.3733">
        <ele>61</ele>
        <time>2016-02-15T20:04:32.000Z</time>
      </trkpt>
      <trkpt lat="48.88348" lon="2.37303">
        <ele>61</ele>
        <time>2016-02-15T20:04:38.000Z</time>
      </trkpt>
      <trkpt lat="48.8834" lon="2.37278">
        <ele>61</ele>
        <time>2016-02-15T20:04:43.000Z</time>
      </trkpt>
      <trkpt lat="48.8833" lon="2.37248">
        <ele>61</ele>
        <time>2016-02-15T20:04:48.000Z</time>
      </trkpt>
      <trkpt lat="48.88322" lon="2.37222">
        <ele>61</ele>
        <time>2016-02-15T20:04:52.000Z</time>
      </trkpt>
      <trkpt lat="48.88313" lon="2.37198">
        <ele>60.799999237061</ele>
        <time>2016-02-15T20:04:56.000Z</time>
      </trkpt>
      <trkpt lat="48.88304" lon="2.3717">
        <ele>60.599998474121</ele>
        <time>2016-02-15T20:05:00.000Z</time>
      </trkpt>
      <trkpt lat="48.88297" lon="2.37143">
        <ele>60.400001525879</ele>
        <time>2016-02-15T20:05:04.000Z</time>
      </trkpt>
      <trkpt lat="48.88289" lon="2.37123">
        <ele>60.200000762939</ele>
        <time>2016-02-15T20:05:08.000Z</time>
      </trkpt>
      <trkpt lat="48.88292" lon="2.37096">
        <ele>59.400001525879</ele>
        <time>2016-02-15T20:05:15.000Z</time>
      </trkpt>
      <trkpt lat="48.88293" lon="2.37093">
        <ele>59</ele>
        <time>2016-02-15T20:05:16.000Z</time>
      </trkpt>
      <trkpt lat="48.88294" lon="2.3709">
        <ele>58.799999237061</ele>
        <time>2016-02-15T20:05:17.000Z</time>
      </trkpt>
      <trkpt lat="48.88291" lon="2.37074">
        <ele>58.400001525879</ele>
        <time>2016-02-15T20:05:23.000Z</time>
      </trkpt>
      <trkpt lat="48.88288" lon="2.37063">
        <ele>58</ele>
        <time>2016-02-15T20:05:27.000Z</time>
      </trkpt>
      <trkpt lat="48.8829" lon="2.37056">
        <ele>57.599998474121</ele>
        <time>2016-02-15T20:05:33.000Z</time>
      </trkpt>
      <trkpt lat="48.88296" lon="2.37036">
        <ele>56.200000762939</ele>
        <time>2016-02-15T20:06:06.000Z</time>
      </trkpt>
      <trkpt lat="48.88306" lon="2.37017">
        <ele>54.799999237061</ele>
        <time>2016-02-15T20:07:12.000Z</time>
      </trkpt>
      <trkpt lat="48.88321" lon="2.37001">
        <ele>53.799999237061</ele>
        <time>2016-02-15T20:07:19.000Z</time>
      </trkpt>
      <trkpt lat="48.88341" lon="2.36994">
        <ele>52.799999237061</ele>
        <time>2016-02-15T20:07:26.000Z</time>
      </trkpt>
      <trkpt lat="48.88361" lon="2.36987">
        <ele>52.599998474121</ele>
        <time>2016-02-15T20:07:32.000Z</time>
      </trkpt>
      <trkpt lat="48.88373" lon="2.36965">
        <ele>53.799999237061</ele>
        <time>2016-02-15T20:07:38.000Z</time>
      </trkpt>
      <trkpt lat="48.88382" lon="2.36937">
        <ele>55</ele>
        <time>2016-02-15T20:07:44.000Z</time>
      </trkpt>
      <trkpt lat="48.88396" lon="2.36917">
        <ele>54.599998474121</ele>
        <time>2016-02-15T20:07:50.000Z</time>
      </trkpt>
      <trkpt lat="48.88408" lon="2.36898">
        <ele>55.400001525879</ele>
        <time>2016-02-15T20:07:57.000Z</time>
      </trkpt>
      <trkpt lat="48.88414" lon="2.36883">
        <ele>56.200000762939</ele>
        <time>2016-02-15T20:08:01.000Z</time>
      </trkpt>
      <trkpt lat="48.88422" lon="2.36856">
        <ele>58.200000762939</ele>
        <time>2016-02-15T20:08:09.000Z</time>
      </trkpt>
      <trkpt lat="48.88422" lon="2.3685">
        <ele>58.599998474121</ele>
        <time>2016-02-15T20:08:12.000Z</time>
      </trkpt>
      <trkpt lat="48.8842" lon="2.3682">
        <ele>59.799999237061</ele>
        <time>2016-02-15T20:08:21.000Z</time>
      </trkpt>
      <trkpt lat="48.88422" lon="2.36789">
        <ele>60</ele>
        <time>2016-02-15T20:08:26.000Z</time>
      </trkpt>
      <trkpt lat="48.88422" lon="2.36761">
        <ele>60.400001525879</ele>
        <time>2016-02-15T20:08:30.000Z</time>
      </trkpt>
      <trkpt lat="48.88422" lon="2.36733">
        <ele>60.599998474121</ele>
        <time>2016-02-15T20:08:34.000Z</time>
      </trkpt>
      <trkpt lat="48.88421" lon="2.36704">
        <ele>60</ele>
        <time>2016-02-15T20:08:38.000Z</time>
      </trkpt>
      <trkpt lat="48.88421" lon="2.36673">
        <ele>59.200000762939</ele>
        <time>2016-02-15T20:08:42.000Z</time>
      </trkpt>
      <trkpt lat="48.88424" lon="2.36642">
        <ele>59.400001525879</ele>
        <time>2016-02-15T20:08:46.000Z</time>
      </trkpt>
      <trkpt lat="48.88429" lon="2.36612">
        <ele>58.400001525879</ele>
        <time>2016-02-15T20:08:50.000Z</time>
      </trkpt>
      <trkpt lat="48.88435" lon="2.36593">
        <ele>57.599998474121</ele>
        <time>2016-02-15T20:08:54.000Z</time>
      </trkpt>
      <trkpt lat="48.88439" lon="2.36584">
        <ele>57.200000762939</ele>
        <time>2016-02-15T20:08:57.000Z</time>
      </trkpt>
      <trkpt lat="48.88442" lon="2.36574">
        <ele>57.200000762939</ele>
        <time>2016-02-15T20:09:00.000Z</time>
      </trkpt>
      <trkpt lat="48.88438" lon="2.36546">
        <ele>58</ele>
        <time>2016-02-15T20:09:06.000Z</time>
      </trkpt>
      <trkpt lat="48.88438" lon="2.3654">
        <ele>58</ele>
        <time>2016-02-15T20:09:07.000Z</time>
      </trkpt>
      <trkpt lat="48.88436" lon="2.36508">
        <ele>59</ele>
        <time>2016-02-15T20:09:12.000Z</time>
      </trkpt>
      <trkpt lat="48.88431" lon="2.36477">
        <ele>58.799999237061</ele>
        <time>2016-02-15T20:09:18.000Z</time>
      </trkpt>
      <trkpt lat="48.88435" lon="2.3645">
        <ele>57.599998474121</ele>
        <time>2016-02-15T20:09:22.000Z</time>
      </trkpt>
      <trkpt lat="48.88435" lon="2.36419">
        <ele>56.400001525879</ele>
        <time>2016-02-15T20:09:28.000Z</time>
      </trkpt>
      <trkpt lat="48.88434" lon="2.3639">
        <ele>55.799999237061</ele>
        <time>2016-02-15T20:09:34.000Z</time>
      </trkpt>
      <trkpt lat="48.88434" lon="2.36359">
        <ele>55</ele>
        <time>2016-02-15T20:09:40.000Z</time>
      </trkpt>
      <trkpt lat="48.88441" lon="2.36332">
        <ele>54</ele>
        <time>2016-02-15T20:09:44.000Z</time>
      </trkpt>
      <trkpt lat="48.88448" lon="2.36301">
        <ele>53.799999237061</ele>
        <time>2016-02-15T20:09:49.000Z</time>
      </trkpt>
      <trkpt lat="48.88449" lon="2.3627">
        <ele>53.799999237061</ele>
        <time>2016-02-15T20:09:55.000Z</time>
      </trkpt>
      <trkpt lat="48.88438" lon="2.36244">
        <ele>54.400001525879</ele>
        <time>2016-02-15T20:10:00.000Z</time>
      </trkpt>
      <trkpt lat="48.88434" lon="2.36216">
        <ele>56.599998474121</ele>
        <time>2016-02-15T20:10:04.000Z</time>
      </trkpt>
      <trkpt lat="48.88433" lon="2.36182">
        <ele>59.599998474121</ele>
        <time>2016-02-15T20:10:09.000Z</time>
      </trkpt>
      <trkpt lat="48.88431" lon="2.36149">
        <ele>61.599998474121</ele>
        <time>2016-02-15T20:10:14.000Z</time>
      </trkpt>
      <trkpt lat="48.88431" lon="2.36116">
        <ele>62</ele>
        <time>2016-02-15T20:10:19.000Z</time>
      </trkpt>
      <trkpt lat="48.88436" lon="2.36084">
        <ele>62.200000762939</ele>
        <time>2016-02-15T20:10:23.000Z</time>
      </trkpt>
      <trkpt lat="48.88439" lon="2.36067">
        <ele>62</ele>
        <time>2016-02-15T20:10:25.000Z</time>
      </trkpt>
      <trkpt lat="48.88445" lon="2.36036">
        <ele>61.200000762939</ele>
        <time>2016-02-15T20:10:29.000Z</time>
      </trkpt>
      <trkpt lat="48.88449" lon="2.36003">
        <ele>60.400001525879</ele>
        <time>2016-02-15T20:10:34.000Z</time>
      </trkpt>
      <trkpt lat="48.88452" lon="2.3598">
        <ele>59.400001525879</ele>
        <time>2016-02-15T20:10:38.000Z</time>
      </trkpt>
      <trkpt lat="48.88453" lon="2.35958">
        <ele>58.599998474121</ele>
        <time>2016-02-15T20:10:41.000Z</time>
      </trkpt>
      <trkpt lat="48.88449" lon="2.35924">
        <ele>57.599998474121</ele>
        <time>2016-02-15T20:10:45.000Z</time>
      </trkpt>
      <trkpt lat="48.88448" lon="2.35915">
        <ele>58</ele>
        <time>2016-02-15T20:10:46.000Z</time>
      </trkpt>
      <trkpt lat="48.88445" lon="2.35888">
        <ele>57</ele>
        <time>2016-02-15T20:10:49.000Z</time>
      </trkpt>
      <trkpt lat="48.88444" lon="2.35879">
        <ele>56.799999237061</ele>
        <time>2016-02-15T20:10:50.000Z</time>
      </trkpt>
      <trkpt lat="48.88442" lon="2.35843">
        <ele>55.400001525879</ele>
        <time>2016-02-15T20:10:54.000Z</time>
      </trkpt>
      <trkpt lat="48.88441" lon="2.3581">
        <ele>54.799999237061</ele>
        <time>2016-02-15T20:10:58.000Z</time>
      </trkpt>
      <trkpt lat="48.8844" lon="2.35785">
        <ele>54.400001525879</ele>
        <time>2016-02-15T20:11:01.000Z</time>
      </trkpt>
      <trkpt lat="48.88439" lon="2.35752">
        <ele>54</ele>
        <time>2016-02-15T20:11:05.000Z</time>
      </trkpt>
      <trkpt lat="48.88438" lon="2.35744">
        <ele>54</ele>
        <time>2016-02-15T20:11:06.000Z</time>
      </trkpt>
      <trkpt lat="48.88436" lon="2.35714">
        <ele>55</ele>
        <time>2016-02-15T20:11:10.000Z</time>
      </trkpt>
      <trkpt lat="48.88435" lon="2.35693">
        <ele>55.799999237061</ele>
        <time>2016-02-15T20:11:13.000Z</time>
      </trkpt>
      <trkpt lat="48.8843" lon="2.35677">
        <ele>56</ele>
        <time>2016-02-15T20:11:16.000Z</time>
      </trkpt>
      <trkpt lat="48.88425" lon="2.35654">
        <ele>57</ele>
        <time>2016-02-15T20:11:20.000Z</time>
      </trkpt>
      <trkpt lat="48.88422" lon="2.35635">
        <ele>57.599998474121</ele>
        <time>2016-02-15T20:11:23.000Z</time>
      </trkpt>
      <trkpt lat="48.88418" lon="2.35605">
        <ele>58.599998474121</ele>
        <time>2016-02-15T20:11:27.000Z</time>
      </trkpt>
      <trkpt lat="48.88415" lon="2.35571">
        <ele>59.400001525879</ele>
        <time>2016-02-15T20:11:31.000Z</time>
      </trkpt>
      <trkpt lat="48.88411" lon="2.35544">
        <ele>59.200000762939</ele>
        <time>2016-02-15T20:11:34.000Z</time>
      </trkpt>
      <trkpt lat="48.88409" lon="2.35524">
        <ele>59</ele>
        <time>2016-02-15T20:11:36.000Z</time>
      </trkpt>
      <trkpt lat="48.88408" lon="2.35493">
        <ele>58.599998474121</ele>
        <time>2016-02-15T20:11:39.000Z</time>
      </trkpt>
      <trkpt lat="48.88407" lon="2.35461">
        <ele>58.599998474121</ele>
        <time>2016-02-15T20:11:42.000Z</time>
      </trkpt>
      <trkpt lat="48.88404" lon="2.35432">
        <ele>58.200000762939</ele>
        <time>2016-02-15T20:11:45.000Z</time>
      </trkpt>
      <trkpt lat="48.88403" lon="2.35404">
        <ele>58.200000762939</ele>
        <time>2016-02-15T20:11:48.000Z</time>
      </trkpt>
      <trkpt lat="48.88403" lon="2.35376">
        <ele>59</ele>
        <time>2016-02-15T20:11:51.000Z</time>
      </trkpt>
      <trkpt lat="48.88402" lon="2.35341">
        <ele>59.799999237061</ele>
        <time>2016-02-15T20:11:55.000Z</time>
      </trkpt>
      <trkpt lat="48.884" lon="2.35311">
        <ele>60.400001525879</ele>
        <time>2016-02-15T20:11:59.000Z</time>
      </trkpt>
      <trkpt lat="48.884" lon="2.35302">
        <ele>60.599998474121</ele>
        <time>2016-02-15T20:12:00.000Z</time>
      </trkpt>
      <trkpt lat="48.88401" lon="2.35273">
        <ele>61.599998474121</ele>
        <time>2016-02-15T20:12:04.000Z</time>
      </trkpt>
      <trkpt lat="48.88399" lon="2.3525">
        <ele>62.400001525879</ele>
        <time>2016-02-15T20:12:08.000Z</time>
      </trkpt>
      <trkpt lat="48.88394" lon="2.35232">
        <ele>63.200000762939</ele>
        <time>2016-02-15T20:12:12.000Z</time>
      </trkpt>
      <trkpt lat="48.88393" lon="2.35227">
        <ele>63.400001525879</ele>
        <time>2016-02-15T20:12:13.000Z</time>
      </trkpt>
      <trkpt lat="48.88391" lon="2.35204">
        <ele>64.599998474121</ele>
        <time>2016-02-15T20:12:17.000Z</time>
      </trkpt>
      <trkpt lat="48.88387" lon="2.35174">
        <ele>65.199996948242</ele>
        <time>2016-02-15T20:12:22.000Z</time>
      </trkpt>
      <trkpt lat="48.88385" lon="2.35163">
        <ele>65.400001525879</ele>
        <time>2016-02-15T20:12:24.000Z</time>
      </trkpt>
      <trkpt lat="48.88384" lon="2.35154">
        <ele>65.800003051758</ele>
        <time>2016-02-15T20:12:26.000Z</time>
      </trkpt>
      <trkpt lat="48.88383" lon="2.35147">
        <ele>66</ele>
        <time>2016-02-15T20:12:28.000Z</time>
      </trkpt>
      <trkpt lat="48.88383" lon="2.35139">
        <ele>66.199996948242</ele>
        <time>2016-02-15T20:12:30.000Z</time>
      </trkpt>
      <trkpt lat="48.88384" lon="2.3511">
        <ele>67.199996948242</ele>
        <time>2016-02-15T20:12:43.000Z</time>
      </trkpt>
      <trkpt lat="48.88381" lon="2.35083">
        <ele>68.400001525879</ele>
        <time>2016-02-15T20:12:49.000Z</time>
      </trkpt>
      <trkpt lat="48.88377" lon="2.35054">
        <ele>68.199996948242</ele>
        <time>2016-02-15T20:12:55.000Z</time>
      </trkpt>
      <trkpt lat="48.88374" lon="2.35022">
        <ele>67.800003051758</ele>
        <time>2016-02-15T20:13:01.000Z</time>
      </trkpt>
      <trkpt lat="48.88371" lon="2.34993">
        <ele>68</ele>
        <time>2016-02-15T20:13:07.000Z</time>
      </trkpt>
      <trkpt lat="48.88373" lon="2.34978">
        <ele>68.199996948242</ele>
        <time>2016-02-15T20:13:11.000Z</time>
      </trkpt>
      <trkpt lat="48.88374" lon="2.34975">
        <ele>68.199996948242</ele>
        <time>2016-02-15T20:13:13.000Z</time>
      </trkpt>
      <trkpt lat="48.88377" lon="2.34973">
        <ele>68.199996948242</ele>
        <time>2016-02-15T20:13:15.000Z</time>
      </trkpt>
      <trkpt lat="48.88374" lon="2.34947">
        <ele>68.599998474121</ele>
        <time>2016-02-15T20:13:29.000Z</time>
      </trkpt>
      <trkpt lat="48.88367" lon="2.34921">
        <ele>69</ele>
        <time>2016-02-15T20:13:35.000Z</time>
      </trkpt>
      <trkpt lat="48.88362" lon="2.34895">
        <ele>69.599998474121</ele>
        <time>2016-02-15T20:13:41.000Z</time>
      </trkpt>
      <trkpt lat="48.88357" lon="2.34863">
        <ele>70.199996948242</ele>
        <time>2016-02-15T20:13:47.000Z</time>
      </trkpt>
      <trkpt lat="48.88355" lon="2.34832">
        <ele>71</ele>
        <time>2016-02-15T20:13:53.000Z</time>
      </trkpt>
      <trkpt lat="48.88348" lon="2.34802">
        <ele>71.400001525879</ele>
        <time>2016-02-15T20:13:59.000Z</time>
      </trkpt>
      <trkpt lat="48.88344" lon="2.34771">
        <ele>71.800003051758</ele>
        <time>2016-02-15T20:14:05.000Z</time>
      </trkpt>
      <trkpt lat="48.88342" lon="2.34743">
        <ele>72.400001525879</ele>
        <time>2016-02-15T20:14:11.000Z</time>
      </trkpt>
      <trkpt lat="48.88346" lon="2.34722">
        <ele>72.599998474121</ele>
        <time>2016-02-15T20:14:16.000Z</time>
      </trkpt>
      <trkpt lat="48.88344" lon="2.34707">
        <ele>73</ele>
        <time>2016-02-15T20:15:01.000Z</time>
      </trkpt>
      <trkpt lat="48.88333" lon="2.34685">
        <ele>73.599998474121</ele>
        <time>2016-02-15T20:15:08.000Z</time>
      </trkpt>
      <trkpt lat="48.88329" lon="2.34656">
        <ele>74</ele>
        <time>2016-02-15T20:15:14.000Z</time>
      </trkpt>
      <trkpt lat="48.88322" lon="2.34631">
        <ele>74.599998474121</ele>
        <time>2016-02-15T20:15:19.000Z</time>
      </trkpt>
      <trkpt lat="48.88311" lon="2.34603">
        <ele>75.199996948242</ele>
        <time>2016-02-15T20:15:25.000Z</time>
      </trkpt>
      <trkpt lat="48.88306" lon="2.34573">
        <ele>75.599998474121</ele>
        <time>2016-02-15T20:15:30.000Z</time>
      </trkpt>
      <trkpt lat="48.88295" lon="2.34545">
        <ele>76.800003051758</ele>
        <time>2016-02-15T20:15:35.000Z</time>
      </trkpt>
      <trkpt lat="48.88287" lon="2.34514">
        <ele>78</ele>
        <time>2016-02-15T20:15:40.000Z</time>
      </trkpt>
      <trkpt lat="48.88283" lon="2.34485">
        <ele>77.599998474121</ele>
        <time>2016-02-15T20:15:44.000Z</time>
      </trkpt>
      <trkpt lat="48.88276" lon="2.34458">
        <ele>76</ele>
        <time>2016-02-15T20:15:48.000Z</time>
      </trkpt>
      <trkpt lat="48.8827" lon="2.34432">
        <ele>74.199996948242</ele>
        <time>2016-02-15T20:15:53.000Z</time>
      </trkpt>
      <trkpt lat="48.88277" lon="2.34391">
        <ele>72.199996948242</ele>
        <time>2016-02-15T20:15:58.000Z</time>
      </trkpt>
      <trkpt lat="48.88274" lon="2.34357">
        <ele>71</ele>
        <time>2016-02-15T20:16:03.000Z</time>
      </trkpt>
      <trkpt lat="48.88267" lon="2.34328">
        <ele>70</ele>
        <time>2016-02-15T20:16:08.000Z</time>
      </trkpt>
      <trkpt lat="48.88263" lon="2.34316">
        <ele>70.199996948242</ele>
        <time>2016-02-15T20:16:10.000Z</time>
      </trkpt>
      <trkpt lat="48.88256" lon="2.34288">
        <ele>70.599998474121</ele>
        <time>2016-02-15T20:16:14.000Z</time>
      </trkpt>
      <trkpt lat="48.88248" lon="2.34263">
        <ele>71</ele>
        <time>2016-02-15T20:16:18.000Z</time>
      </trkpt>
      <trkpt lat="48.88246" lon="2.34257">
        <ele>71.199996948242</ele>
        <time>2016-02-15T20:16:19.000Z</time>
      </trkpt>
      <trkpt lat="48.88237" lon="2.34229">
        <ele>72.199996948242</ele>
        <time>2016-02-15T20:16:23.000Z</time>
      </trkpt>
      <trkpt lat="48.88227" lon="2.34204">
        <ele>73.599998474121</ele>
        <time>2016-02-15T20:16:27.000Z</time>
      </trkpt>
      <trkpt lat="48.88217" lon="2.34177">
        <ele>74.800003051758</ele>
        <time>2016-02-15T20:16:31.000Z</time>
      </trkpt>
      <trkpt lat="48.88207" lon="2.34151">
        <ele>75.199996948242</ele>
        <time>2016-02-15T20:16:35.000Z</time>
      </trkpt>
      <trkpt lat="48.88199" lon="2.34122">
        <ele>75.199996948242</ele>
        <time>2016-02-15T20:16:39.000Z</time>
      </trkpt>
      <trkpt lat="48.88191" lon="2.34093">
        <ele>75</ele>
        <time>2016-02-15T20:16:43.000Z</time>
      </trkpt>
      <trkpt lat="48.88188" lon="2.3406">
        <ele>74.599998474121</ele>
        <time>2016-02-15T20:16:47.000Z</time>
      </trkpt>
      <trkpt lat="48.88184" lon="2.34031">
        <ele>74.199996948242</ele>
        <time>2016-02-15T20:16:51.000Z</time>
      </trkpt>
      <trkpt lat="48.88183" lon="2.34022">
        <ele>74</ele>
        <time>2016-02-15T20:16:52.000Z</time>
      </trkpt>
      <trkpt lat="48.88184" lon="2.33995">
        <ele>73.599998474121</ele>
        <time>2016-02-15T20:16:56.000Z</time>
      </trkpt>
      <trkpt lat="48.88189" lon="2.33969">
        <ele>72.599998474121</ele>
        <time>2016-02-15T20:17:00.000Z</time>
      </trkpt>
      <trkpt lat="48.88191" lon="2.33962">
        <ele>72.400001525879</ele>
        <time>2016-02-15T20:17:01.000Z</time>
      </trkpt>
      <trkpt lat="48.88201" lon="2.33932">
        <ele>71.199996948242</ele>
        <time>2016-02-15T20:17:05.000Z</time>
      </trkpt>
      <trkpt lat="48.88211" lon="2.33901">
        <ele>70.800003051758</ele>
        <time>2016-02-15T20:17:09.000Z</time>
      </trkpt>
      <trkpt lat="48.8822" lon="2.3387">
        <ele>71</ele>
        <time>2016-02-15T20:17:13.000Z</time>
      </trkpt>
      <trkpt lat="48.88224" lon="2.33841">
        <ele>71.599998474121</ele>
        <time>2016-02-15T20:17:17.000Z</time>
      </trkpt>
      <trkpt lat="48.88226" lon="2.33834">
        <ele>72</ele>
        <time>2016-02-15T20:17:18.000Z</time>
      </trkpt>
      <trkpt lat="48.88232" lon="2.33805">
        <ele>72.599998474121</ele>
        <time>2016-02-15T20:17:22.000Z</time>
      </trkpt>
      <trkpt lat="48.88238" lon="2.33774">
        <ele>72.199996948242</ele>
        <time>2016-02-15T20:17:27.000Z</time>
      </trkpt>
      <trkpt lat="48.88242" lon="2.33744">
        <ele>71.400001525879</ele>
        <time>2016-02-15T20:17:32.000Z</time>
      </trkpt>
      <trkpt lat="48.88243" lon="2.33738">
        <ele>71.400001525879</ele>
        <time>2016-02-15T20:17:33.000Z</time>
      </trkpt>
      <trkpt lat="48.88248" lon="2.33717">
        <ele>71</ele>
        <time>2016-02-15T20:17:36.000Z</time>
      </trkpt>
      <trkpt lat="48.8826" lon="2.33687">
        <ele>69.800003051758</ele>
        <time>2016-02-15T20:17:40.000Z</time>
      </trkpt>
      <trkpt lat="48.88269" lon="2.3366">
        <ele>69</ele>
        <time>2016-02-15T20:17:44.000Z</time>
      </trkpt>
      <trkpt lat="48.88278" lon="2.33636">
        <ele>69.599998474121</ele>
        <time>2016-02-15T20:17:48.000Z</time>
      </trkpt>
      <trkpt lat="48.88287" lon="2.33612">
        <ele>70.400001525879</ele>
        <time>2016-02-15T20:17:52.000Z</time>
      </trkpt>
      <trkpt lat="48.88297" lon="2.33583">
        <ele>70.400001525879</ele>
        <time>2016-02-15T20:17:56.000Z</time>
      </trkpt>
      <trkpt lat="48.88302" lon="2.33569">
        <ele>70.400001525879</ele>
        <time>2016-02-15T20:17:58.000Z</time>
      </trkpt>
      <trkpt lat="48.88311" lon="2.33536">
        <ele>71</ele>
        <time>2016-02-15T20:18:02.000Z</time>
      </trkpt>
      <trkpt lat="48.88315" lon="2.3352">
        <ele>71.199996948242</ele>
        <time>2016-02-15T20:18:04.000Z</time>
      </trkpt>
      <trkpt lat="48.88325" lon="2.3349">
        <ele>71.599998474121</ele>
        <time>2016-02-15T20:18:08.000Z</time>
      </trkpt>
      <trkpt lat="48.88336" lon="2.3346">
        <ele>71.800003051758</ele>
        <time>2016-02-15T20:18:12.000Z</time>
      </trkpt>
      <trkpt lat="48.88345" lon="2.33433">
        <ele>71.800003051758</ele>
        <time>2016-02-15T20:18:16.000Z</time>
      </trkpt>
      <trkpt lat="48.88347" lon="2.33427">
        <ele>71.800003051758</ele>
        <time>2016-02-15T20:18:17.000Z</time>
      </trkpt>
      <trkpt lat="48.88354" lon="2.33406">
        <ele>71.800003051758</ele>
        <time>2016-02-15T20:18:20.000Z</time>
      </trkpt>
      <trkpt lat="48.88364" lon="2.3338">
        <ele>71.800003051758</ele>
        <time>2016-02-15T20:18:24.000Z</time>
      </trkpt>
      <trkpt lat="48.88374" lon="2.33355">
        <ele>72</ele>
        <time>2016-02-15T20:18:28.000Z</time>
      </trkpt>
      <trkpt lat="48.88381" lon="2.33338">
        <ele>71.800003051758</ele>
        <time>2016-02-15T20:18:31.000Z</time>
      </trkpt>
      <trkpt lat="48.88388" lon="2.33308">
        <ele>72</ele>
        <time>2016-02-15T20:18:36.000Z</time>
      </trkpt>
      <trkpt lat="48.88389" lon="2.33303">
        <ele>72.199996948242</ele>
        <time>2016-02-15T20:18:37.000Z</time>
      </trkpt>
      <trkpt lat="48.8839" lon="2.3327">
        <ele>72.199996948242</ele>
        <time>2016-02-15T20:18:42.000Z</time>
      </trkpt>
      <trkpt lat="48.88391" lon="2.33265">
        <ele>72</ele>
        <time>2016-02-15T20:18:43.000Z</time>
      </trkpt>
      <trkpt lat="48.88396" lon="2.33236">
        <ele>71.400001525879</ele>
        <time>2016-02-15T20:18:48.000Z</time>
      </trkpt>
      <trkpt lat="48.88397" lon="2.3323">
        <ele>71.400001525879</ele>
        <time>2016-02-15T20:18:49.000Z</time>
      </trkpt>
      <trkpt lat="48.88402" lon="2.33214">
        <ele>71</ele>
        <time>2016-02-15T20:18:52.000Z</time>
      </trkpt>
      <trkpt lat="48.88409" lon="2.33183">
        <ele>71</ele>
        <time>2016-02-15T20:18:57.000Z</time>
      </trkpt>
      <trkpt lat="48.88415" lon="2.33157">
        <ele>71</ele>
        <time>2016-02-15T20:19:01.000Z</time>
      </trkpt>
      <trkpt lat="48.88423" lon="2.33127">
        <ele>71.599998474121</ele>
        <time>2016-02-15T20:19:06.000Z</time>
      </trkpt>
      <trkpt lat="48.88429" lon="2.33103">
        <ele>72.400001525879</ele>
        <time>2016-02-15T20:19:10.000Z</time>
      </trkpt>
      <trkpt lat="48.88438" lon="2.33075">
        <ele>73</ele>
        <time>2016-02-15T20:19:15.000Z</time>
      </trkpt>
      <trkpt lat="48.88445" lon="2.33045">
        <ele>73</ele>
        <time>2016-02-15T20:19:20.000Z</time>
      </trkpt>
      <trkpt lat="48.88449" lon="2.33023">
        <ele>73.199996948242</ele>
        <time>2016-02-15T20:19:24.000Z</time>
      </trkpt>
      <trkpt lat="48.88453" lon="2.33008">
        <ele>73.199996948242</ele>
        <time>2016-02-15T20:19:28.000Z</time>
      </trkpt>
      <trkpt lat="48.88456" lon="2.32983">
        <ele>72.400001525879</ele>
        <time>2016-02-15T20:19:43.000Z</time>
      </trkpt>
      <trkpt lat="48.88456" lon="2.32971">
        <ele>72.199996948242</ele>
        <time>2016-02-15T20:19:48.000Z</time>
      </trkpt>
      <trkpt lat="48.88453" lon="2.32943">
        <ele>71.599998474121</ele>
        <time>2016-02-15T20:19:56.000Z</time>
      </trkpt>
      <trkpt lat="48.88452" lon="2.32939">
        <ele>71.400001525879</ele>
        <time>2016-02-15T20:19:57.000Z</time>
      </trkpt>
      <trkpt lat="48.8844" lon="2.32912">
        <ele>71</ele>
        <time>2016-02-15T20:20:03.000Z</time>
      </trkpt>
      <trkpt lat="48.88428" lon="2.32891">
        <ele>70.800003051758</ele>
        <time>2016-02-15T20:20:07.000Z</time>
      </trkpt>
      <trkpt lat="48.88412" lon="2.32871">
        <ele>70.400001525879</ele>
        <time>2016-02-15T20:20:11.000Z</time>
      </trkpt>
      <trkpt lat="48.88399" lon="2.32848">
        <ele>70.199996948242</ele>
        <time>2016-02-15T20:20:15.000Z</time>
      </trkpt>
      <trkpt lat="48.88384" lon="2.32824">
        <ele>69.800003051758</ele>
        <time>2016-02-15T20:20:19.000Z</time>
      </trkpt>
      <trkpt lat="48.88371" lon="2.32802">
        <ele>69.400001525879</ele>
        <time>2016-02-15T20:20:23.000Z</time>
      </trkpt>
      <trkpt lat="48.88361" lon="2.32781">
        <ele>68.800003051758</ele>
        <time>2016-02-15T20:20:27.000Z</time>
      </trkpt>
      <trkpt lat="48.88352" lon="2.32768">
        <ele>68.599998474121</ele>
        <time>2016-02-15T20:20:30.000Z</time>
      </trkpt>
      <trkpt lat="48.88347" lon="2.32752">
        <ele>68.199996948242</ele>
        <time>2016-02-15T20:20:33.000Z</time>
      </trkpt>
      <trkpt lat="48.88342" lon="2.32739">
        <ele>68.400001525879</ele>
        <time>2016-02-15T20:20:35.000Z</time>
      </trkpt>
      <trkpt lat="48.8834" lon="2.32723">
        <ele>68.800003051758</ele>
        <time>2016-02-15T20:20:37.000Z</time>
      </trkpt>
      <trkpt lat="48.88335" lon="2.32691">
        <ele>69.400001525879</ele>
        <time>2016-02-15T20:20:41.000Z</time>
      </trkpt>
      <trkpt lat="48.88328" lon="2.32657">
        <ele>69.800003051758</ele>
        <time>2016-02-15T20:20:45.000Z</time>
      </trkpt>
      <trkpt lat="48.88325" lon="2.32648">
        <ele>69.800003051758</ele>
        <time>2016-02-15T20:20:46.000Z</time>
      </trkpt>
      <trkpt lat="48.8832" lon="2.32619">
        <ele>69.599998474121</ele>
        <time>2016-02-15T20:20:49.000Z</time>
      </trkpt>
      <trkpt lat="48.88311" lon="2.32593">
        <ele>69.800003051758</ele>
        <time>2016-02-15T20:20:52.000Z</time>
      </trkpt>
      <trkpt lat="48.88306" lon="2.32564">
        <ele>69.800003051758</ele>
        <time>2016-02-15T20:20:55.000Z</time>
      </trkpt>
      <trkpt lat="48.883" lon="2.32536">
        <ele>69.400001525879</ele>
        <time>2016-02-15T20:20:58.000Z</time>
      </trkpt>
      <trkpt lat="48.88294" lon="2.32507">
        <ele>68.400001525879</ele>
        <time>2016-02-15T20:21:01.000Z</time>
      </trkpt>
      <trkpt lat="48.88293" lon="2.32496">
        <ele>67.800003051758</ele>
        <time>2016-02-15T20:21:02.000Z</time>
      </trkpt>
      <trkpt lat="48.88287" lon="2.32468">
        <ele>66.800003051758</ele>
        <time>2016-02-15T20:21:05.000Z</time>
      </trkpt>
      <trkpt lat="48.88283" lon="2.32437">
        <ele>65.599998474121</ele>
        <time>2016-02-15T20:21:08.000Z</time>
      </trkpt>
      <trkpt lat="48.88278" lon="2.32408">
        <ele>64.599998474121</ele>
        <time>2016-02-15T20:21:11.000Z</time>
      </trkpt>
      <trkpt lat="48.88273" lon="2.3238">
        <ele>64.599998474121</ele>
        <time>2016-02-15T20:21:14.000Z</time>
      </trkpt>
      <trkpt lat="48.88268" lon="2.32352">
        <ele>64.400001525879</ele>
        <time>2016-02-15T20:21:17.000Z</time>
      </trkpt>
      <trkpt lat="48.88264" lon="2.32323">
        <ele>64</ele>
        <time>2016-02-15T20:21:20.000Z</time>
      </trkpt>
      <trkpt lat="48.88258" lon="2.32289">
        <ele>63.400001525879</ele>
        <time>2016-02-15T20:21:24.000Z</time>
      </trkpt>
      <trkpt lat="48.8825" lon="2.32259">
        <ele>62.799999237061</ele>
        <time>2016-02-15T20:21:28.000Z</time>
      </trkpt>
      <trkpt lat="48.8824" lon="2.32232">
        <ele>61.599998474121</ele>
        <time>2016-02-15T20:21:32.000Z</time>
      </trkpt>
      <trkpt lat="48.88232" lon="2.32204">
        <ele>59.400001525879</ele>
        <time>2016-02-15T20:21:36.000Z</time>
      </trkpt>
      <trkpt lat="48.88228" lon="2.32175">
        <ele>58</ele>
        <time>2016-02-15T20:21:40.000Z</time>
      </trkpt>
      <trkpt lat="48.88223" lon="2.32147">
        <ele>56.200000762939</ele>
        <time>2016-02-15T20:21:44.000Z</time>
      </trkpt>
      <trkpt lat="48.88217" lon="2.32123">
        <ele>54.400001525879</ele>
        <time>2016-02-15T20:21:48.000Z</time>
      </trkpt>
      <trkpt lat="48.88214" lon="2.32103">
        <ele>53</ele>
        <time>2016-02-15T20:21:51.000Z</time>
      </trkpt>
      <trkpt lat="48.88215" lon="2.32069">
        <ele>52.400001525879</ele>
        <time>2016-02-15T20:21:56.000Z</time>
      </trkpt>
      <trkpt lat="48.88215" lon="2.32059">
        <ele>52.799999237061</ele>
        <time>2016-02-15T20:21:58.000Z</time>
      </trkpt>
      <trkpt lat="48.88215" lon="2.32042">
        <ele>53.200000762939</ele>
        <time>2016-02-15T20:22:02.000Z</time>
      </trkpt>
      <trkpt lat="48.88212" lon="2.3203">
        <ele>53.200000762939</ele>
        <time>2016-02-15T20:22:05.000Z</time>
      </trkpt>
      <trkpt lat="48.88206" lon="2.32016">
        <ele>53.400001525879</ele>
        <time>2016-02-15T20:22:08.000Z</time>
      </trkpt>
      <trkpt lat="48.88202" lon="2.32006">
        <ele>53.400001525879</ele>
        <time>2016-02-15T20:22:10.000Z</time>
      </trkpt>
      <trkpt lat="48.88197" lon="2.31996">
        <ele>53.599998474121</ele>
        <time>2016-02-15T20:22:12.000Z</time>
      </trkpt>
      <trkpt lat="48.88189" lon="2.31972">
        <ele>55.400001525879</ele>
        <time>2016-02-15T20:22:16.000Z</time>
      </trkpt>
      <trkpt lat="48.88183" lon="2.31962">
        <ele>56.799999237061</ele>
        <time>2016-02-15T20:22:18.000Z</time>
      </trkpt>
      <trkpt lat="48.88178" lon="2.31932">
        <ele>59.799999237061</ele>
        <time>2016-02-15T20:22:22.000Z</time>
      </trkpt>
      <trkpt lat="48.88173" lon="2.31911">
        <ele>61.799999237061</ele>
        <time>2016-02-15T20:22:25.000Z</time>
      </trkpt>
      <trkpt lat="48.88168" lon="2.31889">
        <ele>62.599998474121</ele>
        <time>2016-02-15T20:22:28.000Z</time>
      </trkpt>
      <trkpt lat="48.88161" lon="2.31861">
        <ele>63.599998474121</ele>
        <time>2016-02-15T20:22:32.000Z</time>
      </trkpt>
      <trkpt lat="48.88159" lon="2.31854">
        <ele>64</ele>
        <time>2016-02-15T20:22:33.000Z</time>
      </trkpt>
      <trkpt lat="48.88158" lon="2.31846">
        <ele>64.199996948242</ele>
        <time>2016-02-15T20:22:34.000Z</time>
      </trkpt>
      <trkpt lat="48.88152" lon="2.31818">
        <ele>64.599998474121</ele>
        <time>2016-02-15T20:22:38.000Z</time>
      </trkpt>
      <trkpt lat="48.88149" lon="2.31812">
        <ele>64.400001525879</ele>
        <time>2016-02-15T20:22:39.000Z</time>
      </trkpt>
      <trkpt lat="48.88144" lon="2.31785">
        <ele>64.199996948242</ele>
        <time>2016-02-15T20:22:44.000Z</time>
      </trkpt>
      <trkpt lat="48.88144" lon="2.31782">
        <ele>64</ele>
        <time>2016-02-15T20:22:45.000Z</time>
      </trkpt>
      <trkpt lat="48.88146" lon="2.3178">
        <ele>64</ele>
        <time>2016-02-15T20:22:51.000Z</time>
      </trkpt>
      <trkpt lat="48.88146" lon="2.31782">
        <ele>64</ele>
        <time>2016-02-15T20:22:52.000Z</time>
      </trkpt>
      <trkpt lat="48.88145" lon="2.3179">
        <ele>64.199996948242</ele>
        <time>2016-02-15T20:22:57.000Z</time>
      </trkpt>
      <trkpt lat="48.88145" lon="2.3179">
        <ele>64.199996948242</ele>
        <time>2016-02-15T20:23:01.000Z</time>
      </trkpt>
      <trkpt lat="48.88169" lon="2.31763">
        <ele>63</ele>
        <time>2016-02-15T20:23:08.000Z</time>
      </trkpt>
      <trkpt lat="48.88176" lon="2.31756">
        <ele>62.599998474121</ele>
        <time>2016-02-15T20:23:10.000Z</time>
      </trkpt>
      <trkpt lat="48.88191" lon="2.31739">
        <ele>61.799999237061</ele>
        <time>2016-02-15T20:23:14.000Z</time>
      </trkpt>
      <trkpt lat="48.88197" lon="2.31735">
        <ele>61.799999237061</ele>
        <time>2016-02-15T20:23:16.000Z</time>
      </trkpt>
      <trkpt lat="48.88216" lon="2.31731">
        <ele>61.400001525879</ele>
        <time>2016-02-15T20:23:23.000Z</time>
      </trkpt>
      <trkpt lat="48.88234" lon="2.3172">
        <ele>61.200000762939</ele>
        <time>2016-02-15T20:23:31.000Z</time>
      </trkpt>
      <trkpt lat="48.8825" lon="2.31717">
        <ele>61</ele>
        <time>2016-02-15T20:23:37.000Z</time>
      </trkpt>
      <trkpt lat="48.8826" lon="2.317">
        <ele>60.599998474121</ele>
        <time>2016-02-15T20:23:56.000Z</time>
      </trkpt>
      <trkpt lat="48.8825" lon="2.31676">
        <ele>60.400001525879</ele>
        <time>2016-02-15T20:24:02.000Z</time>
      </trkpt>
      <trkpt lat="48.88238" lon="2.31651">
        <ele>60.799999237061</ele>
        <time>2016-02-15T20:24:08.000Z</time>
      </trkpt>
      <trkpt lat="48.88224" lon="2.31632">
        <ele>61.400001525879</ele>
        <time>2016-02-15T20:24:14.000Z</time>
      </trkpt>
      <trkpt lat="48.8821" lon="2.31612">
        <ele>62</ele>
        <time>2016-02-15T20:24:19.000Z</time>
      </trkpt>
      <trkpt lat="48.88208" lon="2.31587">
        <ele>62.200000762939</ele>
        <time>2016-02-15T20:24:24.000Z</time>
      </trkpt>
      <trkpt lat="48.88224" lon="2.31564">
        <ele>61.400001525879</ele>
        <time>2016-02-15T20:24:28.000Z</time>
      </trkpt>
      <trkpt lat="48.88236" lon="2.31542">
        <ele>60.799999237061</ele>
        <time>2016-02-15T20:24:34.000Z</time>
      </trkpt>
      <trkpt lat="48.88243" lon="2.31534">
        <ele>60.599998474121</ele>
        <time>2016-02-15T20:24:37.000Z</time>
      </trkpt>
      <trkpt lat="48.88259" lon="2.31518">
        <ele>60.200000762939</ele>
        <time>2016-02-15T20:24:45.000Z</time>
      </trkpt>
      <trkpt lat="48.88271" lon="2.31494">
        <ele>60.200000762939</ele>
        <time>2016-02-15T20:24:52.000Z</time>
      </trkpt>
      <trkpt lat="48.88289" lon="2.31487">
        <ele>59.799999237061</ele>
        <time>2016-02-15T20:25:00.000Z</time>
      </trkpt>
      <trkpt lat="48.88306" lon="2.31475">
        <ele>59.400001525879</ele>
        <time>2016-02-15T20:25:07.000Z</time>
      </trkpt>
      <trkpt lat="48.88323" lon="2.31465">
        <ele>59.200000762939</ele>
        <time>2016-02-15T20:25:13.000Z</time>
      </trkpt>
      <trkpt lat="48.88341" lon="2.31453">
        <ele>59</ele>
        <time>2016-02-15T20:25:19.000Z</time>
      </trkpt>
      <trkpt lat="48.88354" lon="2.31429">
        <ele>58.799999237061</ele>
        <time>2016-02-15T20:25:24.000Z</time>
      </trkpt>
      <trkpt lat="48.88361" lon="2.31388">
        <ele>59</ele>
        <time>2016-02-15T20:25:26.000Z</time>
      </trkpt>
      <trkpt lat="48.88371" lon="2.31367">
        <ele>59</ele>
        <time>2016-02-15T20:25:31.000Z</time>
      </trkpt>
      <trkpt lat="48.88357" lon="2.31352">
        <ele>59</ele>
        <time>2016-02-15T20:25:43.000Z</time>
      </trkpt>
      <trkpt lat="48.88339" lon="2.31338">
        <ele>59.200000762939</ele>
        <time>2016-02-15T20:25:51.000Z</time>
      </trkpt>
      <trkpt lat="48.88335" lon="2.31321">
        <ele>59.200000762939</ele>
        <time>2016-02-15T20:25:56.000Z</time>
      </trkpt>
      <trkpt lat="48.88345" lon="2.31298">
        <ele>59.200000762939</ele>
        <time>2016-02-15T20:26:02.000Z</time>
      </trkpt>
      <trkpt lat="48.88357" lon="2.31283">
        <ele>59.599998474121</ele>
        <time>2016-02-15T20:26:05.000Z</time>
      </trkpt>
      <trkpt lat="48.88375" lon="2.31257">
        <ele>59.599998474121</ele>
        <time>2016-02-15T20:26:09.000Z</time>
      </trkpt>
      <trkpt lat="48.88389" lon="2.31236">
        <ele>59</ele>
        <time>2016-02-15T20:26:13.000Z</time>
      </trkpt>
      <trkpt lat="48.88402" lon="2.31208">
        <ele>58</ele>
        <time>2016-02-15T20:26:18.000Z</time>
      </trkpt>
      <trkpt lat="48.88414" lon="2.31188">
        <ele>57.200000762939</ele>
        <time>2016-02-15T20:26:22.000Z</time>
      </trkpt>
      <trkpt lat="48.88425" lon="2.31174">
        <ele>56.599998474121</ele>
        <time>2016-02-15T20:26:25.000Z</time>
      </trkpt>
      <trkpt lat="48.8844" lon="2.31155">
        <ele>55.799999237061</ele>
        <time>2016-02-15T20:26:29.000Z</time>
      </trkpt>
      <trkpt lat="48.88454" lon="2.31134">
        <ele>55.400001525879</ele>
        <time>2016-02-15T20:26:33.000Z</time>
      </trkpt>
      <trkpt lat="48.88458" lon="2.3113">
        <ele>55.400001525879</ele>
        <time>2016-02-15T20:26:34.000Z</time>
      </trkpt>
      <trkpt lat="48.88472" lon="2.31112">
        <ele>55.200000762939</ele>
        <time>2016-02-15T20:26:38.000Z</time>
      </trkpt>
      <trkpt lat="48.88488" lon="2.31088">
        <ele>54.799999237061</ele>
        <time>2016-02-15T20:26:43.000Z</time>
      </trkpt>
      <trkpt lat="48.88502" lon="2.31067">
        <ele>54.799999237061</ele>
        <time>2016-02-15T20:26:48.000Z</time>
      </trkpt>
      <trkpt lat="48.88511" lon="2.31058">
        <ele>55</ele>
        <time>2016-02-15T20:26:51.000Z</time>
      </trkpt>
      <trkpt lat="48.88517" lon="2.31051">
        <ele>55.200000762939</ele>
        <time>2016-02-15T20:26:53.000Z</time>
      </trkpt>
      <trkpt lat="48.88534" lon="2.31032">
        <ele>55.599998474121</ele>
        <time>2016-02-15T20:26:58.000Z</time>
      </trkpt>
      <trkpt lat="48.88537" lon="2.31029">
        <ele>55.799999237061</ele>
        <time>2016-02-15T20:26:59.000Z</time>
      </trkpt>
      <trkpt lat="48.88554" lon="2.31008">
        <ele>55.599998474121</ele>
        <time>2016-02-15T20:27:04.000Z</time>
      </trkpt>
      <trkpt lat="48.88569" lon="2.30987">
        <ele>55.200000762939</ele>
        <time>2016-02-15T20:27:09.000Z</time>
      </trkpt>
      <trkpt lat="48.88573" lon="2.30983">
        <ele>55.200000762939</ele>
        <time>2016-02-15T20:27:10.000Z</time>
      </trkpt>
      <trkpt lat="48.88587" lon="2.30965">
        <ele>55.599998474121</ele>
        <time>2016-02-15T20:27:15.000Z</time>
      </trkpt>
      <trkpt lat="48.88603" lon="2.30946">
        <ele>56.400001525879</ele>
        <time>2016-02-15T20:27:20.000Z</time>
      </trkpt>
      <trkpt lat="48.8862" lon="2.30925">
        <ele>57.400001525879</ele>
        <time>2016-02-15T20:27:25.000Z</time>
      </trkpt>
      <trkpt lat="48.88635" lon="2.30902">
        <ele>56.799999237061</ele>
        <time>2016-02-15T20:27:30.000Z</time>
      </trkpt>
      <trkpt lat="48.88651" lon="2.30881">
        <ele>56</ele>
        <time>2016-02-15T20:27:35.000Z</time>
      </trkpt>
      <trkpt lat="48.88668" lon="2.3086">
        <ele>55.599998474121</ele>
        <time>2016-02-15T20:27:40.000Z</time>
      </trkpt>
      <trkpt lat="48.88684" lon="2.30836">
        <ele>55.200000762939</ele>
        <time>2016-02-15T20:27:45.000Z</time>
      </trkpt>
      <trkpt lat="48.88688" lon="2.30832">
        <ele>55</ele>
        <time>2016-02-15T20:27:46.000Z</time>
      </trkpt>
      <trkpt lat="48.88703" lon="2.30816">
        <ele>54.400001525879</ele>
        <time>2016-02-15T20:27:50.000Z</time>
      </trkpt>
      <trkpt lat="48.8871" lon="2.30808">
        <ele>54</ele>
        <time>2016-02-15T20:27:52.000Z</time>
      </trkpt>
      <trkpt lat="48.8872" lon="2.30797">
        <ele>53.400001525879</ele>
        <time>2016-02-15T20:27:55.000Z</time>
      </trkpt>
      <trkpt lat="48.88735" lon="2.30773">
        <ele>51.599998474121</ele>
        <time>2016-02-15T20:28:00.000Z</time>
      </trkpt>
      <trkpt lat="48.88747" lon="2.30751">
        <ele>49.200000762939</ele>
        <time>2016-02-15T20:28:05.000Z</time>
      </trkpt>
      <trkpt lat="48.88754" lon="2.30732">
        <ele>48.400001525879</ele>
        <time>2016-02-15T20:28:10.000Z</time>
      </trkpt>
      <trkpt lat="48.88762" lon="2.30721">
        <ele>47.599998474121</ele>
        <time>2016-02-15T20:28:15.000Z</time>
      </trkpt>
      <trkpt lat="48.88776" lon="2.30704">
        <ele>46.400001525879</ele>
        <time>2016-02-15T20:28:23.000Z</time>
      </trkpt>
      <trkpt lat="48.88775" lon="2.30673">
        <ele>46</ele>
        <time>2016-02-15T20:28:30.000Z</time>
      </trkpt>
      <trkpt lat="48.8877" lon="2.30654">
        <ele>46.400001525879</ele>
        <time>2016-02-15T20:28:34.000Z</time>
      </trkpt>
      <trkpt lat="48.88765" lon="2.30636">
        <ele>47.400001525879</ele>
        <time>2016-02-15T20:28:38.000Z</time>
      </trkpt>
      <trkpt lat="48.88756" lon="2.30612">
        <ele>48.799999237061</ele>
        <time>2016-02-15T20:28:44.000Z</time>
      </trkpt>
      <trkpt lat="48.88748" lon="2.30585">
        <ele>50</ele>
        <time>2016-02-15T20:28:49.000Z</time>
      </trkpt>
      <trkpt lat="48.88738" lon="2.30557">
        <ele>50.200000762939</ele>
        <time>2016-02-15T20:28:54.000Z</time>
      </trkpt>
      <trkpt lat="48.88728" lon="2.30531">
        <ele>50.200000762939</ele>
        <time>2016-02-15T20:28:59.000Z</time>
      </trkpt>
      <trkpt lat="48.88741" lon="2.3049">
        <ele>48.799999237061</ele>
        <time>2016-02-15T20:29:03.000Z</time>
      </trkpt>
      <trkpt lat="48.88747" lon="2.30459">
        <ele>48.400001525879</ele>
        <time>2016-02-15T20:29:07.000Z</time>
      </trkpt>
      <trkpt lat="48.88745" lon="2.30432">
        <ele>48.799999237061</ele>
        <time>2016-02-15T20:29:12.000Z</time>
      </trkpt>
      <trkpt lat="48.8874" lon="2.30403">
        <ele>49</ele>
        <time>2016-02-15T20:29:17.000Z</time>
      </trkpt>
      <trkpt lat="48.88731" lon="2.30373">
        <ele>49</ele>
        <time>2016-02-15T20:29:22.000Z</time>
      </trkpt>
      <trkpt lat="48.88725" lon="2.30347">
        <ele>50</ele>
        <time>2016-02-15T20:29:26.000Z</time>
      </trkpt>
      <trkpt lat="48.88719" lon="2.30327">
        <ele>50.599998474121</ele>
        <time>2016-02-15T20:29:29.000Z</time>
      </trkpt>
      <trkpt lat="48.8871" lon="2.303">
        <ele>50.400001525879</ele>
        <time>2016-02-15T20:29:33.000Z</time>
      </trkpt>
      <trkpt lat="48.88709" lon="2.30292">
        <ele>50.400001525879</ele>
        <time>2016-02-15T20:29:34.000Z</time>
      </trkpt>
      <trkpt lat="48.88699" lon="2.30263">
        <ele>50.200000762939</ele>
        <time>2016-02-15T20:29:38.000Z</time>
      </trkpt>
      <trkpt lat="48.88691" lon="2.30235">
        <ele>49.599998474121</ele>
        <time>2016-02-15T20:29:42.000Z</time>
      </trkpt>
      <trkpt lat="48.88688" lon="2.3022">
        <ele>49.200000762939</ele>
        <time>2016-02-15T20:29:44.000Z</time>
      </trkpt>
      <trkpt lat="48.88681" lon="2.30194">
        <ele>48.599998474121</ele>
        <time>2016-02-15T20:29:48.000Z</time>
      </trkpt>
      <trkpt lat="48.88679" lon="2.30189">
        <ele>48.400001525879</ele>
        <time>2016-02-15T20:29:49.000Z</time>
      </trkpt>
      <trkpt lat="48.88672" lon="2.30167">
        <ele>48</ele>
        <time>2016-02-15T20:29:53.000Z</time>
      </trkpt>
      <trkpt lat="48.88678" lon="2.30132">
        <ele>47.599998474121</ele>
        <time>2016-02-15T20:29:58.000Z</time>
      </trkpt>
      <trkpt lat="48.8869" lon="2.30115">
        <ele>47.599998474121</ele>
        <time>2016-02-15T20:30:01.000Z</time>
      </trkpt>
      <trkpt lat="48.88697" lon="2.30107">
        <ele>48</ele>
        <time>2016-02-15T20:30:03.000Z</time>
      </trkpt>
      <trkpt lat="48.88709" lon="2.30092">
        <ele>48.599998474121</ele>
        <time>2016-02-15T20:30:07.000Z</time>
      </trkpt>
      <trkpt lat="48.88724" lon="2.30076">
        <ele>49.799999237061</ele>
        <time>2016-02-15T20:30:13.000Z</time>
      </trkpt>
      <trkpt lat="48.88733" lon="2.30062">
        <ele>50.200000762939</ele>
        <time>2016-02-15T20:30:17.000Z</time>
      </trkpt>
      <trkpt lat="48.88743" lon="2.3005">
        <ele>51</ele>
        <time>2016-02-15T20:30:21.000Z</time>
      </trkpt>
      <trkpt lat="48.88758" lon="2.30028">
        <ele>51.400001525879</ele>
        <time>2016-02-15T20:30:27.000Z</time>
      </trkpt>
      <trkpt lat="48.88761" lon="2.30024">
        <ele>51.599998474121</ele>
        <time>2016-02-15T20:30:28.000Z</time>
      </trkpt>
      <trkpt lat="48.88769" lon="2.30012">
        <ele>51.799999237061</ele>
        <time>2016-02-15T20:30:31.000Z</time>
      </trkpt>
      <trkpt lat="48.88783" lon="2.2999">
        <ele>50.799999237061</ele>
        <time>2016-02-15T20:30:36.000Z</time>
      </trkpt>
      <trkpt lat="48.88798" lon="2.29971">
        <ele>48</ele>
        <time>2016-02-15T20:30:43.000Z</time>
      </trkpt>
      <trkpt lat="48.88803" lon="2.29967">
        <ele>47.400001525879</ele>
        <time>2016-02-15T20:30:46.000Z</time>
      </trkpt>
      <trkpt lat="48.88814" lon="2.29971">
        <ele>47</ele>
        <time>2016-02-15T20:30:54.000Z</time>
      </trkpt>
      <trkpt lat="48.88816" lon="2.29969">
        <ele>46.799999237061</ele>
        <time>2016-02-15T20:30:56.000Z</time>
      </trkpt>
      <trkpt lat="48.88816" lon="2.29969">
        <ele>46.799999237061</ele>
        <time>2016-02-15T20:30:58.000Z</time>
      </trkpt>
      <trkpt lat="48.88821" lon="2.29963">
        <ele>45.799999237061</ele>
        <time>2016-02-15T20:31:21.000Z</time>
      </trkpt>
      <trkpt lat="48.88827" lon="2.29956">
        <ele>45.599998474121</ele>
        <time>2016-02-15T20:31:25.000Z</time>
      </trkpt>
      <trkpt lat="48.88841" lon="2.29936">
        <ele>45.400001525879</ele>
        <time>2016-02-15T20:31:33.000Z</time>
      </trkpt>
      <trkpt lat="48.88841" lon="2.2992">
        <ele>45</ele>
        <time>2016-02-15T20:31:37.000Z</time>
      </trkpt>
      <trkpt lat="48.88837" lon="2.29908">
        <ele>44.599998474121</ele>
        <time>2016-02-15T20:31:41.000Z</time>
      </trkpt>
      <trkpt lat="48.88835" lon="2.29906">
        <ele>44.400001525879</ele>
        <time>2016-02-15T20:31:42.000Z</time>
      </trkpt>
      <trkpt lat="48.88827" lon="2.2989">
        <ele>43.799999237061</ele>
        <time>2016-02-15T20:31:47.000Z</time>
      </trkpt>
      <trkpt lat="48.88822" lon="2.29878">
        <ele>43.400001525879</ele>
        <time>2016-02-15T20:31:51.000Z</time>
      </trkpt>
      <trkpt lat="48.88809" lon="2.29855">
        <ele>42.400001525879</ele>
        <time>2016-02-15T20:31:57.000Z</time>
      </trkpt>
      <trkpt lat="48.88794" lon="2.29834">
        <ele>41.599998474121</ele>
        <time>2016-02-15T20:32:03.000Z</time>
      </trkpt>
      <trkpt lat="48.88781" lon="2.29813">
        <ele>41.400001525879</ele>
        <time>2016-02-15T20:32:10.000Z</time>
      </trkpt>
      <trkpt lat="48.8878" lon="2.29806">
        <ele>41.400001525879</ele>
        <time>2016-02-15T20:32:13.000Z</time>
      </trkpt>
      <trkpt lat="48.88794" lon="2.29782">
        <ele>42</ele>
        <time>2016-02-15T20:32:27.000Z</time>
      </trkpt>
      <trkpt lat="48.88806" lon="2.29763">
        <ele>41.799999237061</ele>
        <time>2016-02-15T20:32:35.000Z</time>
      </trkpt>
      <trkpt lat="48.88806" lon="2.29754">
        <ele>41.400001525879</ele>
        <time>2016-02-15T20:32:40.000Z</time>
      </trkpt>
      <trkpt lat="48.88804" lon="2.29748">
        <ele>41.400001525879</ele>
        <time>2016-02-15T20:32:42.000Z</time>
      </trkpt>
      <trkpt lat="48.88802" lon="2.29739">
        <ele>41.599998474121</ele>
        <time>2016-02-15T20:32:48.000Z</time>
      </trkpt>
      <trkpt lat="48.88784" lon="2.29737">
        <ele>42</ele>
        <time>2016-02-15T20:32:57.000Z</time>
      </trkpt>
      <trkpt lat="48.88767" lon="2.29721">
        <ele>43</ele>
        <time>2016-02-15T20:33:03.000Z</time>
      </trkpt>
      <trkpt lat="48.88751" lon="2.29708">
        <ele>43.599998474121</ele>
        <time>2016-02-15T20:33:09.000Z</time>
      </trkpt>
      <trkpt lat="48.88742" lon="2.297">
        <ele>44</ele>
        <time>2016-02-15T20:33:15.000Z</time>
      </trkpt>
      <trkpt lat="48.88747" lon="2.29684">
        <ele>44.599998474121</ele>
        <time>2016-02-15T20:33:29.000Z</time>
      </trkpt>
      <trkpt lat="48.8877" lon="2.29668">
        <ele>44.799999237061</ele>
        <time>2016-02-15T20:33:33.000Z</time>
      </trkpt>
      <trkpt lat="48.88785" lon="2.29645">
        <ele>44</ele>
        <time>2016-02-15T20:33:37.000Z</time>
      </trkpt>
      <trkpt lat="48.88787" lon="2.2964">
        <ele>43.599998474121</ele>
        <time>2016-02-15T20:33:38.000Z</time>
      </trkpt>
      <trkpt lat="48.88792" lon="2.29631">
        <ele>43.200000762939</ele>
        <time>2016-02-15T20:33:40.000Z</time>
      </trkpt>
      <trkpt lat="48.88791" lon="2.296">
        <ele>43.200000762939</ele>
        <time>2016-02-15T20:33:45.000Z</time>
      </trkpt>
      <trkpt lat="48.88777" lon="2.29583">
        <ele>44.599998474121</ele>
        <time>2016-02-15T20:33:50.000Z</time>
      </trkpt>
      <trkpt lat="48.88767" lon="2.29559">
        <ele>44.599998474121</ele>
        <time>2016-02-15T20:33:57.000Z</time>
      </trkpt>
      <trkpt lat="48.88762" lon="2.29542">
        <ele>44.200000762939</ele>
        <time>2016-02-15T20:34:00.000Z</time>
      </trkpt>
      <trkpt lat="48.8876" lon="2.29531">
        <ele>44</ele>
        <time>2016-02-15T20:34:02.000Z</time>
      </trkpt>
      <trkpt lat="48.88753" lon="2.29504">
        <ele>43.400001525879</ele>
        <time>2016-02-15T20:34:08.000Z</time>
      </trkpt>
      <trkpt lat="48.88754" lon="2.2949">
        <ele>42.799999237061</ele>
        <time>2016-02-15T20:34:12.000Z</time>
      </trkpt>
      <trkpt lat="48.8876" lon="2.29479">
        <ele>41.799999237061</ele>
        <time>2016-02-15T20:34:16.000Z</time>
      </trkpt>
      <trkpt lat="48.88778" lon="2.2946">
        <ele>39.400001525879</ele>
        <time>2016-02-15T20:34:21.000Z</time>
      </trkpt>
      <trkpt lat="48.88793" lon="2.29442">
        <ele>37.799999237061</ele>
        <time>2016-02-15T20:34:25.000Z</time>
      </trkpt>
      <trkpt lat="48.88807" lon="2.29425">
        <ele>37.799999237061</ele>
        <time>2016-02-15T20:34:29.000Z</time>
      </trkpt>
      <trkpt lat="48.88822" lon="2.29407">
        <ele>37.799999237061</ele>
        <time>2016-02-15T20:34:33.000Z</time>
      </trkpt>
      <trkpt lat="48.88838" lon="2.29393">
        <ele>37.599998474121</ele>
        <time>2016-02-15T20:34:37.000Z</time>
      </trkpt>
      <trkpt lat="48.88853" lon="2.29377">
        <ele>38</ele>
        <time>2016-02-15T20:34:41.000Z</time>
      </trkpt>
      <trkpt lat="48.88856" lon="2.29373">
        <ele>38</ele>
        <time>2016-02-15T20:34:42.000Z</time>
      </trkpt>
      <trkpt lat="48.88873" lon="2.29358">
        <ele>39</ele>
        <time>2016-02-15T20:34:47.000Z</time>
      </trkpt>
      <trkpt lat="48.88889" lon="2.29343">
        <ele>39.799999237061</ele>
        <time>2016-02-15T20:34:52.000Z</time>
      </trkpt>
      <trkpt lat="48.88904" lon="2.29328">
        <ele>40.200000762939</ele>
        <time>2016-02-15T20:34:56.000Z</time>
      </trkpt>
      <trkpt lat="48.8892" lon="2.29312">
        <ele>40.599998474121</ele>
        <time>2016-02-15T20:35:00.000Z</time>
      </trkpt>
      <trkpt lat="48.88937" lon="2.29294">
        <ele>39.799999237061</ele>
        <time>2016-02-15T20:35:04.000Z</time>
      </trkpt>
      <trkpt lat="48.88955" lon="2.29274">
        <ele>38.400001525879</ele>
        <time>2016-02-15T20:35:08.000Z</time>
      </trkpt>
      <trkpt lat="48.88974" lon="2.29253">
        <ele>38.200000762939</ele>
        <time>2016-02-15T20:35:12.000Z</time>
      </trkpt>
      <trkpt lat="48.88989" lon="2.29236">
        <ele>38.799999237061</ele>
        <time>2016-02-15T20:35:16.000Z</time>
      </trkpt>
      <trkpt lat="48.88993" lon="2.29232">
        <ele>39</ele>
        <time>2016-02-15T20:35:17.000Z</time>
      </trkpt>
      <trkpt lat="48.89008" lon="2.29215">
        <ele>39.400001525879</ele>
        <time>2016-02-15T20:35:21.000Z</time>
      </trkpt>
      <trkpt lat="48.89023" lon="2.29198">
        <ele>40</ele>
        <time>2016-02-15T20:35:26.000Z</time>
      </trkpt>
      <trkpt lat="48.89029" lon="2.2919">
        <ele>40</ele>
        <time>2016-02-15T20:35:28.000Z</time>
      </trkpt>
      <trkpt lat="48.89046" lon="2.2917">
        <ele>39.799999237061</ele>
        <time>2016-02-15T20:35:34.000Z</time>
      </trkpt>
      <trkpt lat="48.89062" lon="2.29154">
        <ele>39.799999237061</ele>
        <time>2016-02-15T20:35:40.000Z</time>
      </trkpt>
      <trkpt lat="48.89073" lon="2.29147">
        <ele>39.799999237061</ele>
        <time>2016-02-15T20:35:44.000Z</time>
      </trkpt>
      <trkpt lat="48.89083" lon="2.29136">
        <ele>39.799999237061</ele>
        <time>2016-02-15T20:35:48.000Z</time>
      </trkpt>
      <trkpt lat="48.89099" lon="2.29123">
        <ele>39.599998474121</ele>
        <time>2016-02-15T20:35:53.000Z</time>
      </trkpt>
      <trkpt lat="48.89116" lon="2.29106">
        <ele>39.599998474121</ele>
        <time>2016-02-15T20:35:58.000Z</time>
      </trkpt>
      <trkpt lat="48.89134" lon="2.29087">
        <ele>39.400001525879</ele>
        <time>2016-02-15T20:36:03.000Z</time>
      </trkpt>
      <trkpt lat="48.89151" lon="2.29072">
        <ele>39</ele>
        <time>2016-02-15T20:36:07.000Z</time>
      </trkpt>
      <trkpt lat="48.89168" lon="2.29057">
        <ele>38.599998474121</ele>
        <time>2016-02-15T20:36:11.000Z</time>
      </trkpt>
      <trkpt lat="48.89185" lon="2.29039">
        <ele>39.400001525879</ele>
        <time>2016-02-15T20:36:15.000Z</time>
      </trkpt>
      <trkpt lat="48.89202" lon="2.29024">
        <ele>40.200000762939</ele>
        <time>2016-02-15T20:36:19.000Z</time>
      </trkpt>
      <trkpt lat="48.8922" lon="2.29009">
        <ele>40.400001525879</ele>
        <time>2016-02-15T20:36:23.000Z</time>
      </trkpt>
      <trkpt lat="48.89237" lon="2.28993">
        <ele>40.400001525879</ele>
        <time>2016-02-15T20:36:27.000Z</time>
      </trkpt>
      <trkpt lat="48.89253" lon="2.28976">
        <ele>40</ele>
        <time>2016-02-15T20:36:31.000Z</time>
      </trkpt>
      <trkpt lat="48.8927" lon="2.28959">
        <ele>40.400001525879</ele>
        <time>2016-02-15T20:36:35.000Z</time>
      </trkpt>
      <trkpt lat="48.8929" lon="2.28942">
        <ele>40.599998474121</ele>
        <time>2016-02-15T20:36:40.000Z</time>
      </trkpt>
      <trkpt lat="48.89301" lon="2.28936">
        <ele>40.400001525879</ele>
        <time>2016-02-15T20:36:43.000Z</time>
      </trkpt>
      <trkpt lat="48.89319" lon="2.28919">
        <ele>39</ele>
        <time>2016-02-15T20:36:48.000Z</time>
      </trkpt>
      <trkpt lat="48.89336" lon="2.28906">
        <ele>37.799999237061</ele>
        <time>2016-02-15T20:36:52.000Z</time>
      </trkpt>
      <trkpt lat="48.89352" lon="2.28891">
        <ele>37.400001525879</ele>
        <time>2016-02-15T20:36:57.000Z</time>
      </trkpt>
      <trkpt lat="48.89368" lon="2.28875">
        <ele>37.200000762939</ele>
        <time>2016-02-15T20:37:01.000Z</time>
      </trkpt>
      <trkpt lat="48.89376" lon="2.28868">
        <ele>37</ele>
        <time>2016-02-15T20:37:03.000Z</time>
      </trkpt>
      <trkpt lat="48.89393" lon="2.28852">
        <ele>37.200000762939</ele>
        <time>2016-02-15T20:37:07.000Z</time>
      </trkpt>
      <trkpt lat="48.89413" lon="2.28834">
        <ele>37.799999237061</ele>
        <time>2016-02-15T20:37:11.000Z</time>
      </trkpt>
      <trkpt lat="48.8943" lon="2.28822">
        <ele>38.200000762939</ele>
        <time>2016-02-15T20:37:14.000Z</time>
      </trkpt>
      <trkpt lat="48.8945" lon="2.28806">
        <ele>37.799999237061</ele>
        <time>2016-02-15T20:37:18.000Z</time>
      </trkpt>
      <trkpt lat="48.89461" lon="2.28798">
        <ele>37.599998474121</ele>
        <time>2016-02-15T20:37:20.000Z</time>
      </trkpt>
      <trkpt lat="48.8947" lon="2.28788">
        <ele>37.200000762939</ele>
        <time>2016-02-15T20:37:22.000Z</time>
      </trkpt>
      <trkpt lat="48.8949" lon="2.28771">
        <ele>36.400001525879</ele>
        <time>2016-02-15T20:37:26.000Z</time>
      </trkpt>
      <trkpt lat="48.89511" lon="2.28754">
        <ele>35.599998474121</ele>
        <time>2016-02-15T20:37:30.000Z</time>
      </trkpt>
      <trkpt lat="48.89533" lon="2.28738">
        <ele>35.400001525879</ele>
        <time>2016-02-15T20:37:34.000Z</time>
      </trkpt>
      <trkpt lat="48.89553" lon="2.28722">
        <ele>36.400001525879</ele>
        <time>2016-02-15T20:37:38.000Z</time>
      </trkpt>
      <trkpt lat="48.89572" lon="2.28705">
        <ele>37.200000762939</ele>
        <time>2016-02-15T20:37:42.000Z</time>
      </trkpt>
      <trkpt lat="48.89591" lon="2.28688">
        <ele>37.599998474121</ele>
        <time>2016-02-15T20:37:46.000Z</time>
      </trkpt>
      <trkpt lat="48.89606" lon="2.28677">
        <ele>38</ele>
        <time>2016-02-15T20:37:49.000Z</time>
      </trkpt>
      <trkpt lat="48.89623" lon="2.28661">
        <ele>38</ele>
        <time>2016-02-15T20:37:53.000Z</time>
      </trkpt>
      <trkpt lat="48.89642" lon="2.28652">
        <ele>38.200000762939</ele>
        <time>2016-02-15T20:37:57.000Z</time>
      </trkpt>
      <trkpt lat="48.89648" lon="2.28648">
        <ele>38.400001525879</ele>
        <time>2016-02-15T20:38:00.000Z</time>
      </trkpt>
      <trkpt lat="48.89649" lon="2.28666">
        <ele>38</ele>
        <time>2016-02-15T20:38:05.000Z</time>
      </trkpt>
      <trkpt lat="48.89648" lon="2.28671">
        <ele>38.200000762939</ele>
        <time>2016-02-15T20:38:07.000Z</time>
      </trkpt>
      <trkpt lat="48.89643" lon="2.28648">
        <ele>38.400001525879</ele>
        <time>2016-02-15T20:38:25.000Z</time>
      </trkpt>
      <trkpt lat="48.89639" lon="2.28619">
        <ele>39</ele>
        <time>2016-02-15T20:38:31.000Z</time>
      </trkpt>
      <trkpt lat="48.89642" lon="2.28592">
        <ele>38</ele>
        <time>2016-02-15T20:38:36.000Z</time>
      </trkpt>
      <trkpt lat="48.89642" lon="2.28562">
        <ele>37.200000762939</ele>
        <time>2016-02-15T20:38:41.000Z</time>
      </trkpt>
      <trkpt lat="48.89642" lon="2.28543">
        <ele>37</ele>
        <time>2016-02-15T20:38:44.000Z</time>
      </trkpt>
      <trkpt lat="48.89643" lon="2.28513">
        <ele>36.799999237061</ele>
        <time>2016-02-15T20:38:48.000Z</time>
      </trkpt>
      <trkpt lat="48.89644" lon="2.28482">
        <ele>35.799999237061</ele>
        <time>2016-02-15T20:38:52.000Z</time>
      </trkpt>
      <trkpt lat="48.89644" lon="2.28448">
        <ele>33.400001525879</ele>
        <time>2016-02-15T20:38:57.000Z</time>
      </trkpt>
      <trkpt lat="48.89635" lon="2.28424">
        <ele>33.400001525879</ele>
        <time>2016-02-15T20:39:01.000Z</time>
      </trkpt>
      <trkpt lat="48.89623" lon="2.28404">
        <ele>33.200000762939</ele>
        <time>2016-02-15T20:39:05.000Z</time>
      </trkpt>
      <trkpt lat="48.89611" lon="2.28387">
        <ele>33</ele>
        <time>2016-02-15T20:39:09.000Z</time>
      </trkpt>
      <trkpt lat="48.89602" lon="2.28373">
        <ele>33</ele>
        <time>2016-02-15T20:39:12.000Z</time>
      </trkpt>
      <trkpt lat="48.89585" lon="2.28354">
        <ele>33.200000762939</ele>
        <time>2016-02-15T20:39:17.000Z</time>
      </trkpt>
      <trkpt lat="48.89584" lon="2.28349">
        <ele>33.200000762939</ele>
        <time>2016-02-15T20:39:18.000Z</time>
      </trkpt>
      <trkpt lat="48.8958" lon="2.28333">
        <ele>33.400001525879</ele>
        <time>2016-02-15T20:39:21.000Z</time>
      </trkpt>
      <trkpt lat="48.89571" lon="2.28309">
        <ele>33.200000762939</ele>
        <time>2016-02-15T20:39:26.000Z</time>
      </trkpt>
      <trkpt lat="48.89561" lon="2.28286">
        <ele>33</ele>
        <time>2016-02-15T20:39:31.000Z</time>
      </trkpt>
      <trkpt lat="48.89549" lon="2.28262">
        <ele>33.200000762939</ele>
        <time>2016-02-15T20:39:36.000Z</time>
      </trkpt>
      <trkpt lat="48.89538" lon="2.28236">
        <ele>33.400001525879</ele>
        <time>2016-02-15T20:39:41.000Z</time>
      </trkpt>
      <trkpt lat="48.8953" lon="2.28209">
        <ele>33.599998474121</ele>
        <time>2016-02-15T20:39:47.000Z</time>
      </trkpt>
      <trkpt lat="48.89521" lon="2.28182">
        <ele>33.799999237061</ele>
        <time>2016-02-15T20:39:53.000Z</time>
      </trkpt>
      <trkpt lat="48.89513" lon="2.28156">
        <ele>33.799999237061</ele>
        <time>2016-02-15T20:39:58.000Z</time>
      </trkpt>
      <trkpt lat="48.895" lon="2.28133">
        <ele>33.400001525879</ele>
        <time>2016-02-15T20:40:03.000Z</time>
      </trkpt>
      <trkpt lat="48.89487" lon="2.2811">
        <ele>33</ele>
        <time>2016-02-15T20:40:08.000Z</time>
      </trkpt>
      <trkpt lat="48.89474" lon="2.28084">
        <ele>32.400001525879</ele>
        <time>2016-02-15T20:40:13.000Z</time>
      </trkpt>
      <trkpt lat="48.89462" lon="2.28059">
        <ele>33</ele>
        <time>2016-02-15T20:40:18.000Z</time>
      </trkpt>
      <trkpt lat="48.89453" lon="2.28033">
        <ele>33.799999237061</ele>
        <time>2016-02-15T20:40:23.000Z</time>
      </trkpt>
      <trkpt lat="48.89441" lon="2.28008">
        <ele>34.599998474121</ele>
        <time>2016-02-15T20:40:28.000Z</time>
      </trkpt>
      <trkpt lat="48.89429" lon="2.27983">
        <ele>35</ele>
        <time>2016-02-15T20:40:33.000Z</time>
      </trkpt>
      <trkpt lat="48.89415" lon="2.27956">
        <ele>34.599998474121</ele>
        <time>2016-02-15T20:40:38.000Z</time>
      </trkpt>
      <trkpt lat="48.89406" lon="2.27926">
        <ele>34.200000762939</ele>
        <time>2016-02-15T20:40:43.000Z</time>
      </trkpt>
      <trkpt lat="48.89394" lon="2.27898">
        <ele>34.200000762939</ele>
        <time>2016-02-15T20:40:48.000Z</time>
      </trkpt>
      <trkpt lat="48.89385" lon="2.27873">
        <ele>34.799999237061</ele>
        <time>2016-02-15T20:40:52.000Z</time>
      </trkpt>
      <trkpt lat="48.89379" lon="2.27848">
        <ele>35.400001525879</ele>
        <time>2016-02-15T20:40:56.000Z</time>
      </trkpt>
      <trkpt lat="48.8937" lon="2.27822">
        <ele>36.200000762939</ele>
        <time>2016-02-15T20:41:00.000Z</time>
      </trkpt>
      <trkpt lat="48.89361" lon="2.27797">
        <ele>35.799999237061</ele>
        <time>2016-02-15T20:41:04.000Z</time>
      </trkpt>
      <trkpt lat="48.89352" lon="2.27771">
        <ele>35.200000762939</ele>
        <time>2016-02-15T20:41:08.000Z</time>
      </trkpt>
      <trkpt lat="48.89345" lon="2.27744">
        <ele>34.799999237061</ele>
        <time>2016-02-15T20:41:12.000Z</time>
      </trkpt>
      <trkpt lat="48.89337" lon="2.2772">
        <ele>35</ele>
        <time>2016-02-15T20:41:16.000Z</time>
      </trkpt>
      <trkpt lat="48.89334" lon="2.27709">
        <ele>35</ele>
        <time>2016-02-15T20:41:18.000Z</time>
      </trkpt>
      <trkpt lat="48.89325" lon="2.27688">
        <ele>35</ele>
        <time>2016-02-15T20:41:24.000Z</time>
      </trkpt>
      <trkpt lat="48.89322" lon="2.27677">
        <ele>35</ele>
        <time>2016-02-15T20:41:28.000Z</time>
      </trkpt>
      <trkpt lat="48.8933" lon="2.27654">
        <ele>35.200000762939</ele>
        <time>2016-02-15T20:41:53.000Z</time>
      </trkpt>
      <trkpt lat="48.8933" lon="2.27647">
        <ele>35.200000762939</ele>
        <time>2016-02-15T20:43:01.000Z</time>
      </trkpt>
      <trkpt lat="48.89318" lon="2.27624">
        <ele>35.400001525879</ele>
        <time>2016-02-15T20:43:08.000Z</time>
      </trkpt>
      <trkpt lat="48.89305" lon="2.27602">
        <ele>35.200000762939</ele>
        <time>2016-02-15T20:43:13.000Z</time>
      </trkpt>
      <trkpt lat="48.89293" lon="2.27579">
        <ele>35</ele>
        <time>2016-02-15T20:43:18.000Z</time>
      </trkpt>
      <trkpt lat="48.89282" lon="2.27554">
        <ele>35</ele>
        <time>2016-02-15T20:43:23.000Z</time>
      </trkpt>
      <trkpt lat="48.89272" lon="2.27531">
        <ele>34.799999237061</ele>
        <time>2016-02-15T20:43:28.000Z</time>
      </trkpt>
      <trkpt lat="48.8926" lon="2.27506">
        <ele>34</ele>
        <time>2016-02-15T20:43:34.000Z</time>
      </trkpt>
      <trkpt lat="48.89246" lon="2.27482">
        <ele>34</ele>
        <time>2016-02-15T20:43:40.000Z</time>
      </trkpt>
      <trkpt lat="48.89231" lon="2.27461">
        <ele>34.400001525879</ele>
        <time>2016-02-15T20:43:45.000Z</time>
      </trkpt>
      <trkpt lat="48.89221" lon="2.27437">
        <ele>34.599998474121</ele>
        <time>2016-02-15T20:43:50.000Z</time>
      </trkpt>
      <trkpt lat="48.89211" lon="2.27411">
        <ele>34.799999237061</ele>
        <time>2016-02-15T20:43:55.000Z</time>
      </trkpt>
      <trkpt lat="48.89204" lon="2.27385">
        <ele>34.799999237061</ele>
        <time>2016-02-15T20:43:59.000Z</time>
      </trkpt>
      <trkpt lat="48.89196" lon="2.27357">
        <ele>35</ele>
        <time>2016-02-15T20:44:03.000Z</time>
      </trkpt>
      <trkpt lat="48.89186" lon="2.27324">
        <ele>35</ele>
        <time>2016-02-15T20:44:07.000Z</time>
      </trkpt>
      <trkpt lat="48.89184" lon="2.27317">
        <ele>35</ele>
        <time>2016-02-15T20:44:08.000Z</time>
      </trkpt>
      <trkpt lat="48.89174" lon="2.27294">
        <ele>34.799999237061</ele>
        <time>2016-02-15T20:44:11.000Z</time>
      </trkpt>
      <trkpt lat="48.89164" lon="2.2727">
        <ele>34.400001525879</ele>
        <time>2016-02-15T20:44:14.000Z</time>
      </trkpt>
      <trkpt lat="48.89151" lon="2.2724">
        <ele>34.200000762939</ele>
        <time>2016-02-15T20:44:18.000Z</time>
      </trkpt>
      <trkpt lat="48.8914" lon="2.27208">
        <ele>33.799999237061</ele>
        <time>2016-02-15T20:44:22.000Z</time>
      </trkpt>
      <trkpt lat="48.89135" lon="2.27192">
        <ele>33.599998474121</ele>
        <time>2016-02-15T20:44:24.000Z</time>
      </trkpt>
      <trkpt lat="48.89125" lon="2.27169">
        <ele>34</ele>
        <time>2016-02-15T20:44:27.000Z</time>
      </trkpt>
      <trkpt lat="48.89115" lon="2.27146">
        <ele>33.599998474121</ele>
        <time>2016-02-15T20:44:30.000Z</time>
      </trkpt>
      <trkpt lat="48.89103" lon="2.27118">
        <ele>33</ele>
        <time>2016-02-15T20:44:34.000Z</time>
      </trkpt>
      <trkpt lat="48.89093" lon="2.27092">
        <ele>32.400001525879</ele>
        <time>2016-02-15T20:44:38.000Z</time>
      </trkpt>
      <trkpt lat="48.89085" lon="2.27071">
        <ele>32.400001525879</ele>
        <time>2016-02-15T20:44:42.000Z</time>
      </trkpt>
      <trkpt lat="48.8908" lon="2.27056">
        <ele>32.799999237061</ele>
        <time>2016-02-15T20:44:45.000Z</time>
      </trkpt>
      <trkpt lat="48.89076" lon="2.27042">
        <ele>33.200000762939</ele>
        <time>2016-02-15T20:44:48.000Z</time>
      </trkpt>
      <trkpt lat="48.89066" lon="2.27019">
        <ele>33.799999237061</ele>
        <time>2016-02-15T20:44:53.000Z</time>
      </trkpt>
      <trkpt lat="48.89064" lon="2.27014">
        <ele>33.799999237061</ele>
        <time>2016-02-15T20:44:54.000Z</time>
      </trkpt>
      <trkpt lat="48.89051" lon="2.26988">
        <ele>34.200000762939</ele>
        <time>2016-02-15T20:44:59.000Z</time>
      </trkpt>
      <trkpt lat="48.89039" lon="2.26961">
        <ele>33.799999237061</ele>
        <time>2016-02-15T20:45:04.000Z</time>
      </trkpt>
      <trkpt lat="48.8903" lon="2.26939">
        <ele>33.400001525879</ele>
        <time>2016-02-15T20:45:08.000Z</time>
      </trkpt>
      <trkpt lat="48.89019" lon="2.26917">
        <ele>33.200000762939</ele>
        <time>2016-02-15T20:45:12.000Z</time>
      </trkpt>
      <trkpt lat="48.8901" lon="2.26893">
        <ele>33.799999237061</ele>
        <time>2016-02-15T20:45:16.000Z</time>
      </trkpt>
      <trkpt lat="48.88998" lon="2.26867">
        <ele>34.599998474121</ele>
        <time>2016-02-15T20:45:21.000Z</time>
      </trkpt>
      <trkpt lat="48.88995" lon="2.26863">
        <ele>34.599998474121</ele>
        <time>2016-02-15T20:45:22.000Z</time>
      </trkpt>
      <trkpt lat="48.88983" lon="2.26836">
        <ele>35.400001525879</ele>
        <time>2016-02-15T20:45:27.000Z</time>
      </trkpt>
      <trkpt lat="48.8898" lon="2.2683">
        <ele>35.599998474121</ele>
        <time>2016-02-15T20:45:28.000Z</time>
      </trkpt>
      <trkpt lat="48.8897" lon="2.26803">
        <ele>35.200000762939</ele>
        <time>2016-02-15T20:45:32.000Z</time>
      </trkpt>
      <trkpt lat="48.88956" lon="2.26774">
        <ele>35</ele>
        <time>2016-02-15T20:45:36.000Z</time>
      </trkpt>
      <trkpt lat="48.88953" lon="2.26765">
        <ele>35</ele>
        <time>2016-02-15T20:45:37.000Z</time>
      </trkpt>
      <trkpt lat="48.88939" lon="2.26739">
        <ele>35</ele>
        <time>2016-02-15T20:45:40.000Z</time>
      </trkpt>
      <trkpt lat="48.88932" lon="2.2672">
        <ele>35</ele>
        <time>2016-02-15T20:45:42.000Z</time>
      </trkpt>
      <trkpt lat="48.88925" lon="2.26703">
        <ele>35</ele>
        <time>2016-02-15T20:45:44.000Z</time>
      </trkpt>
      <trkpt lat="48.88915" lon="2.26682">
        <ele>35.200000762939</ele>
        <time>2016-02-15T20:45:47.000Z</time>
      </trkpt>
      <trkpt lat="48.88907" lon="2.26665">
        <ele>35.200000762939</ele>
        <time>2016-02-15T20:45:50.000Z</time>
      </trkpt>
      <trkpt lat="48.88898" lon="2.26644">
        <ele>35.599998474121</ele>
        <time>2016-02-15T20:45:54.000Z</time>
      </trkpt>
      <trkpt lat="48.88889" lon="2.26622">
        <ele>35.799999237061</ele>
        <time>2016-02-15T20:45:59.000Z</time>
      </trkpt>
      <trkpt lat="48.88886" lon="2.26611">
        <ele>36</ele>
        <time>2016-02-15T20:46:01.000Z</time>
      </trkpt>
      <trkpt lat="48.88875" lon="2.26583">
        <ele>36</ele>
        <time>2016-02-15T20:46:05.000Z</time>
      </trkpt>
      <trkpt lat="48.88867" lon="2.26566">
        <ele>36.200000762939</ele>
        <time>2016-02-15T20:46:07.000Z</time>
      </trkpt>
      <trkpt lat="48.88854" lon="2.26539">
        <ele>36.599998474121</ele>
        <time>2016-02-15T20:46:10.000Z</time>
      </trkpt>
      <trkpt lat="48.88842" lon="2.26512">
        <ele>36.799999237061</ele>
        <time>2016-02-15T20:46:13.000Z</time>
      </trkpt>
      <trkpt lat="48.88832" lon="2.26488">
        <ele>36.799999237061</ele>
        <time>2016-02-15T20:46:16.000Z</time>
      </trkpt>
      <trkpt lat="48.88829" lon="2.26481">
        <ele>37</ele>
        <time>2016-02-15T20:46:17.000Z</time>
      </trkpt>
      <trkpt lat="48.88827" lon="2.26463">
        <ele>37</ele>
        <time>2016-02-15T20:46:22.000Z</time>
      </trkpt>
      <trkpt lat="48.88828" lon="2.26463">
        <ele>37</ele>
        <time>2016-02-15T20:46:23.000Z</time>
      </trkpt>
      <trkpt lat="48.88822" lon="2.26451">
        <ele>37.400001525879</ele>
        <time>2016-02-15T20:46:47.000Z</time>
      </trkpt>
      <trkpt lat="48.88806" lon="2.26432">
        <ele>38</ele>
        <time>2016-02-15T20:46:52.000Z</time>
      </trkpt>
      <trkpt lat="48.88793" lon="2.26412">
        <ele>38.599998474121</ele>
        <time>2016-02-15T20:46:57.000Z</time>
      </trkpt>
      <trkpt lat="48.88779" lon="2.26389">
        <ele>38.599998474121</ele>
        <time>2016-02-15T20:47:03.000Z</time>
      </trkpt>
      <trkpt lat="48.88764" lon="2.26369">
        <ele>39.200000762939</ele>
        <time>2016-02-15T20:47:09.000Z</time>
      </trkpt>
      <trkpt lat="48.88748" lon="2.26348">
        <ele>40</ele>
        <time>2016-02-15T20:47:14.000Z</time>
      </trkpt>
      <trkpt lat="48.88729" lon="2.26331">
        <ele>41.200000762939</ele>
        <time>2016-02-15T20:47:19.000Z</time>
      </trkpt>
      <trkpt lat="48.88714" lon="2.26307">
        <ele>41.400001525879</ele>
        <time>2016-02-15T20:47:24.000Z</time>
      </trkpt>
      <trkpt lat="48.88705" lon="2.26275">
        <ele>41</ele>
        <time>2016-02-15T20:47:29.000Z</time>
      </trkpt>
      <trkpt lat="48.88692" lon="2.26257">
        <ele>41.200000762939</ele>
        <time>2016-02-15T20:47:33.000Z</time>
      </trkpt>
      <trkpt lat="48.88687" lon="2.26253">
        <ele>41.200000762939</ele>
        <time>2016-02-15T20:47:34.000Z</time>
      </trkpt>
      <trkpt lat="48.88669" lon="2.26239">
        <ele>40.400001525879</ele>
        <time>2016-02-15T20:47:38.000Z</time>
      </trkpt>
      <trkpt lat="48.88654" lon="2.26222">
        <ele>40</ele>
        <time>2016-02-15T20:47:42.000Z</time>
      </trkpt>
      <trkpt lat="48.88636" lon="2.26204">
        <ele>39.599998474121</ele>
        <time>2016-02-15T20:47:47.000Z</time>
      </trkpt>
      <trkpt lat="48.88633" lon="2.26194">
        <ele>39.599998474121</ele>
        <time>2016-02-15T20:47:49.000Z</time>
      </trkpt>
      <trkpt lat="48.88633" lon="2.26165">
        <ele>39</ele>
        <time>2016-02-15T20:47:54.000Z</time>
      </trkpt>
      <trkpt lat="48.88632" lon="2.2616">
        <ele>39</ele>
        <time>2016-02-15T20:47:55.000Z</time>
      </trkpt>
      <trkpt lat="48.88629" lon="2.26155">
        <ele>39.200000762939</ele>
        <time>2016-02-15T20:47:56.000Z</time>
      </trkpt>
      <trkpt lat="48.88625" lon="2.26141">
        <ele>39.599998474121</ele>
        <time>2016-02-15T20:47:58.000Z</time>
      </trkpt>
      <trkpt lat="48.8861" lon="2.26127">
        <ele>39.799999237061</ele>
        <time>2016-02-15T20:48:02.000Z</time>
      </trkpt>
      <trkpt lat="48.88598" lon="2.26118">
        <ele>40.200000762939</ele>
        <time>2016-02-15T20:48:05.000Z</time>
      </trkpt>
      <trkpt lat="48.8858" lon="2.26108">
        <ele>41</ele>
        <time>2016-02-15T20:48:09.000Z</time>
      </trkpt>
      <trkpt lat="48.88564" lon="2.26097">
        <ele>41.599998474121</ele>
        <time>2016-02-15T20:48:13.000Z</time>
      </trkpt>
      <trkpt lat="48.88544" lon="2.26084">
        <ele>42.400001525879</ele>
        <time>2016-02-15T20:48:17.000Z</time>
      </trkpt>
      <trkpt lat="48.88525" lon="2.26075">
        <ele>43</ele>
        <time>2016-02-15T20:48:21.000Z</time>
      </trkpt>
      <trkpt lat="48.88513" lon="2.2607">
        <ele>43.200000762939</ele>
        <time>2016-02-15T20:48:24.000Z</time>
      </trkpt>
      <trkpt lat="48.88503" lon="2.2606">
        <ele>43.400001525879</ele>
        <time>2016-02-15T20:48:27.000Z</time>
      </trkpt>
      <trkpt lat="48.88497" lon="2.26046">
        <ele>43.799999237061</ele>
        <time>2016-02-15T20:48:31.000Z</time>
      </trkpt>
      <trkpt lat="48.88487" lon="2.26031">
        <ele>44</ele>
        <time>2016-02-15T20:48:37.000Z</time>
      </trkpt>
      <trkpt lat="48.88476" lon="2.26044">
        <ele>43.799999237061</ele>
        <time>2016-02-15T20:49:04.000Z</time>
      </trkpt>
      <trkpt lat="48.88457" lon="2.26042">
        <ele>43.799999237061</ele>
        <time>2016-02-15T20:49:11.000Z</time>
      </trkpt>
      <trkpt lat="48.88438" lon="2.26035">
        <ele>44</ele>
        <time>2016-02-15T20:49:16.000Z</time>
      </trkpt>
      <trkpt lat="48.88418" lon="2.26029">
        <ele>44.200000762939</ele>
        <time>2016-02-15T20:49:23.000Z</time>
      </trkpt>
      <trkpt lat="48.884" lon="2.26022">
        <ele>44.400001525879</ele>
        <time>2016-02-15T20:49:30.000Z</time>
      </trkpt>
      <trkpt lat="48.8838" lon="2.26013">
        <ele>44.599998474121</ele>
        <time>2016-02-15T20:49:35.000Z</time>
      </trkpt>
      <trkpt lat="48.88362" lon="2.25999">
        <ele>45</ele>
        <time>2016-02-15T20:49:42.000Z</time>
      </trkpt>
      <trkpt lat="48.88343" lon="2.25991">
        <ele>44.200000762939</ele>
        <time>2016-02-15T20:49:46.000Z</time>
      </trkpt>
      <trkpt lat="48.88326" lon="2.25981">
        <ele>43.200000762939</ele>
        <time>2016-02-15T20:49:49.000Z</time>
      </trkpt>
      <trkpt lat="48.88306" lon="2.25969">
        <ele>42</ele>
        <time>2016-02-15T20:49:53.000Z</time>
      </trkpt>
      <trkpt lat="48.88288" lon="2.25958">
        <ele>40.799999237061</ele>
        <time>2016-02-15T20:49:57.000Z</time>
      </trkpt>
      <trkpt lat="48.88269" lon="2.25947">
        <ele>40</ele>
        <time>2016-02-15T20:50:01.000Z</time>
      </trkpt>
      <trkpt lat="48.88261" lon="2.25945">
        <ele>40.200000762939</ele>
        <time>2016-02-15T20:50:02.000Z</time>
      </trkpt>
      <trkpt lat="48.88233" lon="2.25939">
        <ele>41</ele>
        <time>2016-02-15T20:50:04.000Z</time>
      </trkpt>
      <trkpt lat="48.88226" lon="2.25936">
        <ele>41.200000762939</ele>
        <time>2016-02-15T20:50:05.000Z</time>
      </trkpt>
      <trkpt lat="48.88208" lon="2.25931">
        <ele>41.799999237061</ele>
        <time>2016-02-15T20:50:08.000Z</time>
      </trkpt>
      <trkpt lat="48.88184" lon="2.25923">
        <ele>42.200000762939</ele>
        <time>2016-02-15T20:50:11.000Z</time>
      </trkpt>
      <trkpt lat="48.88165" lon="2.2591">
        <ele>42.799999237061</ele>
        <time>2016-02-15T20:50:14.000Z</time>
      </trkpt>
      <trkpt lat="48.88145" lon="2.25898">
        <ele>43.400001525879</ele>
        <time>2016-02-15T20:50:17.000Z</time>
      </trkpt>
      <trkpt lat="48.88128" lon="2.25885">
        <ele>43.799999237061</ele>
        <time>2016-02-15T20:50:20.000Z</time>
      </trkpt>
      <trkpt lat="48.88107" lon="2.25873">
        <ele>44.400001525879</ele>
        <time>2016-02-15T20:50:24.000Z</time>
      </trkpt>
      <trkpt lat="48.88078" lon="2.25855">
        <ele>42.200000762939</ele>
        <time>2016-02-15T20:50:27.000Z</time>
      </trkpt>
      <trkpt lat="48.88069" lon="2.25849">
        <ele>41.599998474121</ele>
        <time>2016-02-15T20:50:29.000Z</time>
      </trkpt>
      <trkpt lat="48.88051" lon="2.25838">
        <ele>40.200000762939</ele>
        <time>2016-02-15T20:50:32.000Z</time>
      </trkpt>
      <trkpt lat="48.88045" lon="2.25834">
        <ele>39.599998474121</ele>
        <time>2016-02-15T20:50:33.000Z</time>
      </trkpt>
      <trkpt lat="48.88026" lon="2.25825">
        <ele>38.200000762939</ele>
        <time>2016-02-15T20:50:36.000Z</time>
      </trkpt>
      <trkpt lat="48.88005" lon="2.25814">
        <ele>38.599998474121</ele>
        <time>2016-02-15T20:50:40.000Z</time>
      </trkpt>
      <trkpt lat="48.87987" lon="2.25805">
        <ele>39</ele>
        <time>2016-02-15T20:50:44.000Z</time>
      </trkpt>
      <trkpt lat="48.87968" lon="2.25797">
        <ele>39.400001525879</ele>
        <time>2016-02-15T20:50:49.000Z</time>
      </trkpt>
      <trkpt lat="48.87964" lon="2.25796">
        <ele>39.599998474121</ele>
        <time>2016-02-15T20:50:52.000Z</time>
      </trkpt>
      <trkpt lat="48.87979" lon="2.25803">
        <ele>39.200000762939</ele>
        <time>2016-02-15T20:50:58.000Z</time>
      </trkpt>
      <trkpt lat="48.87981" lon="2.25805">
        <ele>39</ele>
        <time>2016-02-15T20:50:59.000Z</time>
      </trkpt>
      <trkpt lat="48.87991" lon="2.25809">
        <ele>38.799999237061</ele>
        <time>2016-02-15T20:51:02.000Z</time>
      </trkpt>
      <trkpt lat="48.88007" lon="2.25816">
        <ele>38.599998474121</ele>
        <time>2016-02-15T20:51:06.000Z</time>
      </trkpt>
      <trkpt lat="48.8802" lon="2.25837">
        <ele>38.400001525879</ele>
        <time>2016-02-15T20:51:12.000Z</time>
      </trkpt>
      <trkpt lat="48.88009" lon="2.25859">
        <ele>39.200000762939</ele>
        <time>2016-02-15T20:51:21.000Z</time>
      </trkpt>
      <trkpt lat="48.8799" lon="2.25868">
        <ele>39.799999237061</ele>
        <time>2016-02-15T20:51:27.000Z</time>
      </trkpt>
      <trkpt lat="48.87971" lon="2.25872">
        <ele>39.599998474121</ele>
        <time>2016-02-15T20:51:31.000Z</time>
      </trkpt>
      <trkpt lat="48.87953" lon="2.25877">
        <ele>39</ele>
        <time>2016-02-15T20:51:35.000Z</time>
      </trkpt>
      <trkpt lat="48.87933" lon="2.25889">
        <ele>38</ele>
        <time>2016-02-15T20:51:39.000Z</time>
      </trkpt>
      <trkpt lat="48.87915" lon="2.25899">
        <ele>37.799999237061</ele>
        <time>2016-02-15T20:51:43.000Z</time>
      </trkpt>
      <trkpt lat="48.87896" lon="2.25909">
        <ele>38.400001525879</ele>
        <time>2016-02-15T20:51:47.000Z</time>
      </trkpt>
      <trkpt lat="48.87885" lon="2.25916">
        <ele>38.599998474121</ele>
        <time>2016-02-15T20:51:50.000Z</time>
      </trkpt>
      <trkpt lat="48.87866" lon="2.25926">
        <ele>38.799999237061</ele>
        <time>2016-02-15T20:51:55.000Z</time>
      </trkpt>
      <trkpt lat="48.87858" lon="2.25931">
        <ele>38.599998474121</ele>
        <time>2016-02-15T20:51:57.000Z</time>
      </trkpt>
      <trkpt lat="48.8785" lon="2.25935">
        <ele>38.400001525879</ele>
        <time>2016-02-15T20:51:59.000Z</time>
      </trkpt>
      <trkpt lat="48.87831" lon="2.25946">
        <ele>38</ele>
        <time>2016-02-15T20:52:04.000Z</time>
      </trkpt>
      <trkpt lat="48.87813" lon="2.25955">
        <ele>37.400001525879</ele>
        <time>2016-02-15T20:52:08.000Z</time>
      </trkpt>
      <trkpt lat="48.87793" lon="2.25968">
        <ele>36.400001525879</ele>
        <time>2016-02-15T20:52:13.000Z</time>
      </trkpt>
      <trkpt lat="48.87774" lon="2.25981">
        <ele>35.599998474121</ele>
        <time>2016-02-15T20:52:18.000Z</time>
      </trkpt>
      <trkpt lat="48.8776" lon="2.25991">
        <ele>35.799999237061</ele>
        <time>2016-02-15T20:52:21.000Z</time>
      </trkpt>
      <trkpt lat="48.87743" lon="2.26004">
        <ele>36.599998474121</ele>
        <time>2016-02-15T20:52:25.000Z</time>
      </trkpt>
      <trkpt lat="48.87726" lon="2.26019">
        <ele>37.599998474121</ele>
        <time>2016-02-15T20:52:29.000Z</time>
      </trkpt>
      <trkpt lat="48.87707" lon="2.26034">
        <ele>37</ele>
        <time>2016-02-15T20:52:33.000Z</time>
      </trkpt>
      <trkpt lat="48.87691" lon="2.26048">
        <ele>35.400001525879</ele>
        <time>2016-02-15T20:52:37.000Z</time>
      </trkpt>
      <trkpt lat="48.87674" lon="2.26066">
        <ele>34.400001525879</ele>
        <time>2016-02-15T20:52:41.000Z</time>
      </trkpt>
      <trkpt lat="48.87661" lon="2.26084">
        <ele>34.599998474121</ele>
        <time>2016-02-15T20:52:45.000Z</time>
      </trkpt>
      <trkpt lat="48.87655" lon="2.26094">
        <ele>35</ele>
        <time>2016-02-15T20:52:47.000Z</time>
      </trkpt>
      <trkpt lat="48.87639" lon="2.2612">
        <ele>36.200000762939</ele>
        <time>2016-02-15T20:52:51.000Z</time>
      </trkpt>
      <trkpt lat="48.87626" lon="2.26145">
        <ele>37</ele>
        <time>2016-02-15T20:52:55.000Z</time>
      </trkpt>
      <trkpt lat="48.8761" lon="2.26169">
        <ele>38</ele>
        <time>2016-02-15T20:52:59.000Z</time>
      </trkpt>
      <trkpt lat="48.87597" lon="2.26191">
        <ele>38.599998474121</ele>
        <time>2016-02-15T20:53:03.000Z</time>
      </trkpt>
      <trkpt lat="48.87584" lon="2.26211">
        <ele>39.200000762939</ele>
        <time>2016-02-15T20:53:08.000Z</time>
      </trkpt>
      <trkpt lat="48.87581" lon="2.26219">
        <ele>39.200000762939</ele>
        <time>2016-02-15T20:53:10.000Z</time>
      </trkpt>
      <trkpt lat="48.87569" lon="2.26243">
        <ele>39</ele>
        <time>2016-02-15T20:53:15.000Z</time>
      </trkpt>
      <trkpt lat="48.87557" lon="2.26266">
        <ele>39.200000762939</ele>
        <time>2016-02-15T20:53:19.000Z</time>
      </trkpt>
      <trkpt lat="48.87541" lon="2.26291">
        <ele>40.200000762939</ele>
        <time>2016-02-15T20:53:23.000Z</time>
      </trkpt>
      <trkpt lat="48.87534" lon="2.26301">
        <ele>40.799999237061</ele>
        <time>2016-02-15T20:53:25.000Z</time>
      </trkpt>
      <trkpt lat="48.87517" lon="2.2632">
        <ele>41.400001525879</ele>
        <time>2016-02-15T20:53:29.000Z</time>
      </trkpt>
      <trkpt lat="48.875" lon="2.26338">
        <ele>42</ele>
        <time>2016-02-15T20:53:33.000Z</time>
      </trkpt>
      <trkpt lat="48.87484" lon="2.26349">
        <ele>42</ele>
        <time>2016-02-15T20:53:36.000Z</time>
      </trkpt>
      <trkpt lat="48.87462" lon="2.26365">
        <ele>42.400001525879</ele>
        <time>2016-02-15T20:53:40.000Z</time>
      </trkpt>
      <trkpt lat="48.87441" lon="2.26379">
        <ele>43.200000762939</ele>
        <time>2016-02-15T20:53:44.000Z</time>
      </trkpt>
      <trkpt lat="48.87424" lon="2.26389">
        <ele>43.599998474121</ele>
        <time>2016-02-15T20:53:47.000Z</time>
      </trkpt>
      <trkpt lat="48.87406" lon="2.264">
        <ele>43.799999237061</ele>
        <time>2016-02-15T20:53:50.000Z</time>
      </trkpt>
      <trkpt lat="48.87395" lon="2.26404">
        <ele>43.799999237061</ele>
        <time>2016-02-15T20:53:52.000Z</time>
      </trkpt>
      <trkpt lat="48.87378" lon="2.26411">
        <ele>44</ele>
        <time>2016-02-15T20:53:55.000Z</time>
      </trkpt>
      <trkpt lat="48.87372" lon="2.26413">
        <ele>44</ele>
        <time>2016-02-15T20:53:56.000Z</time>
      </trkpt>
      <trkpt lat="48.87367" lon="2.26416">
        <ele>43.799999237061</ele>
        <time>2016-02-15T20:53:57.000Z</time>
      </trkpt>
      <trkpt lat="48.87343" lon="2.26422">
        <ele>43.400001525879</ele>
        <time>2016-02-15T20:54:01.000Z</time>
      </trkpt>
      <trkpt lat="48.87322" lon="2.26425">
        <ele>42.799999237061</ele>
        <time>2016-02-15T20:54:05.000Z</time>
      </trkpt>
      <trkpt lat="48.873" lon="2.26428">
        <ele>42.200000762939</ele>
        <time>2016-02-15T20:54:09.000Z</time>
      </trkpt>
      <trkpt lat="48.87282" lon="2.26431">
        <ele>41.599998474121</ele>
        <time>2016-02-15T20:54:13.000Z</time>
      </trkpt>
      <trkpt lat="48.87267" lon="2.26432">
        <ele>41.599998474121</ele>
        <time>2016-02-15T20:54:19.000Z</time>
      </trkpt>
      <trkpt lat="48.87257" lon="2.2643">
        <ele>41.799999237061</ele>
        <time>2016-02-15T20:55:36.000Z</time>
      </trkpt>
      <trkpt lat="48.87253" lon="2.26431">
        <ele>41.799999237061</ele>
        <time>2016-02-15T20:55:38.000Z</time>
      </trkpt>
      <trkpt lat="48.87233" lon="2.26437">
        <ele>41.799999237061</ele>
        <time>2016-02-15T20:55:44.000Z</time>
      </trkpt>
      <trkpt lat="48.87215" lon="2.26439">
        <ele>42</ele>
        <time>2016-02-15T20:55:48.000Z</time>
      </trkpt>
      <trkpt lat="48.87203" lon="2.26439">
        <ele>42</ele>
        <time>2016-02-15T20:55:50.000Z</time>
      </trkpt>
      <trkpt lat="48.8718" lon="2.26433">
        <ele>42.200000762939</ele>
        <time>2016-02-15T20:55:54.000Z</time>
      </trkpt>
      <trkpt lat="48.87157" lon="2.26426">
        <ele>42.200000762939</ele>
        <time>2016-02-15T20:55:58.000Z</time>
      </trkpt>
      <trkpt lat="48.87135" lon="2.26423">
        <ele>42</ele>
        <time>2016-02-15T20:56:01.000Z</time>
      </trkpt>
      <trkpt lat="48.87112" lon="2.2642">
        <ele>42</ele>
        <time>2016-02-15T20:56:04.000Z</time>
      </trkpt>
      <trkpt lat="48.8709" lon="2.2642">
        <ele>42.799999237061</ele>
        <time>2016-02-15T20:56:07.000Z</time>
      </trkpt>
      <trkpt lat="48.8707" lon="2.26422">
        <ele>43.599998474121</ele>
        <time>2016-02-15T20:56:10.000Z</time>
      </trkpt>
      <trkpt lat="48.87063" lon="2.26423">
        <ele>44</ele>
        <time>2016-02-15T20:56:11.000Z</time>
      </trkpt>
      <trkpt lat="48.87039" lon="2.2643">
        <ele>45</ele>
        <time>2016-02-15T20:56:14.000Z</time>
      </trkpt>
      <trkpt lat="48.87016" lon="2.26438">
        <ele>46.200000762939</ele>
        <time>2016-02-15T20:56:17.000Z</time>
      </trkpt>
      <trkpt lat="48.87009" lon="2.26441">
        <ele>46.599998474121</ele>
        <time>2016-02-15T20:56:18.000Z</time>
      </trkpt>
      <trkpt lat="48.86986" lon="2.26451">
        <ele>47.799999237061</ele>
        <time>2016-02-15T20:56:21.000Z</time>
      </trkpt>
      <trkpt lat="48.86965" lon="2.2646">
        <ele>48</ele>
        <time>2016-02-15T20:56:24.000Z</time>
      </trkpt>
      <trkpt lat="48.86945" lon="2.26471">
        <ele>48</ele>
        <time>2016-02-15T20:56:27.000Z</time>
      </trkpt>
      <trkpt lat="48.86927" lon="2.26482">
        <ele>48.400001525879</ele>
        <time>2016-02-15T20:56:30.000Z</time>
      </trkpt>
      <trkpt lat="48.86907" lon="2.26495">
        <ele>47</ele>
        <time>2016-02-15T20:56:34.000Z</time>
      </trkpt>
      <trkpt lat="48.86889" lon="2.26506">
        <ele>46</ele>
        <time>2016-02-15T20:56:38.000Z</time>
      </trkpt>
      <trkpt lat="48.86872" lon="2.26515">
        <ele>45.200000762939</ele>
        <time>2016-02-15T20:56:42.000Z</time>
      </trkpt>
      <trkpt lat="48.86865" lon="2.26519">
        <ele>45.200000762939</ele>
        <time>2016-02-15T20:56:44.000Z</time>
      </trkpt>
      <trkpt lat="48.86853" lon="2.26521">
        <ele>45.200000762939</ele>
        <time>2016-02-15T20:56:48.000Z</time>
      </trkpt>
      <trkpt lat="48.86836" lon="2.26531">
        <ele>46</ele>
        <time>2016-02-15T20:56:56.000Z</time>
      </trkpt>
      <trkpt lat="48.86824" lon="2.26548">
        <ele>46.599998474121</ele>
        <time>2016-02-15T20:57:39.000Z</time>
      </trkpt>
      <trkpt lat="48.86812" lon="2.26557">
        <ele>46.599998474121</ele>
        <time>2016-02-15T20:58:15.000Z</time>
      </trkpt>
      <trkpt lat="48.86793" lon="2.26567">
        <ele>46.799999237061</ele>
        <time>2016-02-15T20:58:23.000Z</time>
      </trkpt>
      <trkpt lat="48.86774" lon="2.26561">
        <ele>47.400001525879</ele>
        <time>2016-02-15T20:58:30.000Z</time>
      </trkpt>
      <trkpt lat="48.86755" lon="2.26547">
        <ele>47.599998474121</ele>
        <time>2016-02-15T20:58:36.000Z</time>
      </trkpt>
      <trkpt lat="48.86742" lon="2.26539">
        <ele>47.599998474121</ele>
        <time>2016-02-15T20:58:39.000Z</time>
      </trkpt>
      <trkpt lat="48.86725" lon="2.26526">
        <ele>47.799999237061</ele>
        <time>2016-02-15T20:58:43.000Z</time>
      </trkpt>
      <trkpt lat="48.86709" lon="2.26512">
        <ele>47.799999237061</ele>
        <time>2016-02-15T20:58:47.000Z</time>
      </trkpt>
      <trkpt lat="48.86692" lon="2.26502">
        <ele>48</ele>
        <time>2016-02-15T20:58:51.000Z</time>
      </trkpt>
      <trkpt lat="48.86672" lon="2.26495">
        <ele>47.599998474121</ele>
        <time>2016-02-15T20:58:55.000Z</time>
      </trkpt>
      <trkpt lat="48.86651" lon="2.26495">
        <ele>47</ele>
        <time>2016-02-15T20:59:00.000Z</time>
      </trkpt>
      <trkpt lat="48.8663" lon="2.26501">
        <ele>46.599998474121</ele>
        <time>2016-02-15T20:59:05.000Z</time>
      </trkpt>
      <trkpt lat="48.86612" lon="2.26507">
        <ele>46.200000762939</ele>
        <time>2016-02-15T20:59:09.000Z</time>
      </trkpt>
      <trkpt lat="48.86594" lon="2.26515">
        <ele>46.400001525879</ele>
        <time>2016-02-15T20:59:13.000Z</time>
      </trkpt>
      <trkpt lat="48.86574" lon="2.2653">
        <ele>47.200000762939</ele>
        <time>2016-02-15T20:59:18.000Z</time>
      </trkpt>
      <trkpt lat="48.86555" lon="2.26546">
        <ele>48.200000762939</ele>
        <time>2016-02-15T20:59:23.000Z</time>
      </trkpt>
      <trkpt lat="48.86539" lon="2.2656">
        <ele>49.599998474121</ele>
        <time>2016-02-15T20:59:28.000Z</time>
      </trkpt>
      <trkpt lat="48.86523" lon="2.26575">
        <ele>50.799999237061</ele>
        <time>2016-02-15T20:59:32.000Z</time>
      </trkpt>
      <trkpt lat="48.86508" lon="2.26591">
        <ele>50</ele>
        <time>2016-02-15T20:59:35.000Z</time>
      </trkpt>
      <trkpt lat="48.86494" lon="2.26606">
        <ele>48.599998474121</ele>
        <time>2016-02-15T20:59:38.000Z</time>
      </trkpt>
      <trkpt lat="48.86483" lon="2.26616">
        <ele>47.799999237061</ele>
        <time>2016-02-15T20:59:40.000Z</time>
      </trkpt>
      <trkpt lat="48.86465" lon="2.26628">
        <ele>47.200000762939</ele>
        <time>2016-02-15T20:59:44.000Z</time>
      </trkpt>
      <trkpt lat="48.86462" lon="2.26631">
        <ele>47.200000762939</ele>
        <time>2016-02-15T20:59:45.000Z</time>
      </trkpt>
      <trkpt lat="48.86456" lon="2.26636">
        <ele>47</ele>
        <time>2016-02-15T20:59:48.000Z</time>
      </trkpt>
      <trkpt lat="48.86448" lon="2.26642">
        <ele>46.799999237061</ele>
        <time>2016-02-15T20:59:52.000Z</time>
      </trkpt>
      <trkpt lat="48.86445" lon="2.26643">
        <ele>46.799999237061</ele>
        <time>2016-02-15T20:59:53.000Z</time>
      </trkpt>
      <trkpt lat="48.86439" lon="2.26644">
        <ele>46.599998474121</ele>
        <time>2016-02-15T20:59:55.000Z</time>
      </trkpt>
      <trkpt lat="48.86433" lon="2.26645">
        <ele>46.599998474121</ele>
        <time>2016-02-15T20:59:58.000Z</time>
      </trkpt>
      <trkpt lat="48.86416" lon="2.26632">
        <ele>47.200000762939</ele>
        <time>2016-02-15T21:00:05.000Z</time>
      </trkpt>
      <trkpt lat="48.86396" lon="2.26621">
        <ele>47.599998474121</ele>
        <time>2016-02-15T21:00:09.000Z</time>
      </trkpt>
      <trkpt lat="48.8638" lon="2.26605">
        <ele>48.200000762939</ele>
        <time>2016-02-15T21:00:12.000Z</time>
      </trkpt>
      <trkpt lat="48.86362" lon="2.26585">
        <ele>48.799999237061</ele>
        <time>2016-02-15T21:00:15.000Z</time>
      </trkpt>
      <trkpt lat="48.86345" lon="2.26562">
        <ele>48.599998474121</ele>
        <time>2016-02-15T21:00:18.000Z</time>
      </trkpt>
      <trkpt lat="48.86329" lon="2.26538">
        <ele>48.200000762939</ele>
        <time>2016-02-15T21:00:21.000Z</time>
      </trkpt>
      <trkpt lat="48.86314" lon="2.26515">
        <ele>47.599998474121</ele>
        <time>2016-02-15T21:00:24.000Z</time>
      </trkpt>
      <trkpt lat="48.863" lon="2.26495">
        <ele>47.400001525879</ele>
        <time>2016-02-15T21:00:27.000Z</time>
      </trkpt>
      <trkpt lat="48.86285" lon="2.26471">
        <ele>49.799999237061</ele>
        <time>2016-02-15T21:00:31.000Z</time>
      </trkpt>
      <trkpt lat="48.86269" lon="2.26452">
        <ele>51.200000762939</ele>
        <time>2016-02-15T21:00:36.000Z</time>
      </trkpt>
      <trkpt lat="48.86259" lon="2.26475">
        <ele>49</ele>
        <time>2016-02-15T21:00:42.000Z</time>
      </trkpt>
      <trkpt lat="48.86259" lon="2.26481">
        <ele>48.599998474121</ele>
        <time>2016-02-15T21:00:43.000Z</time>
      </trkpt>
      <trkpt lat="48.86259" lon="2.26494">
        <ele>48.599998474121</ele>
        <time>2016-02-15T21:00:45.000Z</time>
      </trkpt>
      <trkpt lat="48.86262" lon="2.26527">
        <ele>50.200000762939</ele>
        <time>2016-02-15T21:00:50.000Z</time>
      </trkpt>
      <trkpt lat="48.86264" lon="2.26555">
        <ele>51.599998474121</ele>
        <time>2016-02-15T21:00:54.000Z</time>
      </trkpt>
      <trkpt lat="48.86267" lon="2.26584">
        <ele>53.400001525879</ele>
        <time>2016-02-15T21:00:58.000Z</time>
      </trkpt>
      <trkpt lat="48.86266" lon="2.26591">
        <ele>53.400001525879</ele>
        <time>2016-02-15T21:00:59.000Z</time>
      </trkpt>
      <trkpt lat="48.86269" lon="2.2662">
        <ele>54</ele>
        <time>2016-02-15T21:01:03.000Z</time>
      </trkpt>
      <trkpt lat="48.8627" lon="2.26627">
        <ele>54.200000762939</ele>
        <time>2016-02-15T21:01:04.000Z</time>
      </trkpt>
      <trkpt lat="48.86272" lon="2.26648">
        <ele>54.599998474121</ele>
        <time>2016-02-15T21:01:07.000Z</time>
      </trkpt>
      <trkpt lat="48.86275" lon="2.26676">
        <ele>54.400001525879</ele>
        <time>2016-02-15T21:01:11.000Z</time>
      </trkpt>
      <trkpt lat="48.86275" lon="2.26691">
        <ele>54</ele>
        <time>2016-02-15T21:01:13.000Z</time>
      </trkpt>
      <trkpt lat="48.86274" lon="2.26698">
        <ele>53.799999237061</ele>
        <time>2016-02-15T21:01:14.000Z</time>
      </trkpt>
      <trkpt lat="48.86273" lon="2.26717">
        <ele>53</ele>
        <time>2016-02-15T21:01:17.000Z</time>
      </trkpt>
      <trkpt lat="48.86271" lon="2.26743">
        <ele>52.200000762939</ele>
        <time>2016-02-15T21:01:22.000Z</time>
      </trkpt>
      <trkpt lat="48.86271" lon="2.26759">
        <ele>52.599998474121</ele>
        <time>2016-02-15T21:01:26.000Z</time>
      </trkpt>
      <trkpt lat="48.86269" lon="2.26774">
        <ele>53.599998474121</ele>
        <time>2016-02-15T21:01:31.000Z</time>
      </trkpt>
      <trkpt lat="48.86265" lon="2.26802">
        <ele>55.200000762939</ele>
        <time>2016-02-15T21:01:42.000Z</time>
      </trkpt>
      <trkpt lat="48.86273" lon="2.26826">
        <ele>55.799999237061</ele>
        <time>2016-02-15T21:01:50.000Z</time>
      </trkpt>
      <trkpt lat="48.86287" lon="2.26847">
        <ele>56.799999237061</ele>
        <time>2016-02-15T21:02:01.000Z</time>
      </trkpt>
      <trkpt lat="48.86293" lon="2.26872">
        <ele>58.799999237061</ele>
        <time>2016-02-15T21:02:13.000Z</time>
      </trkpt>
      <trkpt lat="48.86296" lon="2.26899">
        <ele>61.200000762939</ele>
        <time>2016-02-15T21:02:38.000Z</time>
      </trkpt>
      <trkpt lat="48.86296" lon="2.2693">
        <ele>64.199996948242</ele>
        <time>2016-02-15T21:02:44.000Z</time>
      </trkpt>
      <trkpt lat="48.863" lon="2.26957">
        <ele>66.199996948242</ele>
        <time>2016-02-15T21:02:49.000Z</time>
      </trkpt>
      <trkpt lat="48.86308" lon="2.26982">
        <ele>67.599998474121</ele>
        <time>2016-02-15T21:02:54.000Z</time>
      </trkpt>
      <trkpt lat="48.86316" lon="2.27009">
        <ele>68.400001525879</ele>
        <time>2016-02-15T21:02:59.000Z</time>
      </trkpt>
      <trkpt lat="48.86327" lon="2.27036">
        <ele>68</ele>
        <time>2016-02-15T21:03:04.000Z</time>
      </trkpt>
      <trkpt lat="48.86342" lon="2.27063">
        <ele>67.599998474121</ele>
        <time>2016-02-15T21:03:09.000Z</time>
      </trkpt>
      <trkpt lat="48.86353" lon="2.27088">
        <ele>67.199996948242</ele>
        <time>2016-02-15T21:03:13.000Z</time>
      </trkpt>
      <trkpt lat="48.86363" lon="2.27116">
        <ele>66.599998474121</ele>
        <time>2016-02-15T21:03:17.000Z</time>
      </trkpt>
      <trkpt lat="48.86366" lon="2.27123">
        <ele>66.599998474121</ele>
        <time>2016-02-15T21:03:18.000Z</time>
      </trkpt>
      <trkpt lat="48.86378" lon="2.27153">
        <ele>66</ele>
        <time>2016-02-15T21:03:22.000Z</time>
      </trkpt>
      <trkpt lat="48.86387" lon="2.27184">
        <ele>64.800003051758</ele>
        <time>2016-02-15T21:03:26.000Z</time>
      </trkpt>
      <trkpt lat="48.86396" lon="2.27214">
        <ele>63</ele>
        <time>2016-02-15T21:03:30.000Z</time>
      </trkpt>
      <trkpt lat="48.864" lon="2.27232">
        <ele>61.799999237061</ele>
        <time>2016-02-15T21:03:32.000Z</time>
      </trkpt>
      <trkpt lat="48.86406" lon="2.27264">
        <ele>61.400001525879</ele>
        <time>2016-02-15T21:03:36.000Z</time>
      </trkpt>
      <trkpt lat="48.86413" lon="2.27278">
        <ele>61.799999237061</ele>
        <time>2016-02-15T21:03:38.000Z</time>
      </trkpt>
      <trkpt lat="48.86418" lon="2.27296">
        <ele>62.400001525879</ele>
        <time>2016-02-15T21:03:41.000Z</time>
      </trkpt>
      <trkpt lat="48.86421" lon="2.2731">
        <ele>62.799999237061</ele>
        <time>2016-02-15T21:03:43.000Z</time>
      </trkpt>
      <trkpt lat="48.86421" lon="2.27322">
        <ele>63</ele>
        <time>2016-02-15T21:03:45.000Z</time>
      </trkpt>
      <trkpt lat="48.86428" lon="2.27343">
        <ele>63.599998474121</ele>
        <time>2016-02-15T21:03:49.000Z</time>
      </trkpt>
      <trkpt lat="48.86427" lon="2.27376">
        <ele>64.800003051758</ele>
        <time>2016-02-15T21:03:55.000Z</time>
      </trkpt>
      <trkpt lat="48.8643" lon="2.27394">
        <ele>65.400001525879</ele>
        <time>2016-02-15T21:03:58.000Z</time>
      </trkpt>
      <trkpt lat="48.8643" lon="2.27408">
        <ele>66</ele>
        <time>2016-02-15T21:04:00.000Z</time>
      </trkpt>
      <trkpt lat="48.8643" lon="2.2744">
        <ele>66.800003051758</ele>
        <time>2016-02-15T21:04:05.000Z</time>
      </trkpt>
      <trkpt lat="48.86428" lon="2.2746">
        <ele>67</ele>
        <time>2016-02-15T21:04:08.000Z</time>
      </trkpt>
      <trkpt lat="48.86426" lon="2.27488">
        <ele>67.599998474121</ele>
        <time>2016-02-15T21:04:12.000Z</time>
      </trkpt>
      <trkpt lat="48.86423" lon="2.27518">
        <ele>67.800003051758</ele>
        <time>2016-02-15T21:04:16.000Z</time>
      </trkpt>
      <trkpt lat="48.86416" lon="2.27549">
        <ele>68.199996948242</ele>
        <time>2016-02-15T21:04:20.000Z</time>
      </trkpt>
      <trkpt lat="48.86416" lon="2.27558">
        <ele>68</ele>
        <time>2016-02-15T21:04:21.000Z</time>
      </trkpt>
      <trkpt lat="48.86407" lon="2.27591">
        <ele>66.800003051758</ele>
        <time>2016-02-15T21:04:25.000Z</time>
      </trkpt>
      <trkpt lat="48.86401" lon="2.27624">
        <ele>66</ele>
        <time>2016-02-15T21:04:29.000Z</time>
      </trkpt>
      <trkpt lat="48.86396" lon="2.27656">
        <ele>66</ele>
        <time>2016-02-15T21:04:33.000Z</time>
      </trkpt>
      <trkpt lat="48.86393" lon="2.27671">
        <ele>66</ele>
        <time>2016-02-15T21:04:35.000Z</time>
      </trkpt>
      <trkpt lat="48.86387" lon="2.27699">
        <ele>65.800003051758</ele>
        <time>2016-02-15T21:04:39.000Z</time>
      </trkpt>
      <trkpt lat="48.8639" lon="2.27728">
        <ele>65.800003051758</ele>
        <time>2016-02-15T21:04:43.000Z</time>
      </trkpt>
      <trkpt lat="48.86394" lon="2.27759">
        <ele>66</ele>
        <time>2016-02-15T21:04:47.000Z</time>
      </trkpt>
      <trkpt lat="48.8639" lon="2.2779">
        <ele>66.400001525879</ele>
        <time>2016-02-15T21:04:51.000Z</time>
      </trkpt>
      <trkpt lat="48.86384" lon="2.27819">
        <ele>66.199996948242</ele>
        <time>2016-02-15T21:04:55.000Z</time>
      </trkpt>
      <trkpt lat="48.86382" lon="2.27849">
        <ele>65</ele>
        <time>2016-02-15T21:04:59.000Z</time>
      </trkpt>
      <trkpt lat="48.86376" lon="2.27877">
        <ele>65.400001525879</ele>
        <time>2016-02-15T21:05:03.000Z</time>
      </trkpt>
      <trkpt lat="48.8637" lon="2.27908">
        <ele>66</ele>
        <time>2016-02-15T21:05:07.000Z</time>
      </trkpt>
      <trkpt lat="48.86364" lon="2.2794">
        <ele>67.199996948242</ele>
        <time>2016-02-15T21:05:11.000Z</time>
      </trkpt>
      <trkpt lat="48.86358" lon="2.27967">
        <ele>68.199996948242</ele>
        <time>2016-02-15T21:05:14.000Z</time>
      </trkpt>
      <trkpt lat="48.86352" lon="2.27997">
        <ele>69.199996948242</ele>
        <time>2016-02-15T21:05:17.000Z</time>
      </trkpt>
      <trkpt lat="48.86347" lon="2.28032">
        <ele>71.400001525879</ele>
        <time>2016-02-15T21:05:20.000Z</time>
      </trkpt>
      <trkpt lat="48.86342" lon="2.28066">
        <ele>73.599998474121</ele>
        <time>2016-02-15T21:05:23.000Z</time>
      </trkpt>
      <trkpt lat="48.86337" lon="2.281">
        <ele>74.199996948242</ele>
        <time>2016-02-15T21:05:26.000Z</time>
      </trkpt>
      <trkpt lat="48.86337" lon="2.28124">
        <ele>74</ele>
        <time>2016-02-15T21:05:28.000Z</time>
      </trkpt>
      <trkpt lat="48.86335" lon="2.2816">
        <ele>74</ele>
        <time>2016-02-15T21:05:31.000Z</time>
      </trkpt>
      <trkpt lat="48.86333" lon="2.28195">
        <ele>73.400001525879</ele>
        <time>2016-02-15T21:05:34.000Z</time>
      </trkpt>
      <trkpt lat="48.86329" lon="2.2823">
        <ele>73.800003051758</ele>
        <time>2016-02-15T21:05:37.000Z</time>
      </trkpt>
      <trkpt lat="48.86326" lon="2.28262">
        <ele>75.800003051758</ele>
        <time>2016-02-15T21:05:40.000Z</time>
      </trkpt>
      <trkpt lat="48.86324" lon="2.28288">
        <ele>76.599998474121</ele>
        <time>2016-02-15T21:05:43.000Z</time>
      </trkpt>
      <trkpt lat="48.86319" lon="2.28316">
        <ele>76.599998474121</ele>
        <time>2016-02-15T21:05:47.000Z</time>
      </trkpt>
      <trkpt lat="48.86315" lon="2.28345">
        <ele>76.199996948242</ele>
        <time>2016-02-15T21:05:53.000Z</time>
      </trkpt>
      <trkpt lat="48.86315" lon="2.28346">
        <ele>76.199996948242</ele>
        <time>2016-02-15T21:05:54.000Z</time>
      </trkpt>
      <trkpt lat="48.86315" lon="2.28339">
        <ele>76.400001525879</ele>
        <time>2016-02-15T21:05:58.000Z</time>
      </trkpt>
      <trkpt lat="48.86317" lon="2.28327">
        <ele>76.400001525879</ele>
        <time>2016-02-15T21:06:02.000Z</time>
      </trkpt>
      <trkpt lat="48.86323" lon="2.28296">
        <ele>77</ele>
        <time>2016-02-15T21:06:08.000Z</time>
      </trkpt>
      <trkpt lat="48.86328" lon="2.28269">
        <ele>75.599998474121</ele>
        <time>2016-02-15T21:06:12.000Z</time>
      </trkpt>
      <trkpt lat="48.86332" lon="2.28242">
        <ele>74.199996948242</ele>
        <time>2016-02-15T21:06:16.000Z</time>
      </trkpt>
      <trkpt lat="48.86337" lon="2.28214">
        <ele>72.800003051758</ele>
        <time>2016-02-15T21:06:20.000Z</time>
      </trkpt>
      <trkpt lat="48.86351" lon="2.28188">
        <ele>72.599998474121</ele>
        <time>2016-02-15T21:06:24.000Z</time>
      </trkpt>
      <trkpt lat="48.86355" lon="2.28164">
        <ele>73</ele>
        <time>2016-02-15T21:06:29.000Z</time>
      </trkpt>
      <trkpt lat="48.86356" lon="2.28159">
        <ele>73</ele>
        <time>2016-02-15T21:06:31.000Z</time>
      </trkpt>
      <trkpt lat="48.86362" lon="2.2813">
        <ele>73.400001525879</ele>
        <time>2016-02-15T21:06:37.000Z</time>
      </trkpt>
      <trkpt lat="48.86368" lon="2.28102">
        <ele>73.800003051758</ele>
        <time>2016-02-15T21:06:41.000Z</time>
      </trkpt>
      <trkpt lat="48.86373" lon="2.28074">
        <ele>72.599998474121</ele>
        <time>2016-02-15T21:06:45.000Z</time>
      </trkpt>
      <trkpt lat="48.86378" lon="2.28045">
        <ele>70.599998474121</ele>
        <time>2016-02-15T21:06:49.000Z</time>
      </trkpt>
      <trkpt lat="48.86375" lon="2.28012">
        <ele>68.800003051758</ele>
        <time>2016-02-15T21:06:53.000Z</time>
      </trkpt>
      <trkpt lat="48.86371" lon="2.2799">
        <ele>68.199996948242</ele>
        <time>2016-02-15T21:06:56.000Z</time>
      </trkpt>
      <trkpt lat="48.8638" lon="2.27966">
        <ele>67.199996948242</ele>
        <time>2016-02-15T21:07:00.000Z</time>
      </trkpt>
      <trkpt lat="48.86383" lon="2.27961">
        <ele>66.800003051758</ele>
        <time>2016-02-15T21:07:01.000Z</time>
      </trkpt>
      <trkpt lat="48.86394" lon="2.27965">
        <ele>66.400001525879</ele>
        <time>2016-02-15T21:07:06.000Z</time>
      </trkpt>
      <trkpt lat="48.86405" lon="2.27977">
        <ele>66.199996948242</ele>
        <time>2016-02-15T21:07:10.000Z</time>
      </trkpt>
      <trkpt lat="48.86412" lon="2.2799">
        <ele>66.199996948242</ele>
        <time>2016-02-15T21:07:14.000Z</time>
      </trkpt>
      <trkpt lat="48.86417" lon="2.28001">
        <ele>66.400001525879</ele>
        <time>2016-02-15T21:07:18.000Z</time>
      </trkpt>
      <trkpt lat="48.86431" lon="2.28023">
        <ele>66.599998474121</ele>
        <time>2016-02-15T21:07:27.000Z</time>
      </trkpt>
      <trkpt lat="48.86443" lon="2.28044">
        <ele>67.199996948242</ele>
        <time>2016-02-15T21:07:32.000Z</time>
      </trkpt>
      <trkpt lat="48.86454" lon="2.28068">
        <ele>68.199996948242</ele>
        <time>2016-02-15T21:07:37.000Z</time>
      </trkpt>
      <trkpt lat="48.8646" lon="2.28097">
        <ele>70</ele>
        <time>2016-02-15T21:07:43.000Z</time>
      </trkpt>
      <trkpt lat="48.86467" lon="2.28127">
        <ele>71.800003051758</ele>
        <time>2016-02-15T21:07:50.000Z</time>
      </trkpt>
      <trkpt lat="48.86478" lon="2.28156">
        <ele>73.599998474121</ele>
        <time>2016-02-15T21:07:56.000Z</time>
      </trkpt>
      <trkpt lat="48.86488" lon="2.28179">
        <ele>74.599998474121</ele>
        <time>2016-02-15T21:08:01.000Z</time>
      </trkpt>
      <trkpt lat="48.86499" lon="2.282">
        <ele>75.400001525879</ele>
        <time>2016-02-15T21:08:06.000Z</time>
      </trkpt>
      <trkpt lat="48.86512" lon="2.28223">
        <ele>76.199996948242</ele>
        <time>2016-02-15T21:08:11.000Z</time>
      </trkpt>
      <trkpt lat="48.86518" lon="2.2825">
        <ele>77</ele>
        <time>2016-02-15T21:08:16.000Z</time>
      </trkpt>
      <trkpt lat="48.86533" lon="2.28274">
        <ele>77.599998474121</ele>
        <time>2016-02-15T21:08:20.000Z</time>
      </trkpt>
      <trkpt lat="48.86548" lon="2.28295">
        <ele>78.199996948242</ele>
        <time>2016-02-15T21:08:24.000Z</time>
      </trkpt>
      <trkpt lat="48.86546" lon="2.28327">
        <ele>78.599998474121</ele>
        <time>2016-02-15T21:08:30.000Z</time>
      </trkpt>
      <trkpt lat="48.86529" lon="2.28352">
        <ele>77.599998474121</ele>
        <time>2016-02-15T21:08:38.000Z</time>
      </trkpt>
      <trkpt lat="48.86513" lon="2.28377">
        <ele>77.400001525879</ele>
        <time>2016-02-15T21:08:43.000Z</time>
      </trkpt>
      <trkpt lat="48.86508" lon="2.28406">
        <ele>77.199996948242</ele>
        <time>2016-02-15T21:08:48.000Z</time>
      </trkpt>
      <trkpt lat="48.86507" lon="2.28435">
        <ele>77.800003051758</ele>
        <time>2016-02-15T21:08:53.000Z</time>
      </trkpt>
      <trkpt lat="48.86508" lon="2.28465">
        <ele>78.400001525879</ele>
        <time>2016-02-15T21:08:58.000Z</time>
      </trkpt>
      <trkpt lat="48.86506" lon="2.28492">
        <ele>78.599998474121</ele>
        <time>2016-02-15T21:09:03.000Z</time>
      </trkpt>
      <trkpt lat="48.86503" lon="2.28521">
        <ele>77.599998474121</ele>
        <time>2016-02-15T21:09:09.000Z</time>
      </trkpt>
      <trkpt lat="48.86493" lon="2.28549">
        <ele>76.400001525879</ele>
        <time>2016-02-15T21:09:15.000Z</time>
      </trkpt>
      <trkpt lat="48.86487" lon="2.28581">
        <ele>75</ele>
        <time>2016-02-15T21:09:20.000Z</time>
      </trkpt>
      <trkpt lat="48.86482" lon="2.28611">
        <ele>74</ele>
        <time>2016-02-15T21:09:25.000Z</time>
      </trkpt>
      <trkpt lat="48.86483" lon="2.28639">
        <ele>73</ele>
        <time>2016-02-15T21:09:33.000Z</time>
      </trkpt>
      <trkpt lat="48.86487" lon="2.28644">
        <ele>72.800003051758</ele>
        <time>2016-02-15T21:09:40.000Z</time>
      </trkpt>
      <trkpt lat="48.86487" lon="2.28658">
        <ele>72.400001525879</ele>
        <time>2016-02-15T21:09:48.000Z</time>
      </trkpt>
      <trkpt lat="48.86482" lon="2.28688">
        <ele>70.800003051758</ele>
        <time>2016-02-15T21:09:58.000Z</time>
      </trkpt>
      <trkpt lat="48.86479" lon="2.28715">
        <ele>70.199996948242</ele>
        <time>2016-02-15T21:10:04.000Z</time>
      </trkpt>
      <trkpt lat="48.8648" lon="2.28744">
        <ele>70.400001525879</ele>
        <time>2016-02-15T21:10:09.000Z</time>
      </trkpt>
      <trkpt lat="48.86479" lon="2.28773">
        <ele>71.599998474121</ele>
        <time>2016-02-15T21:10:14.000Z</time>
      </trkpt>
      <trkpt lat="48.86477" lon="2.28802">
        <ele>72.400001525879</ele>
        <time>2016-02-15T21:10:19.000Z</time>
      </trkpt>
      <trkpt lat="48.8649" lon="2.28832">
        <ele>72.800003051758</ele>
        <time>2016-02-15T21:10:23.000Z</time>
      </trkpt>
      <trkpt lat="48.86502" lon="2.28864">
        <ele>72.400001525879</ele>
        <time>2016-02-15T21:10:29.000Z</time>
      </trkpt>
      <trkpt lat="48.86518" lon="2.28886">
        <ele>72.199996948242</ele>
        <time>2016-02-15T21:10:38.000Z</time>
      </trkpt>
      <trkpt lat="48.86538" lon="2.289">
        <ele>72.400001525879</ele>
        <time>2016-02-15T21:10:43.000Z</time>
      </trkpt>
      <trkpt lat="48.86556" lon="2.28913">
        <ele>72.800003051758</ele>
        <time>2016-02-15T21:10:47.000Z</time>
      </trkpt>
      <trkpt lat="48.86575" lon="2.28927">
        <ele>72.599998474121</ele>
        <time>2016-02-15T21:10:52.000Z</time>
      </trkpt>
      <trkpt lat="48.86592" lon="2.28943">
        <ele>72.199996948242</ele>
        <time>2016-02-15T21:10:56.000Z</time>
      </trkpt>
      <trkpt lat="48.86611" lon="2.28954">
        <ele>72.400001525879</ele>
        <time>2016-02-15T21:10:59.000Z</time>
      </trkpt>
      <trkpt lat="48.8663" lon="2.28964">
        <ele>73.199996948242</ele>
        <time>2016-02-15T21:11:02.000Z</time>
      </trkpt>
      <trkpt lat="48.86652" lon="2.28975">
        <ele>74.400001525879</ele>
        <time>2016-02-15T21:11:06.000Z</time>
      </trkpt>
      <trkpt lat="48.86669" lon="2.28986">
        <ele>75</ele>
        <time>2016-02-15T21:11:10.000Z</time>
      </trkpt>
      <trkpt lat="48.86676" lon="2.28992">
        <ele>75.199996948242</ele>
        <time>2016-02-15T21:11:12.000Z</time>
      </trkpt>
      <trkpt lat="48.86683" lon="2.28999">
        <ele>75.400001525879</ele>
        <time>2016-02-15T21:11:15.000Z</time>
      </trkpt>
      <trkpt lat="48.867" lon="2.29013">
        <ele>75</ele>
        <time>2016-02-15T21:11:18.000Z</time>
      </trkpt>
      <trkpt lat="48.8672" lon="2.29024">
        <ele>73.599998474121</ele>
        <time>2016-02-15T21:11:21.000Z</time>
      </trkpt>
      <trkpt lat="48.86725" lon="2.29028">
        <ele>73.199996948242</ele>
        <time>2016-02-15T21:11:22.000Z</time>
      </trkpt>
      <trkpt lat="48.86743" lon="2.29038">
        <ele>72</ele>
        <time>2016-02-15T21:11:26.000Z</time>
      </trkpt>
      <trkpt lat="48.86757" lon="2.29046">
        <ele>71</ele>
        <time>2016-02-15T21:11:30.000Z</time>
      </trkpt>
      <trkpt lat="48.86765" lon="2.29051">
        <ele>70.400001525879</ele>
        <time>2016-02-15T21:11:32.000Z</time>
      </trkpt>
      <trkpt lat="48.86783" lon="2.29063">
        <ele>69.599998474121</ele>
        <time>2016-02-15T21:11:36.000Z</time>
      </trkpt>
      <trkpt lat="48.86793" lon="2.29073">
        <ele>69.199996948242</ele>
        <time>2016-02-15T21:11:39.000Z</time>
      </trkpt>
      <trkpt lat="48.86807" lon="2.2909">
        <ele>69.400001525879</ele>
        <time>2016-02-15T21:11:43.000Z</time>
      </trkpt>
      <trkpt lat="48.86826" lon="2.29101">
        <ele>70</ele>
        <time>2016-02-15T21:11:46.000Z</time>
      </trkpt>
      <trkpt lat="48.86848" lon="2.29113">
        <ele>70.599998474121</ele>
        <time>2016-02-15T21:11:50.000Z</time>
      </trkpt>
      <trkpt lat="48.86867" lon="2.29124">
        <ele>71.199996948242</ele>
        <time>2016-02-15T21:11:54.000Z</time>
      </trkpt>
      <trkpt lat="48.86891" lon="2.29131">
        <ele>71.400001525879</ele>
        <time>2016-02-15T21:11:58.000Z</time>
      </trkpt>
      <trkpt lat="48.86905" lon="2.29136">
        <ele>71.800003051758</ele>
        <time>2016-02-15T21:12:01.000Z</time>
      </trkpt>
      <trkpt lat="48.86925" lon="2.29144">
        <ele>72.400001525879</ele>
        <time>2016-02-15T21:12:04.000Z</time>
      </trkpt>
      <trkpt lat="48.86941" lon="2.29157">
        <ele>73.199996948242</ele>
        <time>2016-02-15T21:12:08.000Z</time>
      </trkpt>
      <trkpt lat="48.86959" lon="2.29176">
        <ele>73.199996948242</ele>
        <time>2016-02-15T21:12:13.000Z</time>
      </trkpt>
      <trkpt lat="48.86968" lon="2.29189">
        <ele>72.800003051758</ele>
        <time>2016-02-15T21:12:16.000Z</time>
      </trkpt>
      <trkpt lat="48.86987" lon="2.29203">
        <ele>73</ele>
        <time>2016-02-15T21:12:20.000Z</time>
      </trkpt>
      <trkpt lat="48.87002" lon="2.29214">
        <ele>73</ele>
        <time>2016-02-15T21:12:23.000Z</time>
      </trkpt>
      <trkpt lat="48.87019" lon="2.29233">
        <ele>72.599998474121</ele>
        <time>2016-02-15T21:12:27.000Z</time>
      </trkpt>
      <trkpt lat="48.87047" lon="2.29248">
        <ele>73.400001525879</ele>
        <time>2016-02-15T21:12:29.000Z</time>
      </trkpt>
      <trkpt lat="48.8707" lon="2.29262">
        <ele>74</ele>
        <time>2016-02-15T21:12:31.000Z</time>
      </trkpt>
      <trkpt lat="48.87086" lon="2.29277">
        <ele>74.400001525879</ele>
        <time>2016-02-15T21:12:34.000Z</time>
      </trkpt>
      <trkpt lat="48.87105" lon="2.29295">
        <ele>74.599998474121</ele>
        <time>2016-02-15T21:12:38.000Z</time>
      </trkpt>
      <trkpt lat="48.87117" lon="2.29322">
        <ele>72.800003051758</ele>
        <time>2016-02-15T21:12:43.000Z</time>
      </trkpt>
      <trkpt lat="48.87135" lon="2.29334">
        <ele>71.199996948242</ele>
        <time>2016-02-15T21:12:47.000Z</time>
      </trkpt>
      <trkpt lat="48.87156" lon="2.29347">
        <ele>69.599998474121</ele>
        <time>2016-02-15T21:12:51.000Z</time>
      </trkpt>
      <trkpt lat="48.87176" lon="2.29359">
        <ele>68</ele>
        <time>2016-02-15T21:12:55.000Z</time>
      </trkpt>
      <trkpt lat="48.8718" lon="2.29362">
        <ele>67.800003051758</ele>
        <time>2016-02-15T21:12:56.000Z</time>
      </trkpt>
      <trkpt lat="48.87194" lon="2.29372">
        <ele>67</ele>
        <time>2016-02-15T21:13:00.000Z</time>
      </trkpt>
      <trkpt lat="48.87191" lon="2.2938">
        <ele>66.800003051758</ele>
        <time>2016-02-15T21:13:07.000Z</time>
      </trkpt>
      <trkpt lat="48.87199" lon="2.29387">
        <ele>66.599998474121</ele>
        <time>2016-02-15T21:13:11.000Z</time>
      </trkpt>
      <trkpt lat="48.872" lon="2.2939">
        <ele>66.400001525879</ele>
        <time>2016-02-15T21:13:14.000Z</time>
      </trkpt>
      <trkpt lat="48.87205" lon="2.29419">
        <ele>65.599998474121</ele>
        <time>2016-02-15T21:13:44.000Z</time>
      </trkpt>
      <trkpt lat="48.872" lon="2.29447">
        <ele>65.599998474121</ele>
        <time>2016-02-15T21:13:51.000Z</time>
      </trkpt>
      <trkpt lat="48.87204" lon="2.29479">
        <ele>65.400001525879</ele>
        <time>2016-02-15T21:14:00.000Z</time>
      </trkpt>
      <trkpt lat="48.8722" lon="2.2951">
        <ele>64.599998474121</ele>
        <time>2016-02-15T21:14:09.000Z</time>
      </trkpt>
      <trkpt lat="48.87215" lon="2.29541">
        <ele>64.400001525879</ele>
        <time>2016-02-15T21:14:19.000Z</time>
      </trkpt>
      <trkpt lat="48.8723" lon="2.29566">
        <ele>63.599998474121</ele>
        <time>2016-02-15T21:14:24.000Z</time>
      </trkpt>
      <trkpt lat="48.87247" lon="2.29592">
        <ele>63.200000762939</ele>
        <time>2016-02-15T21:14:29.000Z</time>
      </trkpt>
      <trkpt lat="48.87249" lon="2.29605">
        <ele>63.599998474121</ele>
        <time>2016-02-15T21:14:31.000Z</time>
      </trkpt>
      <trkpt lat="48.87256" lon="2.29632">
        <ele>64.599998474121</ele>
        <time>2016-02-15T21:14:37.000Z</time>
      </trkpt>
      <trkpt lat="48.87271" lon="2.29655">
        <ele>64.800003051758</ele>
        <time>2016-02-15T21:14:44.000Z</time>
      </trkpt>
      <trkpt lat="48.87285" lon="2.29673">
        <ele>64.800003051758</ele>
        <time>2016-02-15T21:14:49.000Z</time>
      </trkpt>
      <trkpt lat="48.87293" lon="2.29695">
        <ele>65.199996948242</ele>
        <time>2016-02-15T21:14:56.000Z</time>
      </trkpt>
      <trkpt lat="48.8729" lon="2.29711">
        <ele>66.400001525879</ele>
        <time>2016-02-15T21:15:04.000Z</time>
      </trkpt>
      <trkpt lat="48.87292" lon="2.29706">
        <ele>66</ele>
        <time>2016-02-15T21:15:32.000Z</time>
      </trkpt>
      <trkpt lat="48.87287" lon="2.29726">
        <ele>67.599998474121</ele>
        <time>2016-02-15T21:15:38.000Z</time>
      </trkpt>
      <trkpt lat="48.87275" lon="2.29751">
        <ele>69.800003051758</ele>
        <time>2016-02-15T21:15:43.000Z</time>
      </trkpt>
      <trkpt lat="48.87266" lon="2.29779">
        <ele>69</ele>
        <time>2016-02-15T21:15:49.000Z</time>
      </trkpt>
      <trkpt lat="48.87259" lon="2.29806">
        <ele>68</ele>
        <time>2016-02-15T21:15:55.000Z</time>
      </trkpt>
      <trkpt lat="48.87251" lon="2.29833">
        <ele>67.599998474121</ele>
        <time>2016-02-15T21:16:02.000Z</time>
      </trkpt>
      <trkpt lat="48.87241" lon="2.29859">
        <ele>66.800003051758</ele>
        <time>2016-02-15T21:16:08.000Z</time>
      </trkpt>
      <trkpt lat="48.87232" lon="2.29884">
        <ele>65.800003051758</ele>
        <time>2016-02-15T21:16:13.000Z</time>
      </trkpt>
      <trkpt lat="48.87223" lon="2.29911">
        <ele>64.400001525879</ele>
        <time>2016-02-15T21:16:18.000Z</time>
      </trkpt>
      <trkpt lat="48.87212" lon="2.29939">
        <ele>64</ele>
        <time>2016-02-15T21:16:23.000Z</time>
      </trkpt>
      <trkpt lat="48.87202" lon="2.29967">
        <ele>62.599998474121</ele>
        <time>2016-02-15T21:16:27.000Z</time>
      </trkpt>
      <trkpt lat="48.87191" lon="2.29996">
        <ele>61</ele>
        <time>2016-02-15T21:16:31.000Z</time>
      </trkpt>
      <trkpt lat="48.87181" lon="2.30023">
        <ele>60.200000762939</ele>
        <time>2016-02-15T21:16:36.000Z</time>
      </trkpt>
      <trkpt lat="48.8718" lon="2.30029">
        <ele>60</ele>
        <time>2016-02-15T21:16:37.000Z</time>
      </trkpt>
      <trkpt lat="48.87177" lon="2.3004">
        <ele>59.400001525879</ele>
        <time>2016-02-15T21:16:39.000Z</time>
      </trkpt>
      <trkpt lat="48.87178" lon="2.30063">
        <ele>58.400001525879</ele>
        <time>2016-02-15T21:16:43.000Z</time>
      </trkpt>
      <trkpt lat="48.87178" lon="2.30067">
        <ele>58.200000762939</ele>
        <time>2016-02-15T21:16:44.000Z</time>
      </trkpt>
      <trkpt lat="48.87175" lon="2.30092">
        <ele>57</ele>
        <time>2016-02-15T21:17:08.000Z</time>
      </trkpt>
      <trkpt lat="48.87165" lon="2.30119">
        <ele>56.599998474121</ele>
        <time>2016-02-15T21:17:15.000Z</time>
      </trkpt>
      <trkpt lat="48.87155" lon="2.30149">
        <ele>55</ele>
        <time>2016-02-15T21:17:20.000Z</time>
      </trkpt>
      <trkpt lat="48.87154" lon="2.30156">
        <ele>54.400001525879</ele>
        <time>2016-02-15T21:17:21.000Z</time>
      </trkpt>
      <trkpt lat="48.87147" lon="2.30186">
        <ele>53.400001525879</ele>
        <time>2016-02-15T21:17:26.000Z</time>
      </trkpt>
      <trkpt lat="48.87138" lon="2.30214">
        <ele>53.400001525879</ele>
        <time>2016-02-15T21:17:30.000Z</time>
      </trkpt>
      <trkpt lat="48.87131" lon="2.30235">
        <ele>53.400001525879</ele>
        <time>2016-02-15T21:17:37.000Z</time>
      </trkpt>
      <trkpt lat="48.87122" lon="2.30253">
        <ele>53.599998474121</ele>
        <time>2016-02-15T21:18:04.000Z</time>
      </trkpt>
      <trkpt lat="48.87111" lon="2.30274">
        <ele>53.799999237061</ele>
        <time>2016-02-15T21:18:09.000Z</time>
      </trkpt>
      <trkpt lat="48.87097" lon="2.30292">
        <ele>54.200000762939</ele>
        <time>2016-02-15T21:18:14.000Z</time>
      </trkpt>
      <trkpt lat="48.87085" lon="2.30319">
        <ele>54.799999237061</ele>
        <time>2016-02-15T21:18:21.000Z</time>
      </trkpt>
      <trkpt lat="48.87074" lon="2.30343">
        <ele>55</ele>
        <time>2016-02-15T21:18:27.000Z</time>
      </trkpt>
      <trkpt lat="48.87068" lon="2.3037">
        <ele>55</ele>
        <time>2016-02-15T21:18:34.000Z</time>
      </trkpt>
      <trkpt lat="48.87058" lon="2.30398">
        <ele>55.400001525879</ele>
        <time>2016-02-15T21:18:39.000Z</time>
      </trkpt>
      <trkpt lat="48.87048" lon="2.30425">
        <ele>55.200000762939</ele>
        <time>2016-02-15T21:18:43.000Z</time>
      </trkpt>
      <trkpt lat="48.87036" lon="2.30452">
        <ele>53.799999237061</ele>
        <time>2016-02-15T21:18:47.000Z</time>
      </trkpt>
      <trkpt lat="48.87023" lon="2.30479">
        <ele>52</ele>
        <time>2016-02-15T21:18:51.000Z</time>
      </trkpt>
      <trkpt lat="48.87013" lon="2.30508">
        <ele>50.599998474121</ele>
        <time>2016-02-15T21:18:56.000Z</time>
      </trkpt>
      <trkpt lat="48.87012" lon="2.30515">
        <ele>50.400001525879</ele>
        <time>2016-02-15T21:18:57.000Z</time>
      </trkpt>
      <trkpt lat="48.87008" lon="2.30545">
        <ele>49</ele>
        <time>2016-02-15T21:19:01.000Z</time>
      </trkpt>
      <trkpt lat="48.87003" lon="2.3056">
        <ele>48.400001525879</ele>
        <time>2016-02-15T21:19:03.000Z</time>
      </trkpt>
      <trkpt lat="48.86997" lon="2.30575">
        <ele>48.599998474121</ele>
        <time>2016-02-15T21:19:05.000Z</time>
      </trkpt>
      <trkpt lat="48.86984" lon="2.30599">
        <ele>50.200000762939</ele>
        <time>2016-02-15T21:19:09.000Z</time>
      </trkpt>
      <trkpt lat="48.86973" lon="2.3062">
        <ele>51.400001525879</ele>
        <time>2016-02-15T21:19:13.000Z</time>
      </trkpt>
      <trkpt lat="48.86971" lon="2.30643">
        <ele>50.799999237061</ele>
        <time>2016-02-15T21:19:17.000Z</time>
      </trkpt>
      <trkpt lat="48.86981" lon="2.30683">
        <ele>50.200000762939</ele>
        <time>2016-02-15T21:19:24.000Z</time>
      </trkpt>
      <trkpt lat="48.86977" lon="2.30695">
        <ele>50</ele>
        <time>2016-02-15T21:19:27.000Z</time>
      </trkpt>
      <trkpt lat="48.86973" lon="2.30705">
        <ele>49.200000762939</ele>
        <time>2016-02-15T21:19:29.000Z</time>
      </trkpt>
      <trkpt lat="48.86964" lon="2.3073">
        <ele>46.400001525879</ele>
        <time>2016-02-15T21:19:33.000Z</time>
      </trkpt>
      <trkpt lat="48.86966" lon="2.30764">
        <ele>44</ele>
        <time>2016-02-15T21:19:37.000Z</time>
      </trkpt>
      <trkpt lat="48.86965" lon="2.30773">
        <ele>43.400001525879</ele>
        <time>2016-02-15T21:19:38.000Z</time>
      </trkpt>
      <trkpt lat="48.86955" lon="2.30803">
        <ele>43.200000762939</ele>
        <time>2016-02-15T21:19:42.000Z</time>
      </trkpt>
      <trkpt lat="48.86943" lon="2.30833">
        <ele>43</ele>
        <time>2016-02-15T21:19:46.000Z</time>
      </trkpt>
      <trkpt lat="48.86931" lon="2.30861">
        <ele>43.200000762939</ele>
        <time>2016-02-15T21:19:50.000Z</time>
      </trkpt>
      <trkpt lat="48.86922" lon="2.30888">
        <ele>43.200000762939</ele>
        <time>2016-02-15T21:19:55.000Z</time>
      </trkpt>
      <trkpt lat="48.8692" lon="2.30893">
        <ele>43.200000762939</ele>
        <time>2016-02-15T21:19:57.000Z</time>
      </trkpt>
      <trkpt lat="48.8692" lon="2.3091">
        <ele>42.599998474121</ele>
        <time>2016-02-15T21:20:38.000Z</time>
      </trkpt>
      <trkpt lat="48.86913" lon="2.30923">
        <ele>42.400001525879</ele>
        <time>2016-02-15T21:20:43.000Z</time>
      </trkpt>
      <trkpt lat="48.86895" lon="2.30929">
        <ele>42.200000762939</ele>
        <time>2016-02-15T21:20:49.000Z</time>
      </trkpt>
      <trkpt lat="48.86877" lon="2.30939">
        <ele>41.599998474121</ele>
        <time>2016-02-15T21:20:55.000Z</time>
      </trkpt>
      <trkpt lat="48.86866" lon="2.30945">
        <ele>40.599998474121</ele>
        <time>2016-02-15T21:20:59.000Z</time>
      </trkpt>
      <trkpt lat="48.86858" lon="2.3096">
        <ele>39.400001525879</ele>
        <time>2016-02-15T21:21:05.000Z</time>
      </trkpt>
      <trkpt lat="48.8685" lon="2.30989">
        <ele>38.799999237061</ele>
        <time>2016-02-15T21:21:11.000Z</time>
      </trkpt>
      <trkpt lat="48.86851" lon="2.31018">
        <ele>37</ele>
        <time>2016-02-15T21:21:18.000Z</time>
      </trkpt>
      <trkpt lat="48.86854" lon="2.31044">
        <ele>35.799999237061</ele>
        <time>2016-02-15T21:21:24.000Z</time>
      </trkpt>
      <trkpt lat="48.86865" lon="2.31066">
        <ele>35.599998474121</ele>
        <time>2016-02-15T21:21:29.000Z</time>
      </trkpt>
      <trkpt lat="48.86865" lon="2.31072">
        <ele>35.400001525879</ele>
        <time>2016-02-15T21:21:30.000Z</time>
      </trkpt>
      <trkpt lat="48.86855" lon="2.311">
        <ele>34.200000762939</ele>
        <time>2016-02-15T21:21:35.000Z</time>
      </trkpt>
      <trkpt lat="48.86845" lon="2.3113">
        <ele>35</ele>
        <time>2016-02-15T21:21:40.000Z</time>
      </trkpt>
      <trkpt lat="48.86838" lon="2.31156">
        <ele>35.799999237061</ele>
        <time>2016-02-15T21:21:44.000Z</time>
      </trkpt>
      <trkpt lat="48.8683" lon="2.31185">
        <ele>35.799999237061</ele>
        <time>2016-02-15T21:21:49.000Z</time>
      </trkpt>
      <trkpt lat="48.86823" lon="2.31213">
        <ele>35.200000762939</ele>
        <time>2016-02-15T21:21:55.000Z</time>
      </trkpt>
      <trkpt lat="48.86814" lon="2.31239">
        <ele>35.599998474121</ele>
        <time>2016-02-15T21:22:03.000Z</time>
      </trkpt>
      <trkpt lat="48.86812" lon="2.31239">
        <ele>35.799999237061</ele>
        <time>2016-02-15T21:22:04.000Z</time>
      </trkpt>
      <trkpt lat="48.86794" lon="2.3123">
        <ele>37.400001525879</ele>
        <time>2016-02-15T21:22:12.000Z</time>
      </trkpt>
      <trkpt lat="48.86777" lon="2.31219">
        <ele>39</ele>
        <time>2016-02-15T21:22:18.000Z</time>
      </trkpt>
      <trkpt lat="48.8676" lon="2.31207">
        <ele>40.799999237061</ele>
        <time>2016-02-15T21:22:24.000Z</time>
      </trkpt>
      <trkpt lat="48.86746" lon="2.312">
        <ele>42.400001525879</ele>
        <time>2016-02-15T21:22:31.000Z</time>
      </trkpt>
      <trkpt lat="48.86745" lon="2.31215">
        <ele>42.400001525879</ele>
        <time>2016-02-15T21:22:36.000Z</time>
      </trkpt>
      <trkpt lat="48.86747" lon="2.31245">
        <ele>43</ele>
        <time>2016-02-15T21:22:42.000Z</time>
      </trkpt>
      <trkpt lat="48.86746" lon="2.31275">
        <ele>43.200000762939</ele>
        <time>2016-02-15T21:22:47.000Z</time>
      </trkpt>
      <trkpt lat="48.8674" lon="2.31307">
        <ele>43.400001525879</ele>
        <time>2016-02-15T21:22:52.000Z</time>
      </trkpt>
      <trkpt lat="48.86732" lon="2.31332">
        <ele>41.799999237061</ele>
        <time>2016-02-15T21:22:57.000Z</time>
      </trkpt>
      <trkpt lat="48.86723" lon="2.31359">
        <ele>41.599998474121</ele>
        <time>2016-02-15T21:23:04.000Z</time>
      </trkpt>
      <trkpt lat="48.86711" lon="2.31378">
        <ele>39.200000762939</ele>
        <time>2016-02-15T21:23:12.000Z</time>
      </trkpt>
      <trkpt lat="48.86703" lon="2.31383">
        <ele>38.400001525879</ele>
        <time>2016-02-15T21:23:16.000Z</time>
      </trkpt>
      <trkpt lat="48.86689" lon="2.31397">
        <ele>36.200000762939</ele>
        <time>2016-02-15T21:23:23.000Z</time>
      </trkpt>
      <trkpt lat="48.86671" lon="2.31405">
        <ele>36.200000762939</ele>
        <time>2016-02-15T21:23:31.000Z</time>
      </trkpt>
      <trkpt lat="48.86667" lon="2.31408">
        <ele>36.200000762939</ele>
        <time>2016-02-15T21:23:35.000Z</time>
      </trkpt>
      <trkpt lat="48.86668" lon="2.31414">
        <ele>35.599998474121</ele>
        <time>2016-02-15T21:23:40.000Z</time>
      </trkpt>
      <trkpt lat="48.86671" lon="2.31442">
        <ele>36.599998474121</ele>
        <time>2016-02-15T21:23:47.000Z</time>
      </trkpt>
      <trkpt lat="48.86667" lon="2.31469">
        <ele>38.200000762939</ele>
        <time>2016-02-15T21:23:53.000Z</time>
      </trkpt>
      <trkpt lat="48.86659" lon="2.31495">
        <ele>38.400001525879</ele>
        <time>2016-02-15T21:23:58.000Z</time>
      </trkpt>
      <trkpt lat="48.86649" lon="2.31523">
        <ele>39.200000762939</ele>
        <time>2016-02-15T21:24:03.000Z</time>
      </trkpt>
      <trkpt lat="48.86643" lon="2.31553">
        <ele>39.400001525879</ele>
        <time>2016-02-15T21:24:08.000Z</time>
      </trkpt>
      <trkpt lat="48.86636" lon="2.31566">
        <ele>39.400001525879</ele>
        <time>2016-02-15T21:24:12.000Z</time>
      </trkpt>
      <trkpt lat="48.86618" lon="2.31566">
        <ele>39.200000762939</ele>
        <time>2016-02-15T21:24:17.000Z</time>
      </trkpt>
      <trkpt lat="48.86614" lon="2.31566">
        <ele>39</ele>
        <time>2016-02-15T21:24:18.000Z</time>
      </trkpt>
      <trkpt lat="48.86595" lon="2.31567">
        <ele>39.599998474121</ele>
        <time>2016-02-15T21:24:23.000Z</time>
      </trkpt>
      <trkpt lat="48.86575" lon="2.31569">
        <ele>38.599998474121</ele>
        <time>2016-02-15T21:24:28.000Z</time>
      </trkpt>
      <trkpt lat="48.86557" lon="2.31562">
        <ele>38.599998474121</ele>
        <time>2016-02-15T21:24:32.000Z</time>
      </trkpt>
      <trkpt lat="48.86537" lon="2.31561">
        <ele>37.799999237061</ele>
        <time>2016-02-15T21:24:38.000Z</time>
      </trkpt>
      <trkpt lat="48.86521" lon="2.31573">
        <ele>35.400001525879</ele>
        <time>2016-02-15T21:24:47.000Z</time>
      </trkpt>
      <trkpt lat="48.8652" lon="2.3159">
        <ele>34</ele>
        <time>2016-02-15T21:24:52.000Z</time>
      </trkpt>
      <trkpt lat="48.86521" lon="2.3162">
        <ele>32</ele>
        <time>2016-02-15T21:24:58.000Z</time>
      </trkpt>
      <trkpt lat="48.86522" lon="2.31648">
        <ele>30</ele>
        <time>2016-02-15T21:25:03.000Z</time>
      </trkpt>
      <trkpt lat="48.86522" lon="2.31679">
        <ele>30</ele>
        <time>2016-02-15T21:25:08.000Z</time>
      </trkpt>
      <trkpt lat="48.86523" lon="2.31712">
        <ele>32</ele>
        <time>2016-02-15T21:25:13.000Z</time>
      </trkpt>
      <trkpt lat="48.86524" lon="2.31746">
        <ele>34</ele>
        <time>2016-02-15T21:25:18.000Z</time>
      </trkpt>
      <trkpt lat="48.86527" lon="2.31774">
        <ele>34</ele>
        <time>2016-02-15T21:25:22.000Z</time>
      </trkpt>
      <trkpt lat="48.86527" lon="2.31802">
        <ele>34</ele>
        <time>2016-02-15T21:25:27.000Z</time>
      </trkpt>
      <trkpt lat="48.8652" lon="2.31829">
        <ele>34</ele>
        <time>2016-02-15T21:25:35.000Z</time>
      </trkpt>
      <trkpt lat="48.86511" lon="2.31857">
        <ele>33</ele>
        <time>2016-02-15T21:25:42.000Z</time>
      </trkpt>
      <trkpt lat="48.86512" lon="2.31886">
        <ele>31.799999237061</ele>
        <time>2016-02-15T21:25:49.000Z</time>
      </trkpt>
      <trkpt lat="48.86511" lon="2.31892">
        <ele>31.60000038147</ele>
        <time>2016-02-15T21:25:52.000Z</time>
      </trkpt>
      <trkpt lat="48.86515" lon="2.31905">
        <ele>31.200000762939</ele>
        <time>2016-02-15T21:26:14.000Z</time>
      </trkpt>
      <trkpt lat="48.86525" lon="2.31921">
        <ele>31</ele>
        <time>2016-02-15T21:26:21.000Z</time>
      </trkpt>
      <trkpt lat="48.86523" lon="2.31929">
        <ele>31.200000762939</ele>
        <time>2016-02-15T21:26:27.000Z</time>
      </trkpt>
      <trkpt lat="48.86516" lon="2.31942">
        <ele>31</ele>
        <time>2016-02-15T21:26:38.000Z</time>
      </trkpt>
      <trkpt lat="48.86502" lon="2.3196">
        <ele>30.60000038147</ele>
        <time>2016-02-15T21:26:45.000Z</time>
      </trkpt>
      <trkpt lat="48.86498" lon="2.31972">
        <ele>30.60000038147</ele>
        <time>2016-02-15T21:26:48.000Z</time>
      </trkpt>
      <trkpt lat="48.86485" lon="2.31995">
        <ele>31</ele>
        <time>2016-02-15T21:26:55.000Z</time>
      </trkpt>
      <trkpt lat="48.8647" lon="2.32013">
        <ele>31.200000762939</ele>
        <time>2016-02-15T21:27:01.000Z</time>
      </trkpt>
      <trkpt lat="48.86454" lon="2.32011">
        <ele>30.60000038147</ele>
        <time>2016-02-15T21:27:09.000Z</time>
      </trkpt>
      <trkpt lat="48.86444" lon="2.32004">
        <ele>30.39999961853</ele>
        <time>2016-02-15T21:27:14.000Z</time>
      </trkpt>
      <trkpt lat="48.86426" lon="2.31989">
        <ele>29.39999961853</ele>
        <time>2016-02-15T21:27:23.000Z</time>
      </trkpt>
      <trkpt lat="48.86408" lon="2.31992">
        <ele>29.200000762939</ele>
        <time>2016-02-15T21:27:32.000Z</time>
      </trkpt>
      <trkpt lat="48.86408" lon="2.31992">
        <ele>29.200000762939</ele>
        <time>2016-02-15T21:27:33.000Z</time>
      </trkpt>
      <trkpt lat="48.86405" lon="2.32013">
        <ele>29.799999237061</ele>
        <time>2016-02-15T21:28:16.000Z</time>
      </trkpt>
      <trkpt lat="48.86401" lon="2.32041">
        <ele>30.60000038147</ele>
        <time>2016-02-15T21:28:22.000Z</time>
      </trkpt>
      <trkpt lat="48.86393" lon="2.32068">
        <ele>30.200000762939</ele>
        <time>2016-02-15T21:28:27.000Z</time>
      </trkpt>
      <trkpt lat="48.86383" lon="2.32098">
        <ele>30.200000762939</ele>
        <time>2016-02-15T21:28:32.000Z</time>
      </trkpt>
      <trkpt lat="48.8638" lon="2.32104">
        <ele>30.200000762939</ele>
        <time>2016-02-15T21:28:33.000Z</time>
      </trkpt>
      <trkpt lat="48.86371" lon="2.32129">
        <ele>29.799999237061</ele>
        <time>2016-02-15T21:28:37.000Z</time>
      </trkpt>
      <trkpt lat="48.86363" lon="2.32152">
        <ele>29.39999961853</ele>
        <time>2016-02-15T21:28:40.000Z</time>
      </trkpt>
      <trkpt lat="48.86353" lon="2.32175">
        <ele>29.39999961853</ele>
        <time>2016-02-15T21:28:43.000Z</time>
      </trkpt>
      <trkpt lat="48.86342" lon="2.32199">
        <ele>30.39999961853</ele>
        <time>2016-02-15T21:28:46.000Z</time>
      </trkpt>
      <trkpt lat="48.8633" lon="2.32227">
        <ele>31.200000762939</ele>
        <time>2016-02-15T21:28:49.000Z</time>
      </trkpt>
      <trkpt lat="48.8632" lon="2.32258">
        <ele>31.200000762939</ele>
        <time>2016-02-15T21:28:52.000Z</time>
      </trkpt>
      <trkpt lat="48.8631" lon="2.32291">
        <ele>30.39999961853</ele>
        <time>2016-02-15T21:28:55.000Z</time>
      </trkpt>
      <trkpt lat="48.86302" lon="2.32324">
        <ele>30</ele>
        <time>2016-02-15T21:28:58.000Z</time>
      </trkpt>
      <trkpt lat="48.86294" lon="2.32358">
        <ele>29.60000038147</ele>
        <time>2016-02-15T21:29:01.000Z</time>
      </trkpt>
      <trkpt lat="48.86284" lon="2.3239">
        <ele>28.200000762939</ele>
        <time>2016-02-15T21:29:04.000Z</time>
      </trkpt>
      <trkpt lat="48.86273" lon="2.32425">
        <ele>27.39999961853</ele>
        <time>2016-02-15T21:29:07.000Z</time>
      </trkpt>
      <trkpt lat="48.86263" lon="2.32459">
        <ele>28</ele>
        <time>2016-02-15T21:29:10.000Z</time>
      </trkpt>
      <trkpt lat="48.86254" lon="2.32493">
        <ele>28.799999237061</ele>
        <time>2016-02-15T21:29:13.000Z</time>
      </trkpt>
      <trkpt lat="48.86244" lon="2.32526">
        <ele>29.60000038147</ele>
        <time>2016-02-15T21:29:16.000Z</time>
      </trkpt>
      <trkpt lat="48.86235" lon="2.32557">
        <ele>30.200000762939</ele>
        <time>2016-02-15T21:29:19.000Z</time>
      </trkpt>
      <trkpt lat="48.86225" lon="2.32588">
        <ele>30.60000038147</ele>
        <time>2016-02-15T21:29:22.000Z</time>
      </trkpt>
      <trkpt lat="48.86215" lon="2.3262">
        <ele>30.799999237061</ele>
        <time>2016-02-15T21:29:25.000Z</time>
      </trkpt>
      <trkpt lat="48.86205" lon="2.32652">
        <ele>29.799999237061</ele>
        <time>2016-02-15T21:29:28.000Z</time>
      </trkpt>
      <trkpt lat="48.86196" lon="2.32689">
        <ele>29.799999237061</ele>
        <time>2016-02-15T21:29:31.000Z</time>
      </trkpt>
      <trkpt lat="48.86187" lon="2.32725">
        <ele>31.200000762939</ele>
        <time>2016-02-15T21:29:34.000Z</time>
      </trkpt>
      <trkpt lat="48.86177" lon="2.32759">
        <ele>31.799999237061</ele>
        <time>2016-02-15T21:29:37.000Z</time>
      </trkpt>
      <trkpt lat="48.86167" lon="2.32793">
        <ele>32.799999237061</ele>
        <time>2016-02-15T21:29:40.000Z</time>
      </trkpt>
      <trkpt lat="48.86157" lon="2.32829">
        <ele>32.200000762939</ele>
        <time>2016-02-15T21:29:43.000Z</time>
      </trkpt>
      <trkpt lat="48.86148" lon="2.32862">
        <ele>31.39999961853</ele>
        <time>2016-02-15T21:29:46.000Z</time>
      </trkpt>
      <trkpt lat="48.86138" lon="2.32894">
        <ele>32.799999237061</ele>
        <time>2016-02-15T21:29:49.000Z</time>
      </trkpt>
      <trkpt lat="48.86129" lon="2.32922">
        <ele>34.200000762939</ele>
        <time>2016-02-15T21:29:52.000Z</time>
      </trkpt>
      <trkpt lat="48.86118" lon="2.32952">
        <ele>37</ele>
        <time>2016-02-15T21:29:56.000Z</time>
      </trkpt>
      <trkpt lat="48.86108" lon="2.32976">
        <ele>41.200000762939</ele>
        <time>2016-02-15T21:30:00.000Z</time>
      </trkpt>
      <trkpt lat="48.86098" lon="2.32994">
        <ele>43.599998474121</ele>
        <time>2016-02-15T21:30:04.000Z</time>
      </trkpt>
      <trkpt lat="48.86088" lon="2.33005">
        <ele>42.599998474121</ele>
        <time>2016-02-15T21:30:09.000Z</time>
      </trkpt>
      <trkpt lat="48.86093" lon="2.33003">
        <ele>43</ele>
        <time>2016-02-15T21:31:08.000Z</time>
      </trkpt>
      <trkpt lat="48.8611" lon="2.33014">
        <ele>42.799999237061</ele>
        <time>2016-02-15T21:31:13.000Z</time>
      </trkpt>
      <trkpt lat="48.86131" lon="2.33029">
        <ele>41.200000762939</ele>
        <time>2016-02-15T21:31:17.000Z</time>
      </trkpt>
      <trkpt lat="48.86152" lon="2.33043">
        <ele>39.599998474121</ele>
        <time>2016-02-15T21:31:20.000Z</time>
      </trkpt>
      <trkpt lat="48.86174" lon="2.33059">
        <ele>37.599998474121</ele>
        <time>2016-02-15T21:31:23.000Z</time>
      </trkpt>
      <trkpt lat="48.86194" lon="2.33073">
        <ele>36</ele>
        <time>2016-02-15T21:31:26.000Z</time>
      </trkpt>
      <trkpt lat="48.86216" lon="2.33089">
        <ele>35.599998474121</ele>
        <time>2016-02-15T21:31:29.000Z</time>
      </trkpt>
      <trkpt lat="48.86238" lon="2.33104">
        <ele>35.599998474121</ele>
        <time>2016-02-15T21:31:32.000Z</time>
      </trkpt>
      <trkpt lat="48.8629" lon="2.33135">
        <ele>36.400001525879</ele>
        <time>2016-02-15T21:31:41.000Z</time>
      </trkpt>
      <trkpt lat="48.86321" lon="2.33161">
        <ele>38</ele>
        <time>2016-02-15T21:31:44.000Z</time>
      </trkpt>
      <trkpt lat="48.86333" lon="2.3317">
        <ele>38.799999237061</ele>
        <time>2016-02-15T21:31:45.000Z</time>
      </trkpt>
      <trkpt lat="48.86342" lon="2.3318">
        <ele>39.599998474121</ele>
        <time>2016-02-15T21:31:47.000Z</time>
      </trkpt>
      <trkpt lat="48.86353" lon="2.33191">
        <ele>40.599998474121</ele>
        <time>2016-02-15T21:31:51.000Z</time>
      </trkpt>
      <trkpt lat="48.86367" lon="2.33205">
        <ele>41.799999237061</ele>
        <time>2016-02-15T21:31:58.000Z</time>
      </trkpt>
      <trkpt lat="48.86366" lon="2.3321">
        <ele>42</ele>
        <time>2016-02-15T21:32:23.000Z</time>
      </trkpt>
      <trkpt lat="48.86368" lon="2.3321">
        <ele>42.200000762939</ele>
        <time>2016-02-15T21:32:25.000Z</time>
      </trkpt>
      <trkpt lat="48.86385" lon="2.33226">
        <ele>43.799999237061</ele>
        <time>2016-02-15T21:32:39.000Z</time>
      </trkpt>
      <trkpt lat="48.86401" lon="2.33241">
        <ele>45.200000762939</ele>
        <time>2016-02-15T21:32:44.000Z</time>
      </trkpt>
      <trkpt lat="48.86421" lon="2.33258">
        <ele>46.400001525879</ele>
        <time>2016-02-15T21:32:49.000Z</time>
      </trkpt>
      <trkpt lat="48.86438" lon="2.33267">
        <ele>47.200000762939</ele>
        <time>2016-02-15T21:32:53.000Z</time>
      </trkpt>
      <trkpt lat="48.86456" lon="2.33276">
        <ele>47.400001525879</ele>
        <time>2016-02-15T21:32:58.000Z</time>
      </trkpt>
      <trkpt lat="48.8646" lon="2.33282">
        <ele>47.400001525879</ele>
        <time>2016-02-15T21:33:01.000Z</time>
      </trkpt>
      <trkpt lat="48.86457" lon="2.33313">
        <ele>47.799999237061</ele>
        <time>2016-02-15T21:33:07.000Z</time>
      </trkpt>
      <trkpt lat="48.86449" lon="2.33339">
        <ele>48</ele>
        <time>2016-02-15T21:33:11.000Z</time>
      </trkpt>
      <trkpt lat="48.86439" lon="2.33363">
        <ele>48.799999237061</ele>
        <time>2016-02-15T21:33:15.000Z</time>
      </trkpt>
      <trkpt lat="48.86419" lon="2.33388">
        <ele>49.400001525879</ele>
        <time>2016-02-15T21:33:18.000Z</time>
      </trkpt>
      <trkpt lat="48.86406" lon="2.33411">
        <ele>50.400001525879</ele>
        <time>2016-02-15T21:33:23.000Z</time>
      </trkpt>
      <trkpt lat="48.86403" lon="2.33414">
        <ele>50.400001525879</ele>
        <time>2016-02-15T21:33:24.000Z</time>
      </trkpt>
      <trkpt lat="48.86392" lon="2.33428">
        <ele>50.599998474121</ele>
        <time>2016-02-15T21:33:28.000Z</time>
      </trkpt>
      <trkpt lat="48.86378" lon="2.33447">
        <ele>50.400001525879</ele>
        <time>2016-02-15T21:33:32.000Z</time>
      </trkpt>
      <trkpt lat="48.86364" lon="2.33471">
        <ele>49.200000762939</ele>
        <time>2016-02-15T21:33:37.000Z</time>
      </trkpt>
      <trkpt lat="48.86353" lon="2.33495">
        <ele>47.799999237061</ele>
        <time>2016-02-15T21:33:41.000Z</time>
      </trkpt>
      <trkpt lat="48.86341" lon="2.33522">
        <ele>47</ele>
        <time>2016-02-15T21:33:46.000Z</time>
      </trkpt>
      <trkpt lat="48.86333" lon="2.33534">
        <ele>46.400001525879</ele>
        <time>2016-02-15T21:33:49.000Z</time>
      </trkpt>
      <trkpt lat="48.86317" lon="2.33547">
        <ele>45.799999237061</ele>
        <time>2016-02-15T21:33:54.000Z</time>
      </trkpt>
      <trkpt lat="48.86312" lon="2.33554">
        <ele>46.200000762939</ele>
        <time>2016-02-15T21:33:56.000Z</time>
      </trkpt>
      <trkpt lat="48.86311" lon="2.33587">
        <ele>47.400001525879</ele>
        <time>2016-02-15T21:34:01.000Z</time>
      </trkpt>
      <trkpt lat="48.86312" lon="2.33603">
        <ele>46.799999237061</ele>
        <time>2016-02-15T21:34:03.000Z</time>
      </trkpt>
      <trkpt lat="48.86304" lon="2.33634">
        <ele>46.200000762939</ele>
        <time>2016-02-15T21:34:07.000Z</time>
      </trkpt>
      <trkpt lat="48.86301" lon="2.33641">
        <ele>46.200000762939</ele>
        <time>2016-02-15T21:34:08.000Z</time>
      </trkpt>
      <trkpt lat="48.86293" lon="2.3367">
        <ele>46.200000762939</ele>
        <time>2016-02-15T21:34:12.000Z</time>
      </trkpt>
      <trkpt lat="48.86284" lon="2.33698">
        <ele>46.200000762939</ele>
        <time>2016-02-15T21:34:16.000Z</time>
      </trkpt>
      <trkpt lat="48.86276" lon="2.33725">
        <ele>46.200000762939</ele>
        <time>2016-02-15T21:34:20.000Z</time>
      </trkpt>
      <trkpt lat="48.86269" lon="2.33751">
        <ele>46</ele>
        <time>2016-02-15T21:34:24.000Z</time>
      </trkpt>
      <trkpt lat="48.86266" lon="2.33764">
        <ele>45.799999237061</ele>
        <time>2016-02-15T21:34:26.000Z</time>
      </trkpt>
      <trkpt lat="48.86256" lon="2.3379">
        <ele>45.599998474121</ele>
        <time>2016-02-15T21:34:30.000Z</time>
      </trkpt>
      <trkpt lat="48.86252" lon="2.33802">
        <ele>45.599998474121</ele>
        <time>2016-02-15T21:34:32.000Z</time>
      </trkpt>
      <trkpt lat="48.86243" lon="2.33826">
        <ele>44.599998474121</ele>
        <time>2016-02-15T21:34:36.000Z</time>
      </trkpt>
      <trkpt lat="48.86236" lon="2.33858">
        <ele>45.200000762939</ele>
        <time>2016-02-15T21:34:41.000Z</time>
      </trkpt>
      <trkpt lat="48.86229" lon="2.3389">
        <ele>45.799999237061</ele>
        <time>2016-02-15T21:34:46.000Z</time>
      </trkpt>
      <trkpt lat="48.86222" lon="2.33921">
        <ele>46.400001525879</ele>
        <time>2016-02-15T21:34:51.000Z</time>
      </trkpt>
      <trkpt lat="48.86217" lon="2.33934">
        <ele>46.400001525879</ele>
        <time>2016-02-15T21:34:53.000Z</time>
      </trkpt>
      <trkpt lat="48.86213" lon="2.33947">
        <ele>46.799999237061</ele>
        <time>2016-02-15T21:34:55.000Z</time>
      </trkpt>
      <trkpt lat="48.86208" lon="2.33966">
        <ele>47.799999237061</ele>
        <time>2016-02-15T21:34:58.000Z</time>
      </trkpt>
      <trkpt lat="48.86202" lon="2.33993">
        <ele>49</ele>
        <time>2016-02-15T21:35:02.000Z</time>
      </trkpt>
      <trkpt lat="48.86188" lon="2.3402">
        <ele>49</ele>
        <time>2016-02-15T21:35:06.000Z</time>
      </trkpt>
      <trkpt lat="48.86181" lon="2.34046">
        <ele>48.799999237061</ele>
        <time>2016-02-15T21:35:10.000Z</time>
      </trkpt>
      <trkpt lat="48.86176" lon="2.34075">
        <ele>48.599998474121</ele>
        <time>2016-02-15T21:35:14.000Z</time>
      </trkpt>
      <trkpt lat="48.86174" lon="2.34093">
        <ele>48.599998474121</ele>
        <time>2016-02-15T21:35:17.000Z</time>
      </trkpt>
      <trkpt lat="48.86172" lon="2.3411">
        <ele>48.799999237061</ele>
        <time>2016-02-15T21:35:21.000Z</time>
      </trkpt>
      <trkpt lat="48.86167" lon="2.34138">
        <ele>48.799999237061</ele>
        <time>2016-02-15T21:35:40.000Z</time>
      </trkpt>
      <trkpt lat="48.8616" lon="2.34163">
        <ele>49.200000762939</ele>
        <time>2016-02-15T21:35:44.000Z</time>
      </trkpt>
      <trkpt lat="48.86152" lon="2.3419">
        <ele>49</ele>
        <time>2016-02-15T21:35:48.000Z</time>
      </trkpt>
      <trkpt lat="48.8615" lon="2.34224">
        <ele>49.200000762939</ele>
        <time>2016-02-15T21:35:53.000Z</time>
      </trkpt>
      <trkpt lat="48.86143" lon="2.34256">
        <ele>49.400001525879</ele>
        <time>2016-02-15T21:35:58.000Z</time>
      </trkpt>
      <trkpt lat="48.86137" lon="2.34283">
        <ele>49.200000762939</ele>
        <time>2016-02-15T21:36:02.000Z</time>
      </trkpt>
      <trkpt lat="48.86131" lon="2.34316">
        <ele>50</ele>
        <time>2016-02-15T21:36:07.000Z</time>
      </trkpt>
      <trkpt lat="48.86127" lon="2.34345">
        <ele>49.799999237061</ele>
        <time>2016-02-15T21:36:11.000Z</time>
      </trkpt>
      <trkpt lat="48.86123" lon="2.34374">
        <ele>49.400001525879</ele>
        <time>2016-02-15T21:36:15.000Z</time>
      </trkpt>
      <trkpt lat="48.86121" lon="2.34382">
        <ele>49.599998474121</ele>
        <time>2016-02-15T21:36:16.000Z</time>
      </trkpt>
      <trkpt lat="48.86114" lon="2.34408">
        <ele>49.599998474121</ele>
        <time>2016-02-15T21:36:20.000Z</time>
      </trkpt>
      <trkpt lat="48.86113" lon="2.34415">
        <ele>49.599998474121</ele>
        <time>2016-02-15T21:36:21.000Z</time>
      </trkpt>
      <trkpt lat="48.86109" lon="2.34436">
        <ele>49.799999237061</ele>
        <time>2016-02-15T21:36:24.000Z</time>
      </trkpt>
      <trkpt lat="48.86105" lon="2.34465">
        <ele>50.599998474121</ele>
        <time>2016-02-15T21:36:28.000Z</time>
      </trkpt>
      <trkpt lat="48.86108" lon="2.34494">
        <ele>50.599998474121</ele>
        <time>2016-02-15T21:36:32.000Z</time>
      </trkpt>
      <trkpt lat="48.86101" lon="2.34525">
        <ele>50.799999237061</ele>
        <time>2016-02-15T21:36:37.000Z</time>
      </trkpt>
      <trkpt lat="48.86092" lon="2.34554">
        <ele>50.599998474121</ele>
        <time>2016-02-15T21:36:42.000Z</time>
      </trkpt>
      <trkpt lat="48.86083" lon="2.34577">
        <ele>50</ele>
        <time>2016-02-15T21:36:46.000Z</time>
      </trkpt>
      <trkpt lat="48.86067" lon="2.346">
        <ele>48</ele>
        <time>2016-02-15T21:36:51.000Z</time>
      </trkpt>
      <trkpt lat="48.86059" lon="2.34606">
        <ele>47.200000762939</ele>
        <time>2016-02-15T21:36:53.000Z</time>
      </trkpt>
      <trkpt lat="48.86039" lon="2.34617">
        <ele>47.200000762939</ele>
        <time>2016-02-15T21:36:57.000Z</time>
      </trkpt>
      <trkpt lat="48.86026" lon="2.34629">
        <ele>47.200000762939</ele>
        <time>2016-02-15T21:37:01.000Z</time>
      </trkpt>
      <trkpt lat="48.86015" lon="2.34642">
        <ele>47</ele>
        <time>2016-02-15T21:37:05.000Z</time>
      </trkpt>
      <trkpt lat="48.86007" lon="2.34649">
        <ele>47</ele>
        <time>2016-02-15T21:37:07.000Z</time>
      </trkpt>
      <trkpt lat="48.86001" lon="2.34657">
        <ele>46.599998474121</ele>
        <time>2016-02-15T21:37:09.000Z</time>
      </trkpt>
      <trkpt lat="48.85991" lon="2.34665">
        <ele>46.400001525879</ele>
        <time>2016-02-15T21:37:12.000Z</time>
      </trkpt>
      <trkpt lat="48.85978" lon="2.34677">
        <ele>46.400001525879</ele>
        <time>2016-02-15T21:37:15.000Z</time>
      </trkpt>
      <trkpt lat="48.85969" lon="2.34693">
        <ele>46.400001525879</ele>
        <time>2016-02-15T21:37:19.000Z</time>
      </trkpt>
      <trkpt lat="48.85967" lon="2.34721">
        <ele>45.200000762939</ele>
        <time>2016-02-15T21:37:28.000Z</time>
      </trkpt>
      <trkpt lat="48.85963" lon="2.34724">
        <ele>45.200000762939</ele>
        <time>2016-02-15T21:37:38.000Z</time>
      </trkpt>
      <trkpt lat="48.85963" lon="2.34722">
        <ele>45.200000762939</ele>
        <time>2016-02-15T21:37:46.000Z</time>
      </trkpt>
    </trkseg>
  </trk>
</gpx>